[[{"header":{"parameterUnit":"m.s-1","parameterCategory":1,"la1":31.0,"la2":29.5877,"lo1":-88.7671,"lo2":-86.6584,"dy":0.0162,"dx":0.0185,"nx":115,"ny":88,"refTime":"2023-09-25T12:00:00:Z","depth":0,"parameterNumber":2,"parameterNumberName":"U-component_of_WINDS"},"data":[0.0,0.0,0.0,0.0,0.0,0.0,0.0,0.0,0.0,0.0,0.0,0.0,0.0,0.0,0.0,0.0,0.0,0.0,0.0,0.0,0.0,0.0,0.0,0.0,0.0,0.0,0.0,0.0,0.0,0.0,0.0,0.0,0.0,0.0,0.0,0.0,0.0,0.0,0.0,0.0,0.0,0.0,0.0,0.0,0.0,0.0,0.0,0.0,0.0,0.0,0.0,0.0,0.0,0.0,0.0,0.0,0.0,0.0,0.0,0.0,0.0,0.0,0.0,0.0,0.0,0.0,0.0,0.0,0.0,0.0,0.0,0.0,0.0,0.0,0.0,0.0,0.0,0.0,0.0,0.0,0.0,0.0,0.0,0.0,0.0,0.0,0.0,0.0,0.0,0.0,0.0,0.0,0.0,0.0,0.0,0.0,0.0,0.0,0.0,0.0,0.0,0.0,0.0,0.0,0.0,0.0,0.0,0.0,0.0,0.0,0.0,0.0,0.0,0.0,0.0,0.0,0.0,0.0,0.0,0.0,0.0,0.0,0.0,0.0,0.0,0.0,0.0,0.0,0.0,0.0,0.0,0.0,0.0,0.0,0.0,0.0,0.0,0.0,0.0,0.0,0.0,0.0,0.0,0.0,0.0,0.0,0.0,0.0,0.0,0.0,0.0,0.0,0.0,0.0,0.0,0.0,0.0,0.0,0.0,0.0,0.0,0.0,0.0,0.0,0.0,0.0,0.0,0.0,0.0,0.0,0.0,0.0,0.0,0.0,0.0,0.0,0.0,0.0,0.0,0.0,0.0,0.0,0.0,0.0,0.0,0.0,0.0,0.0,0.0,0.0,0.0,0.0,0.0,0.0,0.0,0.0,0.0,0.0,0.0,0.0,0.0,0.0,0.0,0.0,0.0,0.0,0.0,0.0,0.0,0.0,0.0,0.0,0.0,0.0,0.0,0.0,0.0,0.0,0.0,0.0,0.0,0.0,0.0,0.0,0.0,0.0,0.0,0.0,0.0,0.0,0.0,0.0,0.0,0.0,0.0,0.0,0.0,0.0,0.0,0.0,0.0,0.0,0.0,0.0,0.0,0.0,0.0,0.0,0.0,0.0,0.0,0.0,0.0,0.0,0.0,0.0,0.0,0.0,0.0,0.0,0.0,0.0,0.0,0.0,0.0,0.0,0.0,0.0,0.0,0.0,0.0,0.0,0.0,0.0,0.0,0.0,0.0,0.0,0.0,0.0,0.0,0.0,0.0,0.0,0.0,0.0,0.0,0.0,0.0,0.0,0.0,0.0,0.0,0.0,0.0,0.0,0.0,0.0,0.0,0.0,0.0,0.0,0.0,0.0,0.0,0.0,0.0,0.0,0.0,0.0,0.0,0.0,0.0,0.0,0.0,0.0,0.0,0.0,0.0,0.0,0.0,0.0,0.0,0.0,0.0,0.0,0.0,0.0,0.0,0.0,0.0,0.0,0.0,0.0,0.0,0.0,0.0,0.0,0.0,0.0,0.0,0.0,0.0,0.0,0.0,0.0,0.0,0.0,0.0,0.0,0.0,0.0,0.0,0.0,0.0,0.0,0.0,0.0,0.0,0.0,0.0,0.0,0.0,0.0,0.0,0.0,0.0,0.0,0.0,0.0,0.0,0.0,0.0,0.0,0.0,0.0,0.0,0.0,0.0,0.0,0.0,0.0,0.0,0.0,0.0,0.0,0.0,0.0,0.0,0.0,0.0,0.0,0.0,0.0,0.0,0.0,0.0,0.0,0.0,0.0,0.0,0.0,0.0,0.0,0.0,0.0,0.0,0.0,0.0,0.0,0.0,0.0,0.0,0.0,0.0,0.0,0.0,0.0,0.0,0.0,0.0,0.0,0.0,0.0,0.0,0.0,0.0,0.0,0.0,0.0,0.0,0.0,0.0,0.0,0.0,0.0,0.0,0.0,0.0,0.0,0.0,0.0,0.0,0.0,0.0,0.0,0.0,0.0,0.0,0.0,0.0,0.0,0.0,0.0,0.0,0.0,0.0,0.0,0.0,0.0,0.0,0.0,0.0,0.0,0.0,0.0,0.0,0.0,0.0,0.0,0.0,0.0,0.0,0.0,0.0,0.0,0.0,0.0,0.0,0.0,0.0,0.0,0.0,0.0,0.0,0.0,0.0,0.0,0.0,0.0,0.0,0.0,0.0,0.0,0.0,0.0,0.0,0.0,0.0,0.0,0.0,0.0,0.0,0.0,0.0,0.0,0.0,0.0,0.0,0.0,0.0,0.0,0.0,0.0,0.0,0.0,0.0,0.0,0.0,0.0,0.0,0.0,0.0,0.0,0.0,0.0,0.0,0.0,0.0,0.0,0.0,0.0,0.0,0.0,0.0,0.0,0.0,0.0,0.0,0.0,0.0,0.0,0.0,0.0,0.0,0.0,0.0,0.0,0.0,0.0,0.0,0.0,0.0,0.0,0.0,0.0,0.0,0.0,0.0,0.0,0.0,0.0,0.0,0.0,0.0,0.0,0.0,0.0,0.0,0.0,0.0,0.0,0.0,0.0,0.0,0.0,0.0,0.0,0.0,0.0,0.0,0.0,0.0,0.0,0.0,0.0,0.0,0.0,0.0,0.0,0.0,0.0,0.0,0.0,0.0,0.0,0.0,0.0,0.0,0.0,0.0,0.0,0.0,0.0,0.0,0.0,0.0,0.0,0.0,0.0,0.0,0.0,0.0,0.0,0.0,0.0,0.0,0.0,0.0,0.0,0.0,0.0,0.0,0.0,0.0,0.0,0.0,0.0,0.0,0.0,0.0,0.0,0.0,0.0,0.0,0.0,0.0,0.0,0.0,0.0,0.0,0.0,0.0,0.0,0.0,0.0,0.0,0.0,0.0,0.0,0.0,0.0,0.0,0.0,0.0,0.0,0.0,0.0,0.0,0.0,0.0,0.0,0.0,0.0,0.0,0.0,0.0,0.0,0.0,0.0,0.0,0.0,0.0,0.0,0.0,0.0,0.0,0.0,0.0,0.0,0.0,0.0,0.0,0.0,0.0,0.0,0.0,0.0,0.0,0.0,0.0,0.0,0.0,0.0,0.0,0.0,0.0,0.0,0.0,0.0,0.0,0.0,0.0,0.0,0.0,0.0,0.0,0.0,0.0,0.0,0.0,0.0,0.0,0.0,0.0,0.0,0.0,0.0,0.0,0.0,0.0,0.0,0.0,0.0,0.0,0.0,0.0,0.0,0.0,0.0,0.0,0.0,0.0,0.0,0.0,0.0,0.0,0.0,0.0,0.0,0.0,0.0,0.0,0.0,0.0,0.0,0.0,0.0,0.0,0.0,0.0,0.0,0.0,0.0,0.0,0.0,0.0,0.0,0.0,0.0,0.0,0.0,0.0,0.0,0.0,0.0,0.0,0.0,0.0,0.0,0.0,0.0,0.0,0.0,0.0,0.0,0.0,0.0,0.0,0.0,0.0,0.0,0.0,0.0,0.0,0.0,0.0,0.0,0.0,0.0,0.0,0.0,0.0,0.0,0.0,0.0,0.0,0.0,0.0,0.0,0.0,0.0,0.0,0.0,0.0,0.0,0.0,0.0,0.0,0.0,0.0,0.0,0.0,0.0,0.0,0.0,0.0,0.0,0.0,0.0,0.0,0.0,0.0,0.0,0.0,0.0,0.0,0.0,0.0,0.0,0.0,0.0,0.0,0.0,0.0,0.0,0.0,0.0,0.0,0.0,0.0,0.0,0.0,0.0,0.0,0.0,0.0,0.0,0.0,0.0,0.0,0.0,0.0,0.0,0.0,0.0,0.0,0.0,0.0,0.0,0.0,0.0,0.0,0.0,0.0,0.0,0.0,0.0,0.0,0.0,0.0,0.0,0.0,0.0,0.0,0.0,0.0,0.0,0.0,0.0,0.0,0.0,0.0,0.0,0.0,0.0,0.0,0.0,0.0,0.0,0.0,0.0,0.0,0.0,0.0,0.0,0.0,0.0,0.0,0.0,0.0,0.0,0.0,0.0,0.0,0.0,0.0,0.0,0.0,0.0,0.0,0.0,0.0,0.0,0.0,0.0,0.0,0.0,0.0,0.0,0.0,0.0,0.0,0.0,0.0,0.0,0.0,0.0,0.0,0.0,0.0,0.0,0.0,0.0,0.0,0.0,0.0,0.0,0.0,0.0,0.0,0.0,0.0,0.0,0.0,0.0,0.0,0.0,0.0,0.0,0.0,0.0,0.0,0.0,0.0,0.0,0.0,0.0,0.0,0.0,0.0,0.0,0.0,0.0,0.0,0.0,0.2177,0.0,0.0,0.0,0.0,0.0,0.0,0.0,0.0,0.0,0.0,0.0,0.0,0.0,0.0,0.0,0.0,0.0,0.0,0.0,0.0,0.0,0.0,0.0,0.0,0.0,0.0,0.0,0.0,0.0,0.0,0.0,0.0,0.0,0.0,0.0,0.0,0.0,0.0,0.0,0.0,0.0,0.0,0.0,0.0,0.0,0.0,0.0,0.0,0.0,0.0,0.0,0.0,0.0,0.0,0.0,0.0,0.0,0.0,0.0,0.0,0.0,0.0,0.0,0.0,0.0,0.0,0.0,0.0,0.0,0.0,0.0,0.0,0.0,0.0,0.0,0.0,0.0,0.0,0.0,0.0,0.0,0.0,0.0,0.0,0.0,0.0,0.0,0.0,0.0,0.0,0.0,0.0,0.0,0.0,0.0,0.0,0.0,0.0,0.0,0.0,0.0,0.0,0.0,0.0,0.0,0.0,0.0,0.0,0.0,0.0,0.2475,0.2461,0.2394,0.2354,0.2368,0.0,0.0,0.0,0.0,0.0,0.0,0.0,0.0,0.0,0.0,0.0,0.0,0.0,0.0,0.0,0.0,0.0,0.0,0.0,0.0,0.0,0.0,0.0,0.0,0.0,0.0,0.0,0.0,0.0,0.0,0.0,0.0,0.0,0.0,0.0,0.0,0.0,0.0,0.0,0.0,0.0,0.0,0.0,0.0,0.0,0.0,0.0,0.0,0.0,0.0,0.0,0.0,0.0,0.0,0.0,0.0,0.0,0.0,0.0,0.0,0.0,0.0,0.0,0.0,0.0,0.0,0.0,0.0,0.0,0.0,0.0,0.0,0.0,0.0,0.0,0.0,0.0,0.0,0.0,0.0,0.0,0.0,0.0,0.0,0.0,0.0,0.0,0.0,0.0,0.0,0.0,0.0,0.0,0.0,0.0,0.0,0.0,0.0,0.0,0.0,0.0,0.0,0.0,0.0,0.0,0.0,0.0,0.0,0.0,0.0,0.0,0.0,0.2643,0.2555,0.2494,0.0,0.0,0.0,0.0,0.0,0.0,0.0,0.0,0.0,0.0,0.0,0.0,0.0,0.0,0.0,0.0,0.0,0.0,0.0,0.0,0.0,0.0,0.0,0.0,0.0,0.0,0.0,0.0,0.0,0.0,0.0,0.0,0.0,0.0,0.0,0.0,0.0,0.0,0.0,0.0,0.0,0.0,0.0,0.0,0.0,0.0,0.0,0.0,0.0,0.0,0.0,0.0,0.0,0.0,0.0,0.0,0.0,0.0,0.0,0.0,0.0,0.0,0.0,0.0,0.0,0.0,0.0,0.0,0.0,0.0,0.0,0.0,0.0,0.0,0.0,0.0,0.0,0.0,0.0,0.0,0.0,0.0,0.0,0.0,0.0,0.0,0.0,0.0,0.0,0.0,0.0,0.0,0.0,0.0,0.0,0.0,0.0,0.0,0.0,0.0,0.0,0.0,0.0,0.0,0.0,0.0,0.0,0.0,0.0,0.0,0.289,0.289,0.286,0.0,0.2507,0.0,0.0,0.0,0.0,0.0,0.0,0.0,0.0,0.0,0.0,0.0,0.0,0.0,0.0,0.0,0.0,0.0,0.0,0.0,0.0,0.0,0.0,0.0,0.0,0.0,0.0,0.0,0.0,0.0,0.0,0.0,0.0,0.0,0.0,0.0,0.0,0.0,0.0,0.0,0.0,0.0,0.0,0.0,0.0,0.0,0.0,0.0,0.0,0.0,0.0,0.0,0.0,0.0,0.0,0.0,0.0,0.0,0.0,0.0,0.0,0.0,0.0,0.0,0.0,0.0,0.0,0.0,0.0,0.0,0.0,0.0,0.0,0.0,0.0,0.0,0.0,0.0,0.0,0.0,0.0,0.0,0.0,0.0,0.0,0.0,0.0,0.0,0.0,0.0,0.0,0.0,0.0,0.0,0.0,0.0,0.0,0.0,0.0,0.0,0.0,0.0,0.0,0.0,0.0,0.0,0.0,0.0,0.0,0.0,0.0,0.2942,0.3004,0.2942,0.284,0.0,0.0,0.0,0.0,0.0,0.0,0.0,0.0,0.0,0.0,0.0,0.0,0.0,0.0,0.0,0.0,0.0,0.0,0.0,0.0,0.0,0.0,0.0,0.0,0.0,0.0,0.0,0.0,0.0,0.0,0.0,0.0,0.0,0.0,0.0,0.0,0.0,0.0,0.0,0.0,0.0,0.0,0.0,0.0,0.0,0.0,0.0,0.0,0.0,0.0,0.0,0.0,0.0,0.0,0.0,0.0,0.0,0.0,0.0,0.0,0.0,0.0,0.0,0.0,0.0,0.0,0.0,0.0,0.0,0.0,0.0,0.0,0.0,0.0,0.0,0.0,0.0,0.0,0.0,0.0,0.0,0.0,0.0,0.0,0.0,0.0,0.0,0.0,0.0,0.0,0.0,0.0,0.0,0.0,0.0,0.0,0.0,0.0,0.0,0.0,0.0,0.0,0.0,0.0,0.0,0.0,0.0,0.0,0.0,0.0,0.2966,0.306,0.3138,0.3011,0.2932,0.2901,0.0,0.0,0.0,0.0,0.0,0.0,0.0,0.0,0.0,0.0,0.0,0.0,0.0,0.0,0.0,0.0,0.0,0.0,0.0,0.0,0.0,0.0,0.0,0.0,0.0,0.0,0.0,0.0,0.0,0.0,0.0,0.0,0.0,0.0,0.0,0.0,0.0,0.0,0.0,0.0,0.0,0.0,0.0,0.0,0.0,0.0,0.0,0.0,0.0,0.0,0.0,0.0,0.0,0.0,0.0,0.0,0.0,0.0,0.0,0.0,0.0,0.0,0.0,0.0,0.0,0.0,0.0,0.0,0.0,0.0,0.0,0.0,0.0,0.0,0.0,0.0,0.0,0.0,0.0,0.0,0.0,0.0,0.0,0.0,0.0,0.0,0.0,0.0,0.0,0.0,0.0,0.0,0.0,0.0,0.0,0.0,0.0,0.0,0.0,0.0,0.0,0.0,0.0,0.0,0.0,0.0,0.0,0.0,0.2917,0.3142,0.3279,0.3296,0.3149,0.3043,0.0,0.0,0.0,0.0,0.0,0.0,0.0,0.0,0.0,0.0,0.0,0.0,0.0,0.0,0.0,0.0,0.0,0.0,0.0,0.0,0.0,0.0,0.0,0.0,0.0,0.0,0.0,0.0,0.0,0.0,0.0,0.0,0.0,0.0,0.0,0.0,0.0,0.0,0.0,0.0,0.0,0.0,0.0,0.0,0.0,0.0,0.0,0.0,0.0,0.0,0.0,0.0,0.0,0.0,0.0,0.0,0.0,0.0,0.0,0.0,0.0,0.0,0.0,0.0,0.0,0.0,0.0,0.0,0.0,0.0,0.0,0.0,0.0,0.0,0.0,0.0,0.0,0.0,0.0,0.0,0.0,0.0,0.0,0.0,0.0,0.0,0.0,0.0,0.0,0.0,0.0,0.0,0.0,0.0,0.0,0.0,0.0,0.0,0.0,0.0,0.0,0.0,0.0,0.0,0.0,0.0,0.0,0.0,0.0,0.3043,0.3327,0.35,0.3493,0.3229,0.3081,0.0,0.0,0.0,0.0,0.0,0.0,0.0,0.0,0.0,0.0,0.0,0.0,0.0,0.0,0.0,0.0,0.0,0.0,0.0,0.0,0.0,0.0,0.0,0.0,0.0,0.0,0.0,0.0,0.0,0.0,0.0,0.0,0.0,0.0,0.0,0.0,0.0,0.0,0.0,0.0,0.0,0.0,0.0,0.0,0.0,0.0,0.0,0.0,0.0,0.0,0.0,0.0,0.0,0.0,0.0,0.0,0.0,0.0,0.0,0.0,0.0,0.0,0.0,0.0,0.0,0.0,0.0,0.0,0.0,0.0,0.0,0.0,0.0,0.0,0.0,0.0,0.0,0.0,0.0,0.0,0.0,0.0,0.0,0.0,0.0,0.0,0.0,0.0,0.0,0.0,0.0,0.0,0.0,0.0,0.0,0.0,0.0,0.0,0.0,0.0,0.0,0.0,0.0,0.0,0.0,0.0,0.0,0.0,0.0,0.3253,0.0,0.3604,0.3608,0.332,0.3138,0.0,0.0,0.0,0.0,0.0,0.0,0.0,0.0,0.0,0.0,0.0,0.0,0.0,0.0,0.0,0.0,0.0,0.0,0.0,0.0,0.0,0.0,0.0,0.0,0.0,0.0,0.0,0.0,0.0,0.0,0.0,0.0,0.0,0.0,0.0,0.0,0.0,0.0,0.0,0.0,0.0,0.0,0.0,0.0,0.0,0.0,0.0,0.0,0.0,0.0,0.0,0.0,0.0,0.0,0.0,0.0,0.0,0.0,0.0,0.0,0.0,0.0,0.0,0.0,0.0,0.0,0.0,0.0,0.0,0.0,0.0,0.0,0.0,0.0,0.0,0.0,0.0,0.0,0.0,0.0,0.0,0.0,0.0,0.0,0.0,0.0,0.0,0.0,0.0,0.0,0.0,0.0,0.0,0.0,0.0,0.0,0.0,0.0,0.0,0.0,0.0,0.0,0.0,0.0,0.0,0.0,0.0,0.0,0.3249,0.3583,0.3593,0.361,0.3604,0.3422,0.3236,0.0,0.0,0.0,0.0,0.0,0.0,0.0,0.0,0.0,0.0,0.0,0.0,0.0,0.0,0.0,0.0,0.0,0.0,0.0,0.0,0.0,0.0,0.0,0.0,0.0,0.0,0.0,0.0,0.0,0.0,0.0,0.0,0.0,0.0,0.0,0.0,0.0,0.0,0.0,0.0,0.0,0.0,0.0,0.0,0.0,0.0,0.0,0.0,0.0,0.0,0.0,0.0,0.0,0.0,0.0,0.0,0.0,0.0,0.0,0.0,0.0,0.0,0.0,0.0,0.0,0.0,0.0,0.0,0.0,0.0,0.0,0.0,0.0,0.0,0.0,0.0,0.0,0.0,0.0,0.0,0.0,0.0,0.0,0.0,0.0,0.0,0.0,0.0,0.0,0.0,0.0,0.0,0.0,0.0,0.0,0.0,0.0,0.0,0.0,0.0,0.0,0.0,0.0,0.0,0.0,0.0,0.0,0.0,0.0,0.3729,0.3754,0.3742,0.3735,0.3581,0.3364,0.0,0.0,0.0,0.0,0.0,0.0,0.0,0.0,0.0,0.0,0.0,0.0,0.0,0.0,0.0,0.0,0.0,0.0,0.0,0.0,0.0,0.0,0.0,0.0,0.0,0.0,0.0,0.0,0.0,0.0,0.0,0.0,0.0,0.0,0.0,0.0,0.0,0.0,0.0,0.0,0.0,0.0,0.0,0.0,0.0,0.0,0.0,0.0,0.0,0.0,0.0,0.0,0.0,0.0,0.0,0.0,0.0,0.0,0.0,0.0,0.0,0.0,0.0,0.0,0.0,0.0,0.0,0.0,0.0,0.0,0.0,0.0,0.0,0.0,0.0,0.0,0.0,0.0,0.0,0.0,0.0,0.0,0.0,0.0,0.0,0.0,0.0,0.0,0.0,0.0,0.0,0.0,0.0,0.0,0.0,0.0,0.0,0.0,0.0,0.0,0.0,0.0,0.0,0.0,0.0,0.0,0.0,0.0,0.0,0.4047,0.3946,0.388,0.3873,0.3742,0.3563,0.3297,0.0,0.0,0.0,0.0,0.0,0.0,0.0,0.0,0.0,0.0,0.0,0.0,0.0,0.0,0.0,0.0,0.0,0.0,0.0,0.0,0.0,0.0,0.0,0.0,0.0,0.0,0.0,0.0,0.0,0.0,0.0,0.0,0.0,0.0,0.0,0.0,0.0,0.0,0.0,0.0,0.0,0.0,0.0,0.0,0.0,0.0,0.0,0.0,0.0,0.0,0.0,0.0,0.0,0.0,0.0,0.0,0.0,0.0,0.0,0.0,0.0,0.0,0.0,0.0,0.0,0.0,0.0,0.0,0.0,0.0,0.0,0.0,0.0,0.0,0.0,0.0,0.0,0.0,0.0,0.0,0.0,0.0,0.0,0.0,0.0,0.0,0.0,0.0,0.0,0.0,0.0,0.0,0.0,0.0,0.0,0.0,0.0,0.0,0.0,0.0,0.0,0.0,0.0,0.0,0.0,0.0,0.0,0.0,0.4484,0.4199,0.4044,0.4018,0.3907,0.3763,0.0,0.0,0.0,0.0,0.0,0.0,0.0,0.0,0.0,0.0,0.0,0.0,0.0,0.0,0.0,0.0,0.0,0.0,0.0,0.0,0.0,0.0,0.0,0.0,0.0,0.0,0.0,0.0,0.0,0.0,0.0,0.0,0.0,0.0,0.0,0.0,0.0,0.0,0.0,0.0,0.0,0.0,0.0,0.0,0.0,0.0,0.0,0.0,0.0,0.0,0.0,0.0,0.0,0.0,0.0,0.0,0.0,0.0,0.0,0.0,0.0,0.0,0.0,0.0,0.0,0.0,0.0,0.0,0.0,0.0,0.0,0.0,0.0,0.0,0.0,0.0,0.0,0.0,0.0,0.0,0.0,0.0,0.0,0.0,0.0,0.0,0.0,0.0,0.0,0.0,0.0,0.0,0.0,0.0,0.0,0.0,0.0,0.0,0.0,0.0,0.0,0.0,0.0,0.0,0.0,0.0,0.0,0.0,0.0,0.447,0.4511,0.4457,0.4361,0.4334,0.4076,0.0,0.0,0.0,0.0,0.0,0.0,0.0,0.0,0.0,0.0,0.0,0.0,0.0,0.0,0.0,0.0,0.0,0.0,0.0,0.0,0.0,0.0,0.0,0.0,0.0,0.0,0.0,0.0,0.0,0.0,0.0,0.0,0.0,0.0,0.0,0.0,0.0,0.0,0.0,0.0,0.0,0.0,0.0,0.0,0.0,0.0,0.0,0.0,0.0,0.0,0.0,0.0,0.0,0.0,0.0,0.0,0.0,0.0,0.0,0.0,0.0,0.0,0.0,0.0,0.0,0.0,0.0,0.0,0.0,0.0,0.0,0.0,0.0,0.0,0.0,0.0,0.0,0.0,0.0,0.0,0.0,0.0,0.0,0.0,0.0,0.0,0.0,0.0,0.0,0.0,0.0,0.0,0.0,0.0,0.0,0.0,0.0,0.0,0.0,0.0,0.0,0.0,0.0,0.0,0.0,0.0,0.0,0.0,0.4368,0.4653,0.4802,0.483,0.4741,0.4586,0.43,0.0,0.0,0.0,0.0,0.0,0.0,0.0,0.0,0.0,0.0,0.0,0.0,0.0,0.0,0.0,0.0,0.0,0.0,0.0,0.0,0.0,0.0,0.0,0.0,0.0,0.0,0.0,0.0,0.0,0.0,0.0,0.0,0.0,0.0,0.0,0.0,0.0,0.0,0.0,0.0,0.0,0.0,0.0,0.0,0.0,0.0,0.0,0.0,0.0,0.0,0.0,0.0,0.0,0.0,0.0,0.0,0.0,0.0,0.0,0.0,0.0,0.0,0.0,0.0,0.0,0.0,0.0,0.0,0.0,0.0,0.0,0.0,0.0,0.0,0.0,0.0,0.0,0.0,0.0,0.0,0.0,0.0,0.0,0.0,0.0,0.0,0.0,0.0,0.0,0.0,0.0,0.0,0.0,0.0,0.0,0.0,0.0,0.0,0.0,0.0,0.0,0.0,0.0,0.0,0.0,0.0,0.0,0.0,0.4641,0.4896,0.5045,0.5119,0.5126,0.4749,0.4436,0.0,0.0,0.0,0.0,0.0,0.0,0.0,0.0,0.0,0.0,0.0,0.0,0.0,0.0,0.0,0.0,0.0,0.0,0.0,0.0,0.0,0.0,0.0,0.0,0.0,0.0,0.0,0.0,0.0,0.0,0.0,0.0,0.0,0.0,0.0,0.0,0.0,0.0,0.0,0.0,0.0,0.0,0.0,0.0,0.0,0.0,0.0,0.0,0.0,0.0,0.0,0.0,0.0,0.0,0.0,0.0,0.0,0.0,0.0,0.0,0.0,0.0,0.0,0.0,0.0,0.0,0.0,0.0,0.0,0.0,0.0,0.0,0.0,0.0,0.0,0.0,0.0,0.0,0.0,0.0,0.0,0.0,0.0,0.0,0.0,0.0,0.0,0.0,0.0,0.0,0.0,0.0,0.0,0.0,0.0,0.0,0.0,0.0,0.0,0.0,0.0,0.0,0.0,0.0,0.0,0.0,0.0,0.0,0.4627,0.4896,0.5022,0.5189,0.5321,0.5008,0.4668,0.0,0.0,0.0,0.0,0.0,0.0,0.0,0.0,0.0,0.0,0.0,0.0,0.0,0.0,0.0,0.0,0.0,0.0,0.0,0.0,0.0,0.0,0.0,0.0,0.0,0.0,0.0,0.0,0.0,0.0,0.0,0.0,0.0,0.0,0.0,0.0,0.0,0.0,0.0,0.0,0.0,0.0,0.0,0.0,0.0,0.0,0.0,0.0,0.7899,0.0,0.0,0.0,0.0,0.0,0.0,0.0,0.0,0.0,0.0,0.0,0.0,0.0,0.0,0.0,0.0,0.0,0.0,0.0,0.0,0.0,0.0,0.0,0.0,0.0,0.0,0.0,0.0,0.0,0.0,0.0,0.0,0.0,0.0,0.0,0.0,0.0,0.0,0.0,0.0,0.0,0.0,0.0,0.0,0.0,0.0,0.0,0.0,0.0,0.0,0.0,0.0,0.0,0.0,0.0,0.0,0.0,0.0,0.0,0.4789,0.4997,0.5146,0.5294,0.5385,0.5137,0.4822,0.0,0.0,0.0,0.0,0.0,0.0,0.0,0.0,0.0,0.0,0.0,0.0,0.0,0.0,0.0,0.0,0.0,0.0,0.0,0.0,0.0,0.0,0.0,0.0,0.0,0.0,0.0,0.0,0.0,0.0,0.0,0.0,0.0,0.0,0.0,0.0,0.0,0.0,0.0,0.0,0.0,0.0,0.0,0.0,0.0,0.0,0.0,0.0,0.0,0.0,0.0,0.0,0.0,0.0,0.0,0.0,0.0,0.0,0.0,0.0,0.0,0.0,0.0,0.0,0.0,0.0,0.0,0.0,0.0,0.0,0.0,0.0,0.0,0.0,0.0,0.0,0.0,0.0,0.0,0.0,0.0,0.0,0.0,0.0,0.0,0.0,0.0,0.0,0.0,0.0,0.0,0.0,0.0,0.0,0.0,0.0,0.0,0.0,0.0,0.0,0.0,0.0,0.0,0.0,0.0,0.0,0.0,0.4665,0.4955,0.5096,0.5294,0.5408,0.5435,0.5224,0.4975,0.4677,0.0,0.0,0.0,0.0,0.0,0.0,0.0,0.0,0.0,0.0,0.0,0.0,0.0,0.0,0.0,0.0,0.0,0.0,0.0,0.0,0.0,0.0,0.0,0.0,0.0,0.0,0.0,0.0,0.0,0.0,0.0,0.0,0.0,0.0,0.0,0.0,0.0,0.0,0.7611,0.8188,0.0,0.0,0.0,0.0,0.0,0.0,0.0,0.0,0.8938,0.0,0.0,0.0,0.0,0.0,0.0,0.0,0.0,0.0,0.0,0.0,0.0,0.0,0.0,0.0,0.0,0.0,0.0,0.0,0.0,0.0,0.0,0.0,0.0,0.0,0.0,0.0,0.0,0.0,0.0,0.0,0.0,0.0,0.0,0.0,0.0,0.0,0.0,0.0,0.0,0.0,0.0,0.0,0.0,0.0,0.0,0.0,0.0,0.0,0.0,0.0,0.0,0.0,0.0,0.0,0.0,0.4207,0.4644,0.497,0.5096,0.53,0.5458,0.556,0.5248,0.5078,0.4994,0.0,0.0,0.0,0.0,0.0,0.0,0.0,0.0,0.0,0.0,0.0,0.0,0.0,0.0,0.0,0.0,0.0,0.0,0.0,0.0,0.0,0.0,0.0,0.0,0.0,0.0,0.0,0.0,0.0,0.0,0.0,0.0,0.0,0.0,0.0,0.0,0.0,0.0,0.0,0.8871,0.9205,0.0,0.0,0.0,0.0,0.0,0.0,0.0,0.0,0.9405,0.0,0.0,0.0,0.0,0.0,0.0,0.0,0.0,0.0,0.0,0.0,0.0,0.0,0.0,0.0,0.0,0.0,0.0,0.0,0.0,0.0,0.0,0.0,0.0,0.0,0.0,0.0,0.0,0.0,0.0,0.0,0.0,0.0,0.0,0.0,0.0,0.0,0.0,0.0,0.0,0.0,0.0,0.0,0.0,0.0,0.0,0.0,0.0,0.0,0.0,0.0,0.0,0.0,0.0,0.0,0.4355,0.4713,0.5011,0.5243,0.5341,0.5425,0.5484,0.5333,0.521,0.0,0.0,0.0,0.0,0.0,0.0,0.0,0.0,0.0,0.0,0.0,0.0,0.0,0.0,0.0,0.0,0.0,0.0,0.0,0.0,0.0,0.0,0.0,0.0,0.0,0.0,0.0,0.0,0.0,0.0,0.0,0.0,0.0,0.0,0.0,0.0,0.0,0.0,0.0,0.0,0.9192,0.9633,1.0104,0.0,0.0,0.0,0.0,0.0,0.0,0.9913,0.9792,0.0,0.0,0.0,0.0,0.0,0.0,0.0,0.0,0.0,0.0,0.0,0.0,0.0,0.0,0.0,0.0,0.0,0.0,0.0,0.0,0.0,0.0,0.0,0.0,0.0,0.0,0.0,0.0,0.0,0.0,0.0,0.0,0.0,0.0,0.0,0.0,0.0,0.0,0.0,0.0,0.0,0.0,0.0,0.0,0.0,0.0,0.0,0.0,0.0,0.0,0.0,0.0,0.0,0.0,0.0,0.4498,0.4762,0.5065,0.5426,0.5412,0.5429,0.5483,0.5433,0.5322,0.0,0.0,0.0,0.0,0.0,0.0,0.0,0.0,0.0,0.0,0.0,0.0,0.0,0.0,0.0,0.0,0.0,0.0,0.0,0.0,0.0,0.0,0.0,0.0,0.0,0.0,0.0,0.0,0.0,0.0,0.0,0.0,0.0,0.0,0.0,0.0,0.0,0.0,0.0,0.0,0.0,1.0075,1.0615,1.0717,0.0,0.0,0.0,0.0,1.0432,1.0365,0.0,0.0,0.0,0.0,0.0,0.0,0.0,0.0,0.0,0.0,0.0,0.0,0.0,0.0,0.0,0.0,0.0,0.0,0.0,0.0,0.0,0.0,0.0,0.0,0.0,0.0,0.0,0.0,0.0,0.0,0.0,0.0,0.0,0.0,0.0,0.0,0.0,0.0,0.0,0.0,0.0,0.0,0.0,0.0,0.0,0.0,0.0,0.0,0.0,0.0,0.0,0.0,0.0,0.0,0.0,0.0,0.4484,0.4747,0.5128,0.5528,0.5467,0.552,0.5747,0.5539,0.5404,0.0,0.0,0.0,0.0,0.0,0.0,0.0,0.0,0.0,0.0,0.0,0.0,0.0,0.0,0.0,0.0,0.0,0.0,0.0,0.0,0.0,0.0,0.0,0.0,0.0,0.0,0.0,0.0,0.0,0.0,0.0,0.0,0.0,0.0,0.0,0.0,0.0,0.0,0.0,0.0,0.0,1.0613,1.0918,1.1139,1.1326,0.0,0.0,1.1339,1.1259,1.1242,0.0,0.0,0.0,0.0,0.0,0.0,0.0,0.0,0.0,0.0,0.0,0.0,0.0,0.0,0.0,0.0,0.0,0.0,0.0,0.0,0.0,0.0,0.0,0.0,0.0,0.0,0.0,0.0,0.0,0.0,0.0,0.0,0.0,0.0,0.0,0.0,0.0,0.0,0.0,0.0,0.0,0.0,0.0,0.0,0.0,0.0,0.0,0.0,0.0,0.0,0.0,0.0,0.0,0.0,0.0,0.4144,0.4607,0.4869,0.52,0.5593,0.562,0.5638,0.5686,0.5512,0.5343,0.0,0.0,0.0,0.0,0.0,0.0,0.0,0.0,0.0,0.0,0.0,0.0,0.0,0.0,0.0,0.0,0.0,0.0,0.0,0.0,0.0,0.0,0.0,0.0,0.0,0.0,0.0,0.0,0.0,0.0,0.0,0.0,0.0,0.0,0.0,0.0,0.0,0.0,0.0,0.0,0.0,0.0,1.165,1.1833,0.0,0.0,0.0,1.2366,1.2198,0.0,0.0,0.0,0.0,0.0,0.0,0.0,0.0,0.0,0.0,0.0,0.0,0.0,0.0,0.0,0.0,0.0,0.0,0.0,0.0,0.0,0.0,0.0,0.0,0.0,0.0,0.0,0.0,0.0,0.0,0.0,0.0,0.0,0.0,0.0,0.0,0.0,0.0,0.0,0.0,0.0,0.0,0.0,0.0,0.0,0.0,0.0,0.0,0.0,0.0,0.0,0.0,0.0,0.0,0.0,0.0,0.0,0.4702,0.5004,0.5338,0.5654,0.5763,0.5752,0.5661,0.5534,0.0,0.0,0.0,0.0,0.0,0.0,0.0,0.0,0.0,0.0,0.0,0.0,0.0,0.0,0.0,0.0,0.0,0.0,0.0,0.0,0.0,0.0,0.0,0.0,0.0,0.0,0.0,0.5821,0.0,0.0,0.0,0.0,0.0,0.0,0.0,0.0,0.0,0.0,0.0,0.0,0.0,0.0,1.1583,1.2336,1.2532,1.2799,0.0,0.0,1.324,1.3032,1.2738,1.2425,0.0,0.0,0.0,0.0,0.0,0.0,0.0,0.0,0.0,0.0,0.0,0.0,0.0,0.0,0.0,0.0,0.0,0.0,0.0,0.0,0.0,0.0,0.0,0.0,0.0,0.0,0.0,0.0,0.0,0.0,0.0,0.0,0.0,0.0,0.0,0.0,0.0,0.0,0.0,0.0,0.0,0.0,0.0,0.0,0.0,0.0,0.0,0.0,0.0,0.0,0.0,0.0,0.0,0.0,0.4362,0.4708,0.5153,0.5505,0.5772,0.5793,0.5793,0.5786,0.5644,0.5435,0.0,0.0,0.0,0.0,0.0,0.0,0.0,0.0,0.0,0.0,0.0,0.0,0.0,0.0,0.0,0.0,0.0,0.0,0.0,0.0,0.0,0.0,0.0,0.0,0.0,0.0,0.0,0.0,0.0,0.0,0.0,0.0,0.0,0.0,0.0,0.0,0.0,0.0,0.0,0.0,0.0,1.2363,1.2703,1.32,1.3533,0.0,1.3573,1.356,1.3547,1.3327,1.3039,1.2784,0.0,0.0,0.0,0.0,0.0,0.0,0.0,0.0,0.0,0.0,0.0,0.0,0.0,0.0,0.0,0.0,0.0,0.0,0.0,0.0,0.0,0.0,0.0,0.0,0.0,0.0,0.0,0.0,0.0,0.0,0.0,0.0,0.0,0.0,0.0,0.0,0.0,0.0,0.0,0.0,0.0,0.0,0.0,0.0,0.0,0.0,0.0,0.0,0.0,0.0,0.0,0.0,0.0,0.4572,0.4943,0.5318,0.5661,0.591,0.6056,0.6062,0.5924,0.571,0.554,0.0,0.0,0.0,0.0,0.0,0.0,0.0,0.0,0.0,0.0,0.0,0.0,0.0,0.0,0.0,0.0,0.0,0.0,0.0,0.0,0.0,0.0,0.0,0.0,0.0,0.0,0.0,0.0,0.7651,0.8024,0.8332,0.0,0.0,0.0,0.0,0.0,0.0,0.0,0.0,0.0,0.0,1.3026,1.3527,1.3921,0.0,0.0,1.4456,1.4456,1.4456,1.4194,1.3975,1.3854,1.3465,0.0,0.0,0.0,0.0,0.0,0.0,0.0,0.0,0.0,0.0,0.0,0.0,0.0,0.0,0.0,0.0,0.0,0.0,0.0,0.0,0.0,0.0,0.0,0.0,0.0,0.0,0.0,0.0,0.0,0.0,0.0,0.0,0.0,0.0,0.0,0.0,0.0,0.0,0.0,0.0,0.0,0.0,0.0,0.0,0.0,0.0,0.0,0.0,0.0,0.0,0.0,0.0,0.481,0.5196,0.5542,0.584,0.6091,0.6226,0.6226,0.6098,0.5836,0.5662,0.0,0.0,0.0,0.0,0.0,0.0,0.0,0.0,0.0,0.0,0.0,0.0,0.0,0.0,0.0,0.0,0.0,0.0,0.0,0.0,0.0,0.0,0.0,0.0,0.0,0.0,0.0,0.0,0.7972,0.8268,0.8653,0.0,0.0,0.0,0.0,0.0,0.0,0.0,0.0,0.0,0.0,1.3515,1.416,1.4493,1.4769,1.5081,1.5121,1.5121,1.5121,1.4861,1.4664,1.4641,0.0,0.0,0.0,0.0,0.0,0.0,0.0,0.0,0.0,0.0,0.0,0.0,0.0,0.0,0.0,0.0,0.0,0.0,0.0,0.0,0.0,0.0,0.0,0.0,0.0,0.0,0.0,0.4278,0.0,0.0,0.4288,0.0,0.0,0.0,0.0,0.0,0.0,0.0,0.0,0.0,0.0,0.0,0.0,0.0,0.0,0.0,0.0,0.0,0.0,0.0,0.0,0.0,0.0,0.506,0.5392,0.5775,0.6098,0.6293,0.63,0.6306,0.6293,0.6105,0.5813,0.5446,0.0,0.0,0.0,0.0,0.0,0.0,0.0,0.0,0.0,0.0,0.0,0.0,0.0,0.0,0.0,0.0,0.0,0.0,0.0,0.0,0.0,0.0,0.0,0.0,0.0,0.0,0.8142,0.8486,0.8586,0.0,0.0,0.0,0.0,0.0,0.0,0.0,0.0,0.0,1.2763,1.318,1.3684,1.4465,1.4796,1.5086,1.5352,1.5378,1.5378,1.5378,1.5163,1.4997,0.0,0.0,0.0,0.0,0.0,0.0,0.0,0.0,0.0,0.0,0.0,0.0,0.0,0.0,0.0,0.0,0.0,0.0,0.0,0.0,0.0,0.0,0.0,0.0,0.0,0.0,0.0,0.5279,0.5179,0.0,0.0,0.0,0.0,0.0,0.0,0.0,0.0,0.0,0.0,0.0,0.597,0.5998,0.0,0.0,0.0,0.0,0.0,0.0,0.0,0.0,0.0,0.0,0.0,0.0,0.5375,0.5675,0.6022,0.6302,0.6566,0.6552,0.6552,0.6573,0.6328,0.6002,0.5536,0.0,0.0,0.0,0.0,0.0,0.0,0.0,0.0,0.0,0.0,0.0,0.0,0.0,0.0,0.0,0.0,0.0,0.0,0.0,0.0,0.0,0.0,0.0,0.0,0.0,0.7945,0.0,0.0,0.0,0.0,0.0,0.0,0.0,0.0,0.0,0.0,0.0,1.2113,1.2869,1.3529,1.4081,1.4521,1.4814,1.5009,0.0,0.0,0.0,0.0,0.0,0.0,0.0,0.0,0.0,0.0,0.0,0.0,0.0,0.0,1.4005,1.3611,1.3444,1.3403,1.3403,0.0,0.0,0.0,0.0,0.0,0.0,0.0,0.0,0.0,0.0,0.0,0.0,0.0,0.0,0.6204,0.6075,0.601,0.0,0.0,0.0,0.0,0.0,0.0,0.0,0.0,0.6391,0.6511,0.6447,0.6479,0.6404,0.6242,0.61,0.5748,0.0,0.0,0.0,0.0,0.0,0.0,0.0,0.0,0.5736,0.5981,0.63,0.6552,0.6763,0.6729,0.6722,0.6749,0.6484,0.6153,0.5849,0.5568,0.5309,0.0,0.0,0.0,0.0,0.0,0.0,0.0,0.0,0.0,0.0,0.0,0.0,0.0,0.0,0.0,0.0,0.0,0.0,0.0,0.0,0.0,0.0,0.0,0.8194,0.0,0.0,0.0,0.0,0.0,0.0,0.0,0.0,0.0,1.1025,1.1555,1.2169,1.2913,1.3498,1.401,1.438,0.0,0.0,0.0,0.0,0.0,0.0,0.0,1.5658,1.5837,1.581,1.5873,1.6186,1.5908,1.5684,1.5765,0.0,0.0,1.4545,1.434,1.4279,1.4279,1.4088,1.3897,1.3826,1.3846,1.3876,0.0,0.0,0.0,0.0,0.7046,0.0,0.0,0.0,0.7045,0.7045,0.0,0.6831,0.0,0.0,0.0,0.0,0.6337,0.6328,0.0,0.0,0.6874,0.69,0.674,0.6922,0.6846,0.6545,0.6538,0.6457,0.6279,0.5726,0.0,0.0,0.0,0.0,0.0,0.0,0.6118,0.632,0.658,0.6783,0.6904,0.6797,0.6783,0.6891,0.6512,0.632,0.6286,0.5858,0.561,0.5595,0.5166,0.0,0.0,0.0,0.0,0.0,0.0,0.0,0.0,0.0,0.0,0.0,0.0,0.0,0.0,0.0,0.0,0.0,0.0,0.0,0.0,0.8341,0.0,0.0,0.0,0.0,0.0,0.0,0.0,0.0,0.0,1.0665,1.1419,1.1734,1.2149,1.2886,0.0,0.0,0.0,0.0,1.4455,1.4696,1.4749,1.4788,1.4799,1.5065,1.5274,1.5342,0.0,0.0,1.6045,1.609,1.6129,1.6426,1.639,1.6165,1.5172,1.4828,1.4657,1.4646,1.4453,1.4333,1.4499,1.4496,1.4586,0.8546,0.0,0.0,0.0,0.0,0.809,0.8147,0.8147,0.8147,0.8053,0.7914,0.7557,0.0,0.0,0.0,0.0,0.0,0.0,0.7009,0.7012,0.7332,0.7394,0.721,0.7361,0.7325,0.7137,0.716,0.7008,0.6715,0.6546,0.6241,0.5847,0.0,0.0,0.0,0.0,0.6424,0.658,0.6763,0.6911,0.7038,0.7012,0.6965,0.6889,0.6782,0.6634,0.6457,0.6212,0.6004,0.5755,0.5524,0.0,0.0,0.0,0.0,0.0,0.0,0.0,0.0,0.0,0.0,0.0,0.0,0.0,0.0,0.0,0.0,0.0,0.0,0.0,0.8063,0.8324,0.8512,0.0,0.0,0.0,0.0,0.0,0.0,0.0,0.0,0.0,1.0612,1.1258,1.1913,0.0,0.0,1.2935,1.3264,1.3351,1.3469,1.3625,1.382,0.0,1.4451,1.4731,1.5014,1.5499,1.5842,1.6076,1.6171,1.5969,1.5828,1.5933,1.579,1.5532,1.5311,1.5474,1.5536,1.5378,1.5144,1.4861,1.4557,1.4457,1.4433,0.9518,0.9054,0.9007,0.8948,0.8828,0.8942,0.8982,0.8982,0.8932,0.8797,0.8542,0.8151,0.7851,0.7617,0.7252,0.0,0.0,0.0,0.7353,0.7353,0.7578,0.76,0.7491,0.758,0.7573,0.7485,0.7485,0.7366,0.7168,0.7175,0.6958,0.6573,0.0,0.6409,0.6282,0.6566,0.6783,0.6878,0.7088,0.7215,0.7274,0.7296,0.7229,0.7087,0.7026,0.6877,0.6661,0.6471,0.6272,0.6008,0.5786,0.5482,0.0,0.0,0.0,0.0,0.0,0.0,0.0,0.0,0.0,0.0,0.0,0.5032,0.5282,0.0,0.0,0.0,0.7276,0.7933,0.8368,0.8462,0.0,0.0,0.0,0.0,0.0,0.0,0.0,0.9046,0.9587,1.0054,1.0252,1.0852,1.1419,1.1839,1.2191,1.2501,1.2676,0.0,1.3152,1.3211,1.3368,1.357,1.3905,1.416,1.4495,1.5016,1.54,1.5628,1.5742,1.5689,1.5689,1.5761,1.557,1.5369,1.5369,1.5463,1.5512,1.5487,1.5389,1.5186,1.4822,1.4753,1.4704,1.0276,1.0243,0.9867,0.9697,0.9648,0.9648,0.9648,0.9607,0.947,0.9276,0.8986,0.8598,0.8276,0.7965,0.7646,0.0,0.7684,0.7515,0.7498,0.7617,0.7631,0.7631,0.7638,0.7638,0.7631,0.7638,0.7638,0.7624,0.7611,0.7611,0.7536,0.7403,0.698,0.677,0.677,0.7012,0.7132,0.7132,0.7455,0.7597,0.7597,0.7597,0.7553,0.7419,0.7231,0.7051,0.6924,0.6668,0.6464,0.6314,0.6022,0.5722,0.544,0.0,0.0,0.0,0.0,0.0,0.0,0.0,0.0,0.0,0.0,0.0,0.0,0.0,0.0,0.6875,0.7914,0.0,0.8574,0.8678,0.0,0.0,0.0,0.864,0.8571,0.8973,0.9233,0.9214,0.0,0.0,1.0164,1.0509,1.0831,1.1025,1.1679,1.2133,1.2103,1.2656,1.3147,1.3075,1.3155,1.3173,1.323,1.35,1.3847,1.4203,1.4417,1.4733,1.4951,1.5224,1.5527,1.5676,1.5541,1.5336,1.5368,1.4916,1.4668,1.5096,1.5141,1.5121,1.5019,1.4978,1.4937,1.0972,1.0936,1.0875,1.0534,1.0064,1.0064,0.9909,0.9669,0.9656,0.9486,0.9189,0.8811,0.8339,0.7849,0.7767,0.7688,0.7643,0.7682,0.7726,0.7767,0.7858,0.7887,0.7912,0.7887,0.7912,0.7912,0.7912,0.7851,0.7743,0.7736,0.7685,0.7543,0.7441,0.7326,0.7246,0.74,0.7489,0.7465,0.7563,0.7597,0.7597,0.7597,0.7553,0.7403,0.7355,0.7244,0.7051,0.6897,0.6749,0.66,0.6335,0.6028,0.5711,0.5562,0.0,0.0,0.0,0.0,0.0,0.0,0.0,0.0,0.0,0.5903,0.6058,0.0,0.6794,0.0,0.7687,0.8097,0.8351,0.8383,0.0,0.0,0.9071,0.9076,0.9096,0.9331,0.9461,0.9355,0.9631,0.9901,1.0022,1.027,1.0423,1.0509,1.1058,1.1416,1.1462,1.1547,1.1742,1.1922,1.1985,1.2057,1.2499,1.3052,1.3531,1.3938,1.4026,1.4109,1.4154,1.4237,1.4321,1.439,1.4333,1.4268,1.4301,1.4157,1.4122,1.4211,1.4143,1.4016,1.3828,1.3806,1.3797,1.0792,1.0792,1.0792,1.0601,1.0249,1.0314,1.0147,0.9834,0.9656,0.9489,0.9243,0.8789,0.8422,0.8113,0.8106,0.8065,0.7997,0.8072,0.8113,0.8113,0.8194,0.8209,0.8209,0.8174,0.8147,0.8115,0.8047,0.7973,0.7891,0.7909,0.7851,0.777,0.777,0.7753,0.7672,0.7685,0.7692,0.7692,0.7736,0.7794,0.777,0.7794,0.7695,0.757,0.7532,0.74,0.7244,0.7019,0.687,0.6803,0.66,0.6369,0.613,0.6023,0.5933,0.0,0.0,0.0,0.0,0.0,0.0,0.0,0.0,0.0,0.0,0.0,0.7279,0.7701,0.8116,0.8425,0.8684,0.8666,0.8838,0.9331,0.9273,0.9257,0.9404,0.9599,0.9686,0.9659,0.9883,1.0049,1.0197,1.0317,1.0399,1.0466,1.0765,1.0995,1.113,1.1295,1.1506,1.1587,1.1642,1.1697,1.2066,1.2437,1.2758,1.2931,1.3227,1.3424,1.3424,1.3678,1.3875,1.3875,1.3785,1.3687,1.3654,1.3358,1.3211,1.3269,1.3251,1.3309,1.3512,1.3559,1.355,1.0368,1.0368,1.036,1.0331,1.0324,1.0397,1.0264,0.9957,0.9647,0.9372,0.9135,0.8734,0.8533,0.8539,0.8539,0.8526,0.8505,0.8505,0.8505,0.8505,0.8505,0.8505,0.8498,0.8383,0.8321,0.8315,0.816,0.8049,0.8067,0.8067,0.806,0.8047,0.804,0.8033,0.8006,0.7885,0.7817,0.7817,0.7946,0.7988,0.7988,0.7988,0.7939,0.779,0.7668,0.755,0.7396,0.7122,0.6945,0.6904,0.6803,0.6661,0.6552,0.6518,0.6464,0.0,0.6375,0.0,0.0,0.0,0.0,0.0,0.0,0.0,0.0,0.7307,0.7796,0.8272,0.8728,0.9031,0.9195,0.9146,0.9243,0.9553,0.9403,0.9383,0.9602,0.9795,0.9907,1.0024,1.0222,1.0358,1.0493,1.0521,1.0575,1.0644,1.073,1.0781,1.0953,1.1312,1.1563,1.1644,1.1644,1.1563,1.171,1.1743,1.1791,1.1906,1.2351,1.2682,1.2722,1.3211,1.3666,1.3633,1.3394,1.3228,1.3244,1.2714,1.2363,1.2468,1.2536,1.2817,1.346,1.3714,1.3822,1.0696,1.0696,1.0696,1.0546,1.0291,1.0206,1.0033,0.9846,0.9652,0.9335,0.8948,0.8866,0.8757,0.8642,0.8669,0.8601,0.8512,0.8505,0.8505,0.8505,0.8505,0.8505,0.8505,0.8485,0.8464,0.8438,0.8437,0.8423,0.8397,0.8423,0.8369,0.8228,0.8253,0.8167,0.7995,0.0,0.0,0.0,0.8,0.7988,0.7988,0.7988,0.7939,0.7821,0.7787,0.0,0.741,0.7342,0.7177,0.6903,0.6877,0.0,0.0,0.0,0.0,0.0,0.0,0.0,0.0,0.0,0.0,0.0,0.7482,0.7495,0.7448,0.7887,0.8252,0.845,0.8664,0.8872,0.9168,0.9189,0.9305,0.9571,0.9655,0.9768,0.9913,1.01,1.0249,1.0392,1.0432,1.0507,1.061,1.0644,1.0683,1.0677,1.0717,1.0711,1.0776,1.0862,1.0916,1.0923,1.0989,1.1023,1.128,1.1321,1.1478,1.184,1.2019,1.2199,1.2297,1.2429,1.2539,1.2566,1.2479,1.2437,1.2471,1.2308,1.2198,1.225,1.2285,1.2448,1.2896,1.3262,1.3509,1.0308,1.0308,1.0308,1.0217,0.0,0.9988,0.9912,0.9785,0.9592,0.9368,0.915,0.9076,0.9001,0.8954,0.8852,0.8784,0.871,0.8683,0.871,0.871,0.8676,0.871,0.8703,0.8628,0.8594,0.8594,0.8546,0.8505,0.8505,0.8505,0.8471,0.8403,0.8403,0.8362,0.8262,0.8255,0.8162,0.7988,0.7988,0.7988,0.7988,0.7988,0.7979,0.7898,0.7824,0.0,0.0,0.0,0.0,0.0,0.0,0.0,0.0,0.7143,0.0,0.7149,0.7217,0.7269,0.7337,0.7411,0.758,0.7934,0.8201,0.8284,0.816,0.8425,0.8662,0.8825,0.8981,0.9137,0.9354,0.9471,0.9571,0.9771,0.9927,1.0107,1.0218,1.0337,1.0446,1.0575,1.0602,1.0636,1.0711,1.0717,1.0717,1.0717,1.0717,1.0717,1.0717,1.0717,1.0717,1.0717,1.0717,1.0778,1.0986,1.1034,1.1183,1.1527,1.1733,1.1871,1.1937,1.2089,1.22,1.22,1.22,1.22,1.22,1.2089,1.1973,1.2053,1.2075,1.2181,1.2477,1.2839,1.3093,0.9682,0.9682,0.9719,0.97,0.9649,0.9649,0.969,0.9711,0.9537,0.0,0.0,0.9309,0.9248,0.9213,0.9069,0.8987,0.8987,0.896,0.8946,0.8946,0.8926,0.8912,0.8906,0.8784,0.8723,0.8743,0.8621,0.856,0.856,0.8587,0.8573,0.8553,0.8546,0.8506,0.8512,0.8505,0.8364,0.8101,0.8067,0.8054,0.8054,0.8027,0.7988,0.7988,0.7891,0.7841,0.7814,0.7675,0.7624,0.7604,0.7597,0.7597,0.7597,0.7624,0.7638,0.7638,0.7692,0.7767,0.7882,0.7891,0.8065,0.8396,0.875,0.8913,0.8737,0.8885,0.9076,0.9254,0.9376,0.949,0.9636,0.9788,0.9893,1.0042,1.0229,1.0397,1.0473,1.0521,1.0582,1.0697,1.0711,1.0717,1.0717,1.0717,1.0717,1.0717,1.0717,1.0717,1.0717,1.0717,1.0717,1.0717,1.0751,1.0779,1.088,1.0975,1.1009,1.1248,1.1476,1.1628,1.1719,1.19,1.2073,1.2067,1.208,1.2088,1.2046,1.1852,1.1741,1.1825,1.1896,1.1967,1.2101,1.2411,1.2727,0.9285,0.9285,0.9285,0.9224,0.9088,0.9088,0.9205,0.9383,0.9503,0.9503,0.941,0.939,0.9376,0.9376,0.9356,0.932,0.9342,0.9213,0.918,0.9145,0.8967,0.8912,0.8912,0.8892,0.8879,0.8879,0.8852,0.8845,0.8845,0.8845,0.8784,0.8689,0.8676,0.8615,0.8519,0.8505,0.8459,0.8444,0.8303,0.8267,0.826,0.8081,0.7988,0.7988,0.7975,0.7918,0.7814,0.7794,0.7726,0.7604,0.7597,0.7597,0.7604,0.7726,0.778,0.7794,0.8031,0.8213,0.8233,0.8342,0.852,0.8791,0.9022,0.9062,0.8906,0.9157,0.9381,0.9523,0.9571,0.9663,0.9913,0.9974,1.0055,1.0229,1.0371,1.0473,1.05,1.0609,1.069,1.0717,1.0717,1.0717,1.0717,1.0717,1.0717,1.0717,1.0717,1.0717,1.0717,1.0717,1.0717,1.0738,1.0799,1.088,1.0934,1.1063,1.1185,1.137,1.1432,1.1501,1.1604,1.1689,1.1731,1.1688,1.1731,1.1703,1.171,1.1659,1.1652,1.1673,1.1679,1.1693,1.1727,1.2059,1.2536,0.9188,0.9188,0.9188,0.9151,0.9097,0.9097,0.9118,0.9174,0.9418,0.9549,0.9618,0.9544,0.9503,0.9496,0.9444,0.941,0.9403,0.9335,0.9308,0.9294,0.9152,0.9055,0.9049,0.8946,0.8912,0.8912,0.8912,0.8912,0.8912,0.8912,0.8879,0.8811,0.8804,0.877,0.8737,0.873,0.873,0.8723,0.8526,0.841,0.8384,0.8316,0.8275,0.8282,0.8182,0.8174,0.8174,0.8099,0.809,0.8104,0.8104,0.8079,0.8079,0.814,0.8174,0.818,0.8328,0.8451,0.8506,0.875,0.8968,0.9164,0.932,0.9374,0.9313,0.9422,0.9571,0.9707,0.9765,0.9873,0.9977,1.0163,1.0317,1.0385,1.0527,1.0616,1.0622,1.067,1.0717,1.0717,1.0717,1.0717,1.0717,1.0717,1.0717,1.0717,1.0717,1.0717,1.0717,1.0717,1.0717,1.0731,1.0813,1.0941,1.105,1.1192,1.1341,1.1491,1.1511,1.1545,1.1577,1.1584,1.1584,1.1584,1.1584,1.1584,1.1584,1.1584,1.1584,1.1584,1.1584,1.1584,1.1655,1.2086,1.2689,0.8796,0.8822,0.8828,0.8843,0.8936,0.904,0.9032,0.898,0.9287,0.9504,0.9665,0.9643,0.9659,0.9646,0.953,0.9483,0.9476,0.9442,0.9458,0.9444,0.9301,0.9233,0.9248,0.9089,0.8994,0.896,0.896,0.8946,0.8912,0.8912,0.8912,0.8912,0.8912,0.8912,0.8912,0.8912,0.8912,0.8899,0.8676,0.8567,0.856,0.8526,0.8505,0.8498,0.8403,0.8396,0.8498,0.8403,0.8396,0.8498,0.8505,0.8505,0.8512,0.8513,0.8533,0.8566,0.8621,0.8703,0.8859,0.9097,0.9301,0.9451,0.9537,0.9625,0.9659,0.9693,0.9724,0.9832,0.994,1.0004,1.0136,1.0344,1.0507,1.0541,1.0649,1.0711,1.0717,1.0717,1.0717,1.0717,1.0717,1.0717,1.0717,1.0717,1.0717,1.0717,1.0717,1.0717,1.0717,1.0717,1.0717,1.0758,1.084,1.1029,1.1193,1.1328,1.147,1.157,1.1577,1.1577,1.1584,1.1584,1.1584,1.1584,1.1584,1.1584,1.1584,1.1584,1.1584,1.1584,1.1584,1.1584,1.1619,1.2223,1.2824,0.7659,0.7664,0.7688,0.7804,0.809,0.8537,0.8742,0.8756,0.9074,0.9227,0.9298,0.9623,0.9771,0.9802,0.9751,0.9761,0.9724,0.9646,0.9585,0.9571,0.9464,0.9361,0.939,0.934,0.9294,0.9179,0.9165,0.9104,0.894,0.8926,0.8912,0.8912,0.8912,0.8912,0.8912,0.8912,0.8912,0.8912,0.8885,0.8804,0.8689,0.8554,0.8505,0.8505,0.8498,0.8465,0.8499,0.8498,0.8498,0.8505,0.8519,0.8512,0.8532,0.8615,0.8662,0.871,0.8968,0.9186,0.93,0.9376,0.9429,0.9571,0.9605,0.9673,0.9765,0.9893,0.9943,0.9977,0.9984,1.0143,1.0412,1.048,1.0555,1.0663,1.0704,1.0717,1.0717,1.0717,1.0717,1.0717,1.0717,1.0717,1.0717,1.0717,1.0717,1.0717,1.0717,1.0717,1.0717,1.0717,1.0717,1.0765,1.0948,1.1145,1.122,1.1416,1.1565,1.1577,1.1584,1.1584,1.1584,1.1584,1.1584,1.1584,1.1584,1.1584,1.1584,1.1584,1.1584,1.1584,1.1584,1.1584,1.1691,1.2273,1.2775,0.7493,0.7493,0.7493,0.7569,0.772,0.8136,0.8307,0.8275,0.8792,0.8972,0.8959,0.9287,0.9511,0.9643,0.9741,0.9792,0.9785,0.9761,0.9734,0.972,0.9585,0.9517,0.951,0.9422,0.9376,0.9322,0.9315,0.9288,0.9211,0.9198,0.9157,0.9104,0.909,0.8994,0.8919,0.8912,0.8912,0.8912,0.8912,0.8879,0.8825,0.8757,0.875,0.8716,0.8662,0.8635,0.873,0.8669,0.8662,0.8743,0.875,0.8791,0.89,0.8968,0.9043,0.9103,0.9247,0.9383,0.9503,0.9517,0.9578,0.9697,0.9704,0.9765,0.9907,0.9981,1.0082,1.0283,1.0278,1.0371,1.048,1.0542,1.0656,1.0711,1.0717,1.0717,1.0717,1.0717,1.0717,1.0717,1.0717,1.0717,1.0717,1.0717,1.0717,1.0717,1.0717,1.0717,1.0717,1.0717,1.0717,1.0744,1.09,1.1056,1.12,1.1423,1.1579,1.1584,1.1584,1.1584,1.1584,1.1584,1.1584,1.1584,1.1584,1.1584,1.1584,1.1584,1.1584,1.1584,1.1584,1.1584,1.1584,1.2301,1.2815,0.6924,0.6958,0.7125,0.7225,0.7259,0.7727,0.7877,0.7873,0.8426,0.8639,0.8593,0.8939,0.9194,0.9368,0.9601,0.9761,0.9846,0.9812,0.9792,0.9778,0.9713,0.9636,0.9652,0.9557,0.9483,0.9449,0.9442,0.9451,0.9417,0.941,0.9349,0.9282,0.9247,0.9164,0.9048,0.9034,0.9027,0.9034,0.9034,0.9027,0.9062,0.9027,0.8994,0.8885,0.8804,0.8818,0.896,0.8893,0.8906,0.9021,0.9034,0.9103,0.9233,0.9275,0.9315,0.9451,0.9442,0.9539,0.9652,0.9666,0.9713,0.9778,0.9825,0.99,0.997,1.0089,1.0231,1.0446,1.0527,1.0555,1.0568,1.0656,1.0717,1.0717,1.0717,1.0717,1.0717,1.0717,1.0717,1.0717,1.0717,1.0717,1.0717,1.0717,1.0717,1.0717,1.0717,1.0717,1.0717,1.0717,1.0717,1.0724,1.0819,1.0968,1.1186,1.1369,1.1538,1.1577,1.1584,1.1584,1.1584,1.1584,1.1584,1.1584,1.1584,1.1584,1.1584,1.1584,1.1584,1.1584,1.1619,1.1719,1.1911,1.254,1.2977,0.548,0.5617,0.6254,0.6522,0.6589,0.7259,0.7522,0.7507,0.7946,0.8141,0.8209,0.8683,0.8926,0.8995,0.9362,0.9666,0.9926,0.9866,0.9805,0.9805,0.9778,0.9778,0.9785,0.9771,0.9727,0.9605,0.9598,0.953,0.9437,0.9424,0.941,0.9396,0.9396,0.9396,0.934,0.9362,0.9383,0.9356,0.9327,0.9347,0.9376,0.9376,0.9211,0.896,0.8878,0.9001,0.9152,0.9165,0.9226,0.9376,0.934,0.939,0.9367,0.9374,0.9449,0.9578,0.9598,0.9629,0.9751,0.9778,0.9785,0.9819,0.9934,0.9984,1.0069,1.0265,1.0453,1.0493,1.0622,1.069,1.069,1.0704,1.0717,1.0717,1.0717,1.0717,1.0717,1.0717,1.0717,1.0717,1.0717,1.0717,1.0717,1.0717,1.0717,1.0717,1.0717,1.0717,1.0717,1.0717,1.0717,1.0744,1.0813,1.0961,1.1179,1.1321,1.1463,1.1565,1.1584,1.1584,1.1584,1.1584,1.1584,1.1584,1.1584,1.1584,1.1584,1.1584,1.1584,1.1626,1.1719,1.1861,1.2191,1.2685,1.3154,0.5413,0.5413,0.5681,0.5819,0.5882,0.6552,0.6857,0.692,0.7493,0.7861,0.8084,0.8309,0.8624,0.9042,0.9101,0.936,0.9797,0.9877,0.9934,0.9927,0.9839,0.9792,0.9792,0.9792,0.9771,0.9724,0.9741,0.972,0.9673,0.9666,0.9612,0.9537,0.953,0.9483,0.943,0.941,0.941,0.941,0.941,0.941,0.9417,0.941,0.9349,0.9232,0.9218,0.9274,0.9328,0.9328,0.9356,0.941,0.941,0.9422,0.9523,0.9582,0.9686,0.9704,0.971,0.9768,0.9822,0.9879,0.994,0.9947,1.0076,1.0236,1.0324,1.0432,1.0527,1.0622,1.0677,1.0717,1.0717,1.0717,1.0717,1.0717,1.0717,1.0717,1.0717,1.0717,1.0717,1.0717,1.0717,1.0717,1.0717,1.0717,1.0717,1.0717,1.0717,1.0717,1.0717,1.0717,1.0717,1.0724,1.0738,1.0853,1.1172,1.1322,1.1436,1.1552,1.1584,1.1584,1.1584,1.1584,1.1584,1.1584,1.1584,1.1584,1.1584,1.1584,1.1619,1.1719,1.1811,1.2148,1.2444,1.3089,1.3602,0.5047,0.5044,0.5178,0.5211,0.5279,0.5882,0.6217,0.6351,0.6924,0.7393,0.7755,0.7989,0.8356,0.8773,0.8898,0.9145,0.9523,0.9766,0.9901,0.9919,0.9872,0.9866,0.9852,0.9812,0.9792,0.9792,0.9792,0.9792,0.9792,0.9792,0.9737,0.965,0.968,0.9625,0.9537,0.9523,0.9523,0.9523,0.9523,0.9523,0.9523,0.9523,0.9553,0.9523,0.9523,0.9496,0.9462,0.9485,0.9483,0.9517,0.9523,0.9571,0.9673,0.9737,0.9812,0.9852,0.9866,0.9886,0.9971,1.0035,1.0096,1.0103,1.0256,1.0399,1.0487,1.0534,1.0616,1.0697,1.0717,1.0717,1.0717,1.0717,1.0717,1.0717,1.0717,1.0717,1.0717,1.0717,1.0717,1.0717,1.0717,1.0717,1.0717,1.0717,1.0717,1.0717,1.0717,1.0717,1.0717,1.0717,1.0717,1.0717,1.0724,1.0867,1.1111,1.1274,1.1416,1.1538,1.1577,1.1584,1.1584,1.1584,1.1584,1.1584,1.1584,1.1584,1.1584,1.1584,1.1719,1.1861,1.2148,1.2451,1.2963,1.3596,1.4087,0.4313,0.4383,0.4675,0.4815,0.4882,0.5248,0.5614,0.5882,0.6351,0.6753,0.7121,0.7722,0.8056,0.8256,0.874,0.9033,0.9174,0.9497,0.9704,0.9773,0.9901,0.999,1.0008,0.9879,0.9805,0.9792,0.9792,0.9792,0.9792,0.9792,0.9778,0.9785,0.9771,0.9758,0.9808,0.9774,0.9795,0.9751,0.9774,0.9758,0.9785,0.9758,0.9751,0.9758,0.9788,0.9697,0.9618,0.9612,0.9636,0.9744,0.9765,0.9785,0.9792,0.9819,0.9873,0.9994,0.999,1.0096,1.0274,1.0263,1.0308,1.0329,1.0412,1.05,1.0534,1.0629,1.0704,1.0711,1.0717,1.0717,1.0717,1.0717,1.0717,1.0717,1.0717,1.0717,1.0717,1.0717,1.0717,1.0717,1.0717,1.0717,1.0717,1.0717,1.0717,1.0717,1.0717,1.0717,1.0717,1.0717,1.0717,1.0704,1.0738,1.09,1.1043,1.1227,1.1369,1.1531,1.1586,1.1584,1.1584,1.1584,1.1584,1.1584,1.1584,1.1584,1.1633,1.1676,1.2004,1.2198,1.2502,1.2904,1.3491,1.4073,1.4629,0.4016,0.4045,0.4384,0.4538,0.4567,0.4864,0.5041,0.5208,0.5811,0.628,0.6686,0.7154,0.7622,0.8056,0.8323,0.8523,0.8778,0.9123,0.9504,0.9832,0.9856,0.9949,1.015,1.0021,0.9893,0.9805,0.9792,0.9792,0.9792,0.9792,0.9792,0.9792,0.9792,0.9792,0.9792,0.9792,0.9792,0.9792,0.9792,0.9792,0.9792,0.9792,0.9792,0.9792,0.9792,0.9765,0.9724,0.9754,0.9744,0.9792,0.9792,0.9832,0.994,1.008,1.0154,1.0202,1.0209,1.0222,1.0276,1.0403,1.0426,1.0453,1.0561,1.0636,1.0649,1.0683,1.0717,1.0717,1.0717,1.0717,1.0717,1.0717,1.0717,1.0717,1.0717,1.0717,1.0717,1.0717,1.0717,1.0717,1.0717,1.0717,1.0717,1.0717,1.0717,1.0717,1.0717,1.0717,1.0717,1.0731,1.0772,1.0813,1.086,1.0934,1.1158,1.1322,1.1402,1.1531,1.1556,1.1584,1.1584,1.1584,1.1584,1.1584,1.1584,1.1655,1.1669,1.1904,1.2205,1.2655,1.3059,1.3536,1.4027,1.4562,1.5116,0.368,0.3713,0.4065,0.4223,0.4255,0.4555,0.4731,0.4879,0.5315,0.5811,0.6254,0.6652,0.7121,0.7655,0.7989,0.8189,0.8423,0.8756,0.9275,0.9815,0.9871,1.0037,1.0305,1.0202,1.0093,0.9998,0.993,0.9879,0.9873,0.9819,0.9792,0.9792,0.9792,0.9792,0.9792,0.9792,0.9792,0.9792,0.9792,0.9792,0.9792,0.9792,0.9792,0.9792,0.9792,0.9819,0.9866,0.9873,0.9873,0.9886,0.9927,1.0008,1.0134,1.0222,1.0335,1.0383,1.0397,1.0378,1.0439,1.0534,1.0575,1.0595,1.0637,1.0684,1.0717,1.0717,1.0717,1.0717,1.0717,1.0717,1.0717,1.0717,1.0717,1.0717,1.0717,1.0717,1.0717,1.0717,1.0717,1.0717,1.0717,1.0717,1.0717,1.0717,1.0717,1.0717,1.0717,1.0717,1.0731,1.0738,1.0833,1.0914,1.0961,1.1131,1.1328,1.1409,1.145,1.1531,1.1577,1.1584,1.1584,1.1584,1.1584,1.1584,1.1584,1.1763,1.1849,1.2177,1.2495,1.3052,1.3618,1.4132,1.46,1.5023,1.5565,0.3268,0.3336,0.3722,0.3895,0.3965,0.4302,0.458,0.485,0.4947,0.5287,0.5841,0.6304,0.6661,0.7087,0.7689,0.8056,0.8156,0.849,0.8984,0.9546,0.9848,1.011,1.042,1.0337,1.027,1.0254,1.0089,1.0035,1.0021,0.992,0.9812,0.9825,0.9825,0.9798,0.9792,0.9792,0.9792,0.9792,0.9792,0.9792,0.9792,0.9792,0.9805,0.9812,0.9825,0.9886,1.0008,1.0049,1.0017,1.0049,1.0195,1.0301,1.0322,1.0297,1.0424,1.05,1.0507,1.0568,1.0677,1.0683,1.0697,1.0697,1.0704,1.0717,1.0717,1.0717,1.0717,1.0717,1.0717,1.0717,1.0717,1.0717,1.0717,1.0717,1.0717,1.0717,1.0717,1.0717,1.0717,1.0717,1.0717,1.0717,1.0717,1.0717,1.0731,1.0751,1.0758,1.0772,1.0819,1.086,1.0921,1.1002,1.1138,1.1253,1.1443,1.1484,1.1518,1.1552,1.1584,1.1584,1.1584,1.1584,1.1584,1.1584,1.1734,1.1878,1.215,1.2539,1.2971,1.3565,1.4131,1.4667,1.5108,1.5557,1.6042,0.2995,0.3065,0.3393,0.3701,0.398,0.405,0.4267,0.4635,0.4878,0.5049,0.53,0.5869,0.6344,0.6694,0.7359,0.7827,0.8123,0.8456,0.8817,0.925,0.963,1.0038,1.041,1.0453,1.0385,1.0329,1.0249,1.0215,1.0215,1.0161,1.0093,0.9961,0.9954,0.99,0.9812,0.9805,0.9792,0.9792,0.9798,0.9805,0.9805,0.9805,0.9852,0.9954,0.9954,1.0035,1.0215,1.0324,1.0324,1.0236,1.0358,1.0439,1.0478,1.0527,1.0595,1.0629,1.0649,1.0663,1.0704,1.0717,1.0717,1.0717,1.0717,1.0717,1.0717,1.0717,1.0717,1.0717,1.0717,1.0731,1.0724,1.0731,1.0731,1.0717,1.0744,1.0738,1.0717,1.0717,1.0717,1.0717,1.0724,1.0731,1.0738,1.0751,1.0785,1.0826,1.086,1.0914,1.0975,1.105,1.1118,1.1233,1.1335,1.1423,1.1511,1.1545,1.1579,1.1592,1.1584,1.1584,1.1584,1.1584,1.1584,1.1584,1.1942,1.2136,1.2583,1.3015,1.3571,1.4091,1.4665,1.5201,1.5569,1.6003,1.6577,0.2625,0.2659,0.3038,0.3425,0.3783,0.3933,0.419,0.4523,0.4732,0.4873,0.5065,0.5574,0.6012,0.6344,0.7184,0.7665,0.7899,0.839,0.8889,0.9422,0.9921,1.0307,1.0536,1.0582,1.0541,1.0466,1.0399,1.0403,1.0358,1.0349,1.0261,1.0161,1.0116,1.01,1.0039,1.0012,1.0012,1.0019,1.0012,1.0012,1.0019,1.0012,1.0053,1.0103,1.0116,1.0215,1.0365,1.0514,1.0521,1.0432,1.05,1.0588,1.0595,1.0663,1.0717,1.0717,1.0717,1.0717,1.0717,1.0717,1.0717,1.0717,1.0717,1.0717,1.0717,1.0717,1.0731,1.0779,1.0779,1.0813,1.0894,1.0907,1.0907,1.0921,1.0907,1.0853,1.0744,1.0717,1.0717,1.0698,1.0738,1.0779,1.0786,1.0867,1.0941,1.1009,1.1036,1.1077,1.1166,1.124,1.128,1.1369,1.1457,1.1525,1.1552,1.1579,1.1613,1.1633,1.1611,1.1604,1.1732,1.1732,1.1811,1.1897,1.2164,1.2518,1.3044,1.3556,1.4052,1.4625,1.5214,1.5718,1.6118,1.6501,1.7083,0.2296,0.2333,0.2698,0.3099,0.3534,0.3898,0.4227,0.4553,0.4655,0.4799,0.5066,0.5442,0.5816,0.6119,0.7188,0.7655,0.7612,0.83,0.8989,0.9622,1.0193,1.0571,1.0664,1.069,1.0683,1.0656,1.0568,1.0527,1.05,1.0399,1.0331,1.0304,1.0335,1.0315,1.0261,1.0281,1.0301,1.0274,1.0261,1.0254,1.0254,1.0261,1.0249,1.0297,1.0344,1.0399,1.0521,1.0629,1.0617,1.0521,1.0649,1.0697,1.0677,1.0717,1.0717,1.0717,1.0717,1.0717,1.0717,1.0717,1.0738,1.0718,1.0725,1.0758,1.0792,1.0819,1.086,1.0928,1.0934,1.1016,1.1125,1.1179,1.1159,1.1145,1.1166,1.1057,1.0846,1.0732,1.0732,1.0772,1.0867,1.0921,1.0968,1.107,1.1193,1.1172,1.1199,1.124,1.1294,1.1375,1.1409,1.1436,1.1518,1.1599,1.1577,1.1577,1.164,1.1667,1.1651,1.1701,1.193,1.201,1.2119,1.2278,1.2649,1.3118,1.3646,1.4121,1.46,1.5076,1.5637,1.6177,1.6653,1.7073,1.7578,0.2296,0.2296,0.2369,0.2844,0.3464,0.3609,0.4039,0.4679,0.4679,0.4859,0.5172,0.555,0.5859,0.6202,0.7177,0.7694,0.7733,0.8375,0.8989,0.9661,1.0093,1.0459,1.0651,1.0717,1.0717,1.0677,1.069,1.067,1.0649,1.0609,1.0561,1.046,1.0472,1.0424,1.0342,1.0349,1.0315,1.0315,1.0322,1.0335,1.0342,1.0342,1.0358,1.0439,1.0548,1.0622,1.0663,1.0704,1.0704,1.069,1.0697,1.0717,1.0717,1.0717,1.0717,1.0717,1.0717,1.0717,1.0724,1.0704,1.0778,1.0853,1.0867,1.0948,1.1091,1.1084,1.1104,1.1152,1.1152,1.1172,1.1227,1.1206,1.1227,1.124,1.1227,1.12,1.1118,1.1097,1.1077,1.1091,1.1084,1.1152,1.1118,1.1151,1.1268,1.1342,1.1397,1.1396,1.1457,1.1518,1.1525,1.1518,1.1552,1.1584,1.159,1.1653,1.1721,1.1835,1.1862,1.1942,1.2136,1.2472,1.267,1.2905,1.3184,1.369,1.4198,1.4659,1.5127,1.5607,1.6074,1.6597,1.715,1.7578,1.8074,0.2296,0.2296,0.2296,0.2771,0.3427,0.3538,0.3973,0.4592,0.4701,0.4902,0.5237,0.5587,0.5941,0.6328,0.7327,0.7807,0.8006,0.8759,0.9342,0.9779,1.016,1.0525,1.0651,1.0717,1.0717,1.0717,1.0717,1.0717,1.0717,1.0717,1.067,1.0609,1.0595,1.0575,1.05,1.048,1.05,1.05,1.0487,1.0487,1.0487,1.0487,1.0507,1.0588,1.0644,1.0717,1.0717,1.0717,1.0717,1.0717,1.0717,1.0717,1.0717,1.0717,1.0717,1.0717,1.0717,1.0765,1.0765,1.0806,1.0894,1.1036,1.1016,1.109,1.1179,1.12,1.124,1.1281,1.1308,1.1322,1.1362,1.1382,1.1375,1.1375,1.141,1.1375,1.139,1.1295,1.12,1.1213,1.1254,1.1288,1.1308,1.1301,1.1369,1.1477,1.1484,1.1518,1.1525,1.1579,1.1586,1.1592,1.1563,1.1584,1.1604,1.1701,1.1816,1.1987,1.2197,1.2321,1.2497,1.2911,1.3289,1.3528,1.3699,1.4243,1.4773,1.5215,1.5695,1.6192,1.6674,1.715,1.7683,1.8276,1.8756,0.2296,0.2296,0.2369,0.2808,0.3427,0.3573,0.401,0.4629,0.4774,0.5026,0.532,0.572,0.6181,0.667,0.7527,0.7961,0.8417,0.912,0.975,0.995,1.0405,1.0658,1.0717,1.0717,1.0717,1.0717,1.0717,1.0717,1.0717,1.0717,1.0711,1.0677,1.0711,1.0683,1.0671,1.0717,1.0683,1.067,1.067,1.0677,1.0683,1.0683,1.0657,1.0697,1.0711,1.0717,1.0717,1.0717,1.0717,1.0717,1.0717,1.0717,1.0717,1.0717,1.0738,1.0751,1.0772,1.0813,1.0921,1.0955,1.1043,1.1213,1.1234,1.1254,1.1274,1.1315,1.1328,1.1382,1.1436,1.147,1.1599,1.1579,1.1586,1.1592,1.1606,1.1584,1.1572,1.1382,1.1322,1.128,1.1362,1.1423,1.1457,1.1484,1.1558,1.1584,1.1584,1.1584,1.1584,1.1584,1.159,1.1617,1.1631,1.1762,1.1796,1.1816,1.1962,1.228,1.2506,1.2796,1.2967,1.3416,1.3846,1.3982,1.4293,1.4822,1.5298,1.5697,1.6189,1.6768,1.7235,1.7712,1.8314,1.8999,1.9416,0.2296,0.2333,0.2662,0.3063,0.3502,0.3828,0.4267,0.4701,0.4995,0.5356,0.572,0.6155,0.6692,0.731,0.7777,0.8429,0.9064,0.9646,0.9999,1.024,1.0612,1.0725,1.0711,1.0718,1.0731,1.0717,1.0717,1.0717,1.0717,1.0717,1.0717,1.0717,1.0717,1.0717,1.0717,1.0717,1.0717,1.0717,1.0717,1.0717,1.0717,1.0717,1.0717,1.0717,1.0717,1.0717,1.0717,1.0717,1.0717,1.0717,1.0717,1.0724,1.0738,1.0738,1.0759,1.0833,1.0874,1.0941,1.1104,1.1166,1.124,1.1314,1.1355,1.1423,1.1491,1.1525,1.1511,1.1538,1.1565,1.1586,1.1577,1.1584,1.1584,1.1584,1.1584,1.1584,1.157,1.1516,1.1491,1.1484,1.1502,1.1529,1.1565,1.1572,1.1563,1.1584,1.1584,1.1584,1.1584,1.1597,1.1611,1.1651,1.1698,1.1864,1.2023,1.2043,1.2179,1.2597,1.2932,1.3331,1.3603,1.403,1.4375,1.4525,1.483,1.5323,1.5795,1.6242,1.6775,1.7416,1.7827,1.8256,1.8952,1.9618,2.0128,0.2513,0.2715,0.2938,0.3384,0.3862,0.4059,0.4488,0.4997,0.5156,0.5538,0.6083,0.6519,0.7027,0.7625,0.8174,0.8835,0.9502,0.9898,1.0194,1.0502,1.0812,1.09,1.0813,1.0806,1.0745,1.0744,1.0717,1.0724,1.0717,1.0717,1.0717,1.0717,1.0717,1.0717,1.0717,1.0717,1.0717,1.0717,1.0717,1.0717,1.0717,1.0717,1.0717,1.0717,1.0717,1.0717,1.0717,1.0717,1.0717,1.0717,1.0717,1.0732,1.0779,1.0813,1.084,1.0914,1.1023,1.1124,1.1253,1.1322,1.139,1.1484,1.1504,1.1538,1.1556,1.157,1.1584,1.1584,1.1584,1.1584,1.1584,1.1584,1.1584,1.1584,1.1584,1.1584,1.1584,1.1584,1.1584,1.159,1.1577,1.157,1.157,1.157,1.1577,1.1584,1.159,1.164,1.1653,1.1687,1.1698,1.1803,1.1877,1.2006,1.2173,1.2289,1.2467,1.2875,1.3328,1.3724,1.4229,1.463,1.4883,1.5048,1.5472,1.5996,1.6516,1.7089,1.7578,1.8096,1.8656,1.9221,1.9712,2.0245,2.0771,0.2777,0.3105,0.3257,0.3711,0.4271,0.4457,0.4808,0.5277,0.5479,0.5892,0.6545,0.6962,0.7385,0.7928,0.8605,0.9319,0.9877,1.0207,1.0496,1.0803,1.1048,1.1084,1.0988,1.0948,1.0907,1.0873,1.0792,1.0718,1.0724,1.0717,1.0717,1.0717,1.0717,1.0717,1.0717,1.0717,1.0717,1.0717,1.0717,1.0717,1.0717,1.0717,1.0717,1.0717,1.0717,1.0717,1.0717,1.0717,1.0717,1.0717,1.0731,1.0752,1.0853,1.0941,1.0975,1.1016,1.1145,1.128,1.1396,1.1436,1.1484,1.1586,1.1606,1.1584,1.1584,1.1584,1.1584,1.1584,1.1584,1.1584,1.1584,1.1584,1.1584,1.1584,1.1584,1.1584,1.1584,1.159,1.1653,1.1653,1.1653,1.1611,1.1611,1.1658,1.1671,1.1712,1.1726,1.1809,1.1823,1.185,1.1898,1.1965,1.2047,1.2207,1.234,1.2515,1.2779,1.3219,1.3677,1.413,1.4669,1.5209,1.5432,1.5765,1.6284,1.6829,1.7364,1.7904,1.8425,1.8971,1.961,2.0134,2.0551,2.0941,2.1395,0.3064,0.3145,0.3862,0.424,0.4432,0.5025,0.5359,0.5575,0.6103,0.6592,0.7019,0.7428,0.7937,0.8615,0.9338,0.9939,1.0365,1.0576,1.0908,1.1173,1.126,1.1227,1.1172,1.1172,1.1145,1.1043,1.0962,1.0813,1.0778,1.0751,1.0717,1.0717,1.0717,1.0717,1.0717,1.0717,1.0717,1.0717,1.0717,1.0717,1.0717,1.0717,1.0717,1.0717,1.0717,1.0717,1.0717,1.0717,1.0717,1.0724,1.0724,1.0765,1.0901,1.1077,1.1206,1.1294,1.1369,1.143,1.1552,1.1565,1.1572,1.1613,1.1626,1.1584,1.1667,1.1674,1.1667,1.1584,1.1633,1.166,1.1674,1.1611,1.159,1.1617,1.1687,1.1674,1.166,1.1742,1.1762,1.1782,1.1809,1.1735,1.1658,1.1719,1.178,1.182,1.1904,1.1952,1.2023,1.2006,1.2088,1.2162,1.2196,1.2305,1.2467,1.265,1.3024,1.3505,1.3967,1.4477,1.5104,1.5665,1.6246,1.664,1.7168,1.7684,1.8202,1.87,1.9269,1.9753,2.024,2.0759,2.132,2.1686,2.2055,0.3633,0.3867,0.4212,0.4637,0.5133,0.5446,0.5809,0.6288,0.6747,0.7129,0.7532,0.8081,0.8717,0.9354,0.9807,1.0203,1.0701,1.0866,1.1126,1.144,1.1436,1.1369,1.1307,1.128,1.1302,1.1213,1.1104,1.1091,1.0975,1.0806,1.0717,1.0731,1.0724,1.0717,1.0731,1.0724,1.0717,1.0717,1.0717,1.0717,1.0717,1.0717,1.0717,1.0717,1.0717,1.0717,1.0717,1.0717,1.0717,1.0738,1.0752,1.0887,1.1063,1.1247,1.1362,1.1497,1.1518,1.1552,1.1606,1.1577,1.1584,1.1611,1.1694,1.1782,1.1837,1.1857,1.1857,1.187,1.187,1.1864,1.1857,1.187,1.1907,1.1864,1.1823,1.1837,1.1837,1.187,1.1918,1.1938,1.1959,1.1911,1.1877,1.1932,1.1986,1.1986,1.202,1.2084,1.2132,1.2173,1.2244,1.2372,1.24,1.2427,1.2601,1.2751,1.3175,1.3658,1.4197,1.4758,1.5538,1.6143,1.6795,1.762,1.8315,1.8769,1.9055,1.947,1.9997,2.0417,2.0827,2.1311,2.1838,2.2413,2.2773,0.4162,0.4554,0.4554,0.4985,0.5688,0.5748,0.6228,0.6953,0.7329,0.7703,0.8197,0.8849,0.9489,0.9866,1.0095,1.0534,1.0972,1.108,1.1296,1.1512,1.157,1.1545,1.1477,1.1436,1.1389,1.1274,1.1281,1.1247,1.1172,1.0995,1.086,1.0826,1.0819,1.0792,1.0738,1.0744,1.0717,1.0717,1.0717,1.0717,1.0717,1.0717,1.0717,1.0717,1.0717,1.0717,1.0724,1.0772,1.0785,1.0779,1.0928,1.1063,1.1247,1.1349,1.1443,1.1558,1.1556,1.1563,1.1613,1.1584,1.1633,1.1701,1.1796,1.1932,1.2006,1.2098,1.2091,1.2064,1.2064,1.207,1.2098,1.2084,1.2057,1.205,1.2057,1.2084,1.2098,1.204,1.206,1.2101,1.2128,1.2162,1.2149,1.22,1.2207,1.2173,1.2179,1.2193,1.2241,1.2302,1.2338,1.2467,1.2467,1.2558,1.2811,1.3018,1.3419,1.3919,1.4501,1.5167,1.5962,1.6814,1.7582,1.8409,1.9224,1.9644,1.9854,2.0285,2.0687,2.1039,2.1443,2.1811,2.2332,2.2929,2.3355,0.4591,0.4944,0.4944,0.5257,0.5766,0.6072,0.6733,0.7462,0.7804,0.8406,0.9109,0.9702,0.9896,1.0131,1.0576,1.0864,1.1044,1.1404,1.1512,1.1584,1.1577,1.1563,1.1572,1.1529,1.1536,1.1531,1.1436,1.1382,1.1383,1.1268,1.1179,1.1152,1.0995,1.0914,1.0874,1.0813,1.0799,1.0785,1.0738,1.0751,1.0704,1.0698,1.0724,1.0704,1.0698,1.0724,1.0698,1.0826,1.0901,1.0907,1.107,1.1227,1.1356,1.1396,1.1504,1.1586,1.1584,1.159,1.1647,1.1624,1.1708,1.1816,1.1945,1.2104,1.2173,1.2132,1.2111,1.2152,1.2186,1.2159,1.2139,1.2104,1.2173,1.2149,1.2176,1.2213,1.2207,1.2179,1.2169,1.2281,1.2329,1.2311,1.2332,1.237,1.2349,1.2322,1.2349,1.237,1.2366,1.2413,1.2433,1.2494,1.2494,1.2663,1.3071,1.3416,1.3808,1.4469,1.5106,1.5804,1.6528,1.7376,1.8173,1.8943,1.9675,2.019,2.0667,2.0926,2.1238,2.1625,2.2032,2.2418,2.2867,2.3426,2.3679,0.4829,0.5416,0.5416,0.5688,0.6079,0.6509,0.7138,0.7916,0.8347,0.9059,0.9976,1.0079,1.034,1.0717,1.0847,1.1152,1.1332,1.1512,1.1584,1.1584,1.1584,1.1584,1.1584,1.1584,1.1577,1.157,1.1552,1.1531,1.1518,1.1436,1.145,1.1382,1.1199,1.1111,1.105,1.1009,1.0982,1.0955,1.0874,1.0826,1.0806,1.0732,1.0732,1.0819,1.0826,1.0914,1.0989,1.1043,1.1077,1.1118,1.1268,1.1328,1.1409,1.1477,1.1545,1.1613,1.1619,1.1631,1.1698,1.1726,1.182,1.2074,1.2176,1.2268,1.2291,1.2356,1.237,1.2377,1.2318,1.2291,1.2325,1.2332,1.2352,1.2338,1.2318,1.2343,1.2329,1.2271,1.2284,1.2359,1.2406,1.2433,1.2461,1.2481,1.2454,1.2433,1.2474,1.2501,1.2501,1.2508,1.2515,1.2535,1.2542,1.2876,1.3301,1.3757,1.4224,1.4979,1.5712,1.6418,1.7137,1.7894,1.8682,1.9441,2.0089,2.0596,2.1033,2.1397,2.1731,2.2007,2.2503,2.3039,2.3489,2.3908,2.4049,0.5025,0.5691,0.5808,0.6079,0.6509,0.69,0.7568,0.8354,0.8778,0.9529,1.0471,1.041,1.0687,1.1134,1.1305,1.1322,1.1525,1.1584,1.1584,1.1584,1.1584,1.1584,1.1584,1.1584,1.1584,1.1584,1.1584,1.1577,1.157,1.1577,1.1556,1.1525,1.1423,1.1314,1.1254,1.1213,1.12,1.1166,1.1084,1.0982,1.0955,1.0928,1.0894,1.0968,1.0975,1.1043,1.1166,1.122,1.1226,1.1315,1.1397,1.1443,1.1497,1.1509,1.157,1.1633,1.1667,1.1698,1.1773,1.1915,1.2054,1.2223,1.2325,1.24,1.2467,1.2501,1.2461,1.2474,1.2481,1.2501,1.2501,1.2467,1.2454,1.2427,1.2433,1.242,1.2427,1.242,1.244,1.2474,1.2494,1.2488,1.2488,1.2501,1.2494,1.2474,1.2481,1.2501,1.2501,1.2515,1.2542,1.2569,1.2603,1.3037,1.3515,1.398,1.4563,1.5593,1.632,1.6987,1.7693,1.8472,1.9204,1.9947,2.0525,2.1024,2.1495,2.1996,2.2148,2.2288,2.2964,2.3731,2.3925,2.4277,2.4326,0.5296,0.573,0.6157,0.6548,0.6982,0.733,0.7994,0.8778,0.9285,0.9882,1.0588,1.084,1.1089,1.1395,1.1617,1.1633,1.1624,1.159,1.1584,1.1584,1.1584,1.1584,1.1584,1.1584,1.1584,1.1584,1.1584,1.1584,1.1584,1.1584,1.1584,1.1584,1.1552,1.1491,1.1382,1.1274,1.1206,1.1206,1.1213,1.12,1.1186,1.1152,1.1145,1.1186,1.1165,1.122,1.126,1.1376,1.1382,1.1409,1.1504,1.1565,1.1586,1.1556,1.159,1.1611,1.1712,1.178,1.182,1.2121,1.2264,1.2318,1.2406,1.2474,1.2494,1.2501,1.2501,1.2501,1.2501,1.2501,1.2501,1.2501,1.2501,1.2501,1.2501,1.2501,1.2501,1.2501,1.2501,1.2501,1.2501,1.2501,1.2501,1.2501,1.2515,1.2508,1.2501,1.2508,1.2528,1.2562,1.2603,1.2756,1.2804,1.3328,1.384,1.4267,1.4939,1.6007,1.6837,1.7403,1.8222,1.9053,1.9774,2.0465,2.1026,2.1538,2.2096,2.2646,2.2908,2.3276,2.3816,2.4405,2.4547,2.4607,2.4656,0.5727,0.6157,0.6822,0.7369,0.7768,0.792,0.8427,0.9207,0.9903,1.0496,1.1029,1.1345,1.165,1.1883,1.1777,1.1743,1.1689,1.1597,1.1584,1.159,1.1561,1.1584,1.1584,1.1561,1.159,1.1584,1.1584,1.159,1.1584,1.1584,1.1584,1.1584,1.1577,1.1556,1.1545,1.1477,1.147,1.145,1.1382,1.1349,1.1336,1.1268,1.1254,1.1342,1.1349,1.1355,1.1423,1.1497,1.1518,1.1518,1.1606,1.1613,1.1584,1.1584,1.1667,1.1692,1.18,1.1938,1.2094,1.2318,1.242,1.2447,1.2461,1.2501,1.2501,1.2501,1.2501,1.2501,1.2501,1.2501,1.2501,1.2501,1.2501,1.2501,1.2501,1.2501,1.2501,1.2501,1.2501,1.2501,1.2501,1.2501,1.2501,1.2549,1.2569,1.2589,1.2596,1.263,1.2651,1.2678,1.2718,1.2979,1.3214,1.3691,1.4202,1.4596,1.5299,1.6367,1.7104,1.7638,1.85,1.952,2.0079,2.0629,2.1345,2.2066,2.2643,2.3237,2.3878,2.4401,2.4639,2.4788,2.4836,2.4897,2.4969,0.6001,0.6548,0.7213,0.7838,0.8393,0.8544,0.9012,0.9669,1.033,1.0874,1.1276,1.1478,1.1714,1.1896,1.172,1.1458,1.1432,1.1347,1.1302,1.1325,1.1273,1.1309,1.1375,1.1513,1.1569,1.1622,1.1658,1.1658,1.1665,1.1611,1.1584,1.1584,1.1584,1.1577,1.1599,1.1599,1.1592,1.1565,1.1504,1.147,1.1443,1.1409,1.1382,1.1443,1.1477,1.1511,1.155,1.1584,1.1584,1.1584,1.1584,1.1584,1.159,1.1644,1.1728,1.1773,1.1972,1.2108,1.2325,1.2413,1.2481,1.2488,1.2501,1.2501,1.2501,1.2501,1.2501,1.2501,1.2501,1.2501,1.2501,1.2501,1.2501,1.2501,1.2501,1.2501,1.2501,1.2501,1.2501,1.2501,1.2501,1.2501,1.2522,1.2583,1.263,1.2664,1.2698,1.2745,1.2793,1.2813,1.2861,1.313,1.3447,1.3922,1.4401,1.4891,1.5713,1.6763,1.7355,1.7855,1.8827,1.9805,2.0293,2.0854,2.1624,2.2415,2.317,2.3835,2.4507,2.4843,2.4957,2.5077,2.5126,2.5162,2.5186,0.6121,0.6943,0.7369,0.8072,0.8817,0.9207,0.963,1.0058,1.0408,1.0835,1.1301,1.1333,1.1503,1.1555,1.1213,1.1019,1.0946,1.0884,1.0897,1.0872,1.0853,1.0976,1.114,1.133,1.1477,1.166,1.18,1.1837,1.1823,1.1769,1.1701,1.1674,1.1714,1.1694,1.1644,1.1624,1.1611,1.1584,1.1556,1.1536,1.1552,1.1572,1.1552,1.1536,1.155,1.155,1.1584,1.1584,1.1584,1.1584,1.1584,1.159,1.1631,1.1755,1.1773,1.1932,1.2149,1.2325,1.244,1.2494,1.2494,1.2501,1.2501,1.2501,1.2501,1.2501,1.2501,1.2501,1.2501,1.2501,1.2501,1.2501,1.2501,1.2501,1.2501,1.2501,1.2501,1.2501,1.2501,1.2501,1.2501,1.2515,1.2569,1.2623,1.2693,1.284,1.2895,1.2963,1.299,1.2963,1.3064,1.3254,1.3608,1.4107,1.4616,1.5188,1.6032,1.7026,1.7568,1.8142,1.9153,2.0038,2.0589,2.1215,2.1938,2.2778,2.3851,2.4571,2.51,2.5306,2.5222,2.5246,2.527,2.5294,2.5331,0.6587,0.7369,0.8115,0.8739,0.9246,0.9636,1.0058,1.0447,1.0563,1.0874,1.1301,1.1301,1.1309,1.1355,1.1154,1.0972,1.0911,1.0845,1.0834,1.0766,1.0648,1.081,1.099,1.1176,1.1399,1.1584,1.177,1.1955,1.2023,1.1962,1.1955,1.1938,1.1891,1.185,1.1803,1.1769,1.1714,1.1624,1.1604,1.1584,1.1584,1.1584,1.1584,1.1584,1.1584,1.1584,1.1584,1.159,1.1633,1.1626,1.159,1.1617,1.1739,1.1786,1.1884,1.2155,1.2332,1.2461,1.2494,1.2501,1.2501,1.2501,1.2508,1.2501,1.2501,1.2515,1.2522,1.2528,1.2535,1.2542,1.2528,1.2522,1.2508,1.2501,1.2501,1.2501,1.2501,1.2501,1.2501,1.2508,1.2508,1.2576,1.2623,1.2718,1.2834,1.2983,1.3091,1.3152,1.3214,1.318,1.3274,1.3466,1.3877,1.4392,1.499,1.5555,1.6435,1.7232,1.7773,1.8478,1.9468,2.0303,2.0888,2.1685,2.2596,2.3683,2.4847,2.5281,2.5391,2.5391,2.5343,2.5367,2.5391,2.5391,2.5391,0.7036,0.7849,0.86,0.9189,0.9732,1.008,1.0369,1.0563,1.0602,1.0796,1.099,1.1029,1.1029,1.0973,1.072,1.057,1.0564,1.0474,1.0439,1.0427,1.0472,1.053,1.068,1.0938,1.1202,1.1472,1.1773,1.2005,1.2104,1.2118,1.2091,1.2077,1.2098,1.205,1.1982,1.1918,1.1884,1.1789,1.1708,1.1604,1.159,1.1597,1.1584,1.1633,1.1633,1.1633,1.164,1.166,1.1665,1.1721,1.1698,1.183,1.1945,1.1986,1.2101,1.2338,1.2427,1.2488,1.2501,1.2501,1.2501,1.2522,1.2556,1.2596,1.2596,1.261,1.261,1.2578,1.2564,1.2557,1.2569,1.2542,1.2522,1.2501,1.2501,1.2501,1.2501,1.2501,1.2508,1.2515,1.2562,1.2637,1.2718,1.278,1.2935,1.3078,1.32,1.3281,1.3302,1.3288,1.3494,1.3755,1.423,1.4739,1.5291,1.5867,1.6657,1.7404,1.806,1.8846,1.9814,2.0652,2.1333,2.2319,2.3404,2.4387,2.5227,2.5293,2.5391,2.5391,2.5391,2.5391,2.5391,2.5391,2.5391,0.7508,0.841,0.8896,0.958,1.0238,1.0487,1.0586,1.0614,1.0608,1.0602,1.0602,1.0602,1.0563,1.0519,1.0264,1.0153,1.0186,1.0158,1.0147,1.0008,1.0053,1.0124,1.0315,1.0506,1.1002,1.1466,1.1771,1.2,1.2233,1.2261,1.2207,1.2132,1.2166,1.2159,1.2094,1.2081,1.204,1.1996,1.1823,1.1728,1.1708,1.1674,1.1617,1.1681,1.1687,1.1687,1.1708,1.1769,1.1813,1.1898,1.1952,1.207,1.2115,1.221,1.2359,1.2427,1.2488,1.2494,1.2501,1.2501,1.2528,1.2569,1.2644,1.2705,1.2725,1.2745,1.2745,1.2745,1.2745,1.2745,1.2732,1.2644,1.2589,1.2556,1.2535,1.2522,1.2501,1.2515,1.2535,1.2556,1.263,1.2718,1.2874,1.2983,1.3071,1.32,1.3281,1.337,1.3424,1.3418,1.3673,1.3976,1.439,1.4878,1.5463,1.604,1.678,1.7527,1.8315,1.9067,1.9976,2.0869,2.1816,2.2874,2.3909,2.4566,2.522,2.5317,2.5391,2.5391,2.5391,2.5391,2.5391,2.5391,2.5391,0.8036,0.8896,0.9697,1.038,1.0764,1.0764,1.0785,1.0819,1.0676,1.0602,1.0525,1.0291,1.0175,1.0175,1.0097,1.0019,1.0019,1.0019,1.0019,1.0014,0.997,0.9987,1.0125,1.0379,1.0854,1.1329,1.1676,1.2049,1.2336,1.2386,1.2386,1.2386,1.2366,1.2318,1.2237,1.2237,1.2189,1.2152,1.207,1.1989,1.1989,1.1959,1.1959,1.1945,1.1938,1.1918,1.1938,1.2009,1.2006,1.2026,1.2077,1.2121,1.223,1.2372,1.2454,1.2494,1.2501,1.2501,1.2508,1.2522,1.2569,1.2644,1.2732,1.2807,1.2854,1.2888,1.2908,1.2908,1.2901,1.2908,1.2874,1.2766,1.2618,1.2617,1.2576,1.2542,1.2508,1.2535,1.2562,1.263,1.2659,1.2847,1.301,1.3125,1.3227,1.3295,1.3342,1.3438,1.3562,1.3645,1.3887,1.419,1.4473,1.4968,1.5587,1.6287,1.7067,1.7905,1.8743,1.9475,2.021,2.144,2.2662,2.3458,2.4372,2.4921,2.5275,2.536,2.5391,2.5391,2.5391,2.5391,2.5391,2.5391,2.5391,0.8544,0.9471,1.0352,1.0865,1.1074,1.1112,1.1029,1.0887,1.0699,1.0486,1.033,1.0097,1.0019,1.0019,1.0019,1.0019,1.0019,1.0019,1.0019,1.0019,1.0019,1.0014,1.0136,1.0253,1.0552,1.099,1.165,1.2069,1.2463,1.2494,1.2488,1.2501,1.2494,1.2461,1.2379,1.2372,1.2338,1.2309,1.2281,1.2275,1.2247,1.2193,1.2111,1.2098,1.2104,1.2104,1.2132,1.2145,1.22,1.2196,1.223,1.2291,1.2379,1.2454,1.2488,1.2501,1.2501,1.2501,1.2515,1.2569,1.263,1.2718,1.2895,1.3003,1.3051,1.3118,1.3105,1.3105,1.3098,1.3091,1.3057,1.2962,1.2786,1.2705,1.2657,1.2617,1.2589,1.2589,1.2591,1.2645,1.2807,1.3003,1.3146,1.3234,1.3315,1.3342,1.3397,1.3445,1.3569,1.3901,1.4149,1.448,1.4844,1.5373,1.6122,1.678,1.7445,1.8283,1.9139,2.0228,2.1149,2.2368,2.3543,2.4023,2.4566,2.5049,2.5317,2.5403,2.5391,2.5391,2.5391,2.5391,2.5391,2.5391,2.5391,0.9088,1.0158,1.0902,1.1318,1.1406,1.1468,1.136,1.1001,1.0722,1.0386,1.0058,1.0019,1.0019,1.0019,1.0019,1.0019,1.0019,1.0019,1.0019,1.0019,1.0019,1.0019,1.0019,1.0058,1.0408,1.0913,1.1572,1.2076,1.2501,1.2501,1.2501,1.2501,1.2501,1.2494,1.2501,1.2494,1.2461,1.244,1.244,1.2467,1.2386,1.2271,1.2227,1.2173,1.2152,1.2159,1.2207,1.2261,1.2311,1.2345,1.2393,1.2433,1.2461,1.2488,1.2494,1.2501,1.2501,1.2501,1.2528,1.263,1.2705,1.282,1.3051,1.322,1.3254,1.3288,1.3268,1.3254,1.3254,1.322,1.3186,1.3111,1.2929,1.2827,1.2773,1.2718,1.2698,1.2684,1.2693,1.274,1.2949,1.3193,1.3247,1.3342,1.337,1.339,1.3397,1.3445,1.3611,1.4059,1.4431,1.4927,1.5381,1.5991,1.6566,1.7108,1.7691,1.8525,1.9432,2.0795,2.2054,2.3032,2.3784,2.424,2.4707,2.5177,2.536,2.5391,2.5391,2.5391,2.5391,2.5391,2.5391,2.5391,2.5391,0.9876,1.1114,1.128,1.1736,1.2284,1.193,1.1646,1.1462,1.0974,1.0465,1.008,1.0019,1.0019,1.0019,1.0019,1.0019,1.0019,1.0019,1.0019,1.0019,1.0019,1.0019,1.0019,1.0019,1.0486,1.1029,1.1611,1.2076,1.2463,1.2501,1.2501,1.2501,1.2501,1.2501,1.2501,1.2501,1.2501,1.2501,1.2501,1.2501,1.2501,1.2433,1.244,1.242,1.2413,1.242,1.2433,1.2447,1.2454,1.2467,1.2474,1.2494,1.2501,1.2501,1.2501,1.2501,1.2501,1.2522,1.2569,1.2684,1.2779,1.2929,1.3159,1.3288,1.3288,1.3342,1.3356,1.3356,1.3329,1.3329,1.3288,1.3241,1.3085,1.3024,1.3009,1.2948,1.2901,1.2895,1.2935,1.3003,1.3105,1.3241,1.3336,1.3383,1.3383,1.3397,1.3397,1.3486,1.3859,1.4266,1.4721,1.5291,1.5826,1.6279,1.6689,1.7273,1.7905,1.8698,1.9767,2.117,2.2425,2.3401,2.4049,2.4438,2.4835,2.5305,2.5391,2.5391,2.5391,2.5391,2.5391,2.5391,2.5391,2.5391,2.5391]},{"header":{"parameterUnit":"m.s-1","parameterCategory":1,"la1":31.0,"la2":29.5877,"lo1":-88.7671,"lo2":-86.6584,"dy":0.0162,"dx":0.0185,"nx":115,"ny":88,"refTime":"2023-09-25T12:00:00:Z","depth":0,"parameterNumber":3,"parameterNumberName":"V-component_of_WINDS"},"data":[0.0,0.0,0.0,0.0,0.0,0.0,0.0,0.0,0.0,0.0,0.0,0.0,0.0,0.0,0.0,0.0,0.0,0.0,0.0,0.0,0.0,0.0,0.0,0.0,0.0,0.0,0.0,0.0,0.0,0.0,0.0,0.0,0.0,0.0,0.0,0.0,0.0,0.0,0.0,0.0,0.0,0.0,0.0,0.0,0.0,0.0,0.0,0.0,0.0,0.0,0.0,0.0,0.0,0.0,0.0,0.0,0.0,0.0,0.0,0.0,0.0,0.0,0.0,0.0,0.0,0.0,0.0,0.0,0.0,0.0,0.0,0.0,0.0,0.0,0.0,0.0,0.0,0.0,0.0,0.0,0.0,0.0,0.0,0.0,0.0,0.0,0.0,0.0,0.0,0.0,0.0,0.0,0.0,0.0,0.0,0.0,0.0,0.0,0.0,0.0,0.0,0.0,0.0,0.0,0.0,0.0,0.0,0.0,0.0,0.0,0.0,0.0,0.0,0.0,0.0,0.0,0.0,0.0,0.0,0.0,0.0,0.0,0.0,0.0,0.0,0.0,0.0,0.0,0.0,0.0,0.0,0.0,0.0,0.0,0.0,0.0,0.0,0.0,0.0,0.0,0.0,0.0,0.0,0.0,0.0,0.0,0.0,0.0,0.0,0.0,0.0,0.0,0.0,0.0,0.0,0.0,0.0,0.0,0.0,0.0,0.0,0.0,0.0,0.0,0.0,0.0,0.0,0.0,0.0,0.0,0.0,0.0,0.0,0.0,0.0,0.0,0.0,0.0,0.0,0.0,0.0,0.0,0.0,0.0,0.0,0.0,0.0,0.0,0.0,0.0,0.0,0.0,0.0,0.0,0.0,0.0,0.0,0.0,0.0,0.0,0.0,0.0,0.0,0.0,0.0,0.0,0.0,0.0,0.0,0.0,0.0,0.0,0.0,0.0,0.0,0.0,0.0,0.0,0.0,0.0,0.0,0.0,0.0,0.0,0.0,0.0,0.0,0.0,0.0,0.0,0.0,0.0,0.0,0.0,0.0,0.0,0.0,0.0,0.0,0.0,0.0,0.0,0.0,0.0,0.0,0.0,0.0,0.0,0.0,0.0,0.0,0.0,0.0,0.0,0.0,0.0,0.0,0.0,0.0,0.0,0.0,0.0,0.0,0.0,0.0,0.0,0.0,0.0,0.0,0.0,0.0,0.0,0.0,0.0,0.0,0.0,0.0,0.0,0.0,0.0,0.0,0.0,0.0,0.0,0.0,0.0,0.0,0.0,0.0,0.0,0.0,0.0,0.0,0.0,0.0,0.0,0.0,0.0,0.0,0.0,0.0,0.0,0.0,0.0,0.0,0.0,0.0,0.0,0.0,0.0,0.0,0.0,0.0,0.0,0.0,0.0,0.0,0.0,0.0,0.0,0.0,0.0,0.0,0.0,0.0,0.0,0.0,0.0,0.0,0.0,0.0,0.0,0.0,0.0,0.0,0.0,0.0,0.0,0.0,0.0,0.0,0.0,0.0,0.0,0.0,0.0,0.0,0.0,0.0,0.0,0.0,0.0,0.0,0.0,0.0,0.0,0.0,0.0,0.0,0.0,0.0,0.0,0.0,0.0,0.0,0.0,0.0,0.0,0.0,0.0,0.0,0.0,0.0,0.0,0.0,0.0,0.0,0.0,0.0,0.0,0.0,0.0,0.0,0.0,0.0,0.0,0.0,0.0,0.0,0.0,0.0,0.0,0.0,0.0,0.0,0.0,0.0,0.0,0.0,0.0,0.0,0.0,0.0,0.0,0.0,0.0,0.0,0.0,0.0,0.0,0.0,0.0,0.0,0.0,0.0,0.0,0.0,0.0,0.0,0.0,0.0,0.0,0.0,0.0,0.0,0.0,0.0,0.0,0.0,0.0,0.0,0.0,0.0,0.0,0.0,0.0,0.0,0.0,0.0,0.0,0.0,0.0,0.0,0.0,0.0,0.0,0.0,0.0,0.0,0.0,0.0,0.0,0.0,0.0,0.0,0.0,0.0,0.0,0.0,0.0,0.0,0.0,0.0,0.0,0.0,0.0,0.0,0.0,0.0,0.0,0.0,0.0,0.0,0.0,0.0,0.0,0.0,0.0,0.0,0.0,0.0,0.0,0.0,0.0,0.0,0.0,0.0,0.0,0.0,0.0,0.0,0.0,0.0,0.0,0.0,0.0,0.0,0.0,0.0,0.0,0.0,0.0,0.0,0.0,0.0,0.0,0.0,0.0,0.0,0.0,0.0,0.0,0.0,0.0,0.0,0.0,0.0,0.0,0.0,0.0,0.0,0.0,0.0,0.0,0.0,0.0,0.0,0.0,0.0,0.0,0.0,0.0,0.0,0.0,0.0,0.0,0.0,0.0,0.0,0.0,0.0,0.0,0.0,0.0,0.0,0.0,0.0,0.0,0.0,0.0,0.0,0.0,0.0,0.0,0.0,0.0,0.0,0.0,0.0,0.0,0.0,0.0,0.0,0.0,0.0,0.0,0.0,0.0,0.0,0.0,0.0,0.0,0.0,0.0,0.0,0.0,0.0,0.0,0.0,0.0,0.0,0.0,0.0,0.0,0.0,0.0,0.0,0.0,0.0,0.0,0.0,0.0,0.0,0.0,0.0,0.0,0.0,0.0,0.0,0.0,0.0,0.0,0.0,0.0,0.0,0.0,0.0,0.0,0.0,0.0,0.0,0.0,0.0,0.0,0.0,0.0,0.0,0.0,0.0,0.0,0.0,0.0,0.0,0.0,0.0,0.0,0.0,0.0,0.0,0.0,0.0,0.0,0.0,0.0,0.0,0.0,0.0,0.0,0.0,0.0,0.0,0.0,0.0,0.0,0.0,0.0,0.0,0.0,0.0,0.0,0.0,0.0,0.0,0.0,0.0,0.0,0.0,0.0,0.0,0.0,0.0,0.0,0.0,0.0,0.0,0.0,0.0,0.0,0.0,0.0,0.0,0.0,0.0,0.0,0.0,0.0,0.0,0.0,0.0,0.0,0.0,0.0,0.0,0.0,0.0,0.0,0.0,0.0,0.0,0.0,0.0,0.0,0.0,0.0,0.0,0.0,0.0,0.0,0.0,0.0,0.0,0.0,0.0,0.0,0.0,0.0,0.0,0.0,0.0,0.0,0.0,0.0,0.0,0.0,0.0,0.0,0.0,0.0,0.0,0.0,0.0,0.0,0.0,0.0,0.0,0.0,0.0,0.0,0.0,0.0,0.0,0.0,0.0,0.0,0.0,0.0,0.0,0.0,0.0,0.0,0.0,0.0,0.0,0.0,0.0,0.0,0.0,0.0,0.0,0.0,0.0,0.0,0.0,0.0,0.0,0.0,0.0,0.0,0.0,0.0,0.0,0.0,0.0,0.0,0.0,0.0,0.0,0.0,0.0,0.0,0.0,0.0,0.0,0.0,0.0,0.0,0.0,0.0,0.0,0.0,0.0,0.0,0.0,0.0,0.0,0.0,0.0,0.0,0.0,0.0,0.0,0.0,0.0,0.0,0.0,0.0,0.0,0.0,0.0,0.0,0.0,0.0,0.0,0.0,0.0,0.0,0.0,0.0,0.0,0.0,0.0,0.0,0.0,0.0,0.0,0.0,0.0,0.0,0.0,0.0,0.0,0.0,0.0,0.0,0.0,0.0,0.0,0.0,0.0,0.0,0.0,0.0,0.0,0.0,0.0,0.0,0.0,0.0,0.0,0.0,0.0,0.0,0.0,0.0,0.0,0.0,0.0,0.0,0.0,0.0,0.0,0.0,0.0,0.0,0.0,0.0,0.0,0.0,0.0,0.0,0.0,0.0,0.0,0.0,0.0,0.0,0.0,0.0,0.0,0.0,0.0,0.0,0.0,0.0,0.0,0.0,0.0,0.0,0.0,0.0,0.0,0.0,0.0,0.0,0.0,0.0,0.0,0.0,0.0,0.0,0.0,0.0,0.0,0.0,0.0,0.0,0.0,0.0,0.0,0.0,0.0,0.0,0.0,0.0,0.0,0.0,0.0,0.0,0.0,0.0,0.0,0.0,0.0,0.0,0.0,0.0,0.0,0.0,0.0,0.0,0.0,0.0,0.0,0.0,0.0,0.0,0.0,0.0,0.0,0.0,0.0,0.0,0.0,0.0,0.0,0.0,0.0,0.0,0.0,0.0,0.0,0.0,0.0,0.0,0.0,0.0,0.0,0.0,0.0,0.0,0.0,0.0,0.0,0.0,0.0,0.0,0.0,0.0,0.0,0.0,0.0,0.0,0.0,0.0,0.0,0.0,1.2507,0.0,0.0,0.0,0.0,0.0,0.0,0.0,0.0,0.0,0.0,0.0,0.0,0.0,0.0,0.0,0.0,0.0,0.0,0.0,0.0,0.0,0.0,0.0,0.0,0.0,0.0,0.0,0.0,0.0,0.0,0.0,0.0,0.0,0.0,0.0,0.0,0.0,0.0,0.0,0.0,0.0,0.0,0.0,0.0,0.0,0.0,0.0,0.0,0.0,0.0,0.0,0.0,0.0,0.0,0.0,0.0,0.0,0.0,0.0,0.0,0.0,0.0,0.0,0.0,0.0,0.0,0.0,0.0,0.0,0.0,0.0,0.0,0.0,0.0,0.0,0.0,0.0,0.0,0.0,0.0,0.0,0.0,0.0,0.0,0.0,0.0,0.0,0.0,0.0,0.0,0.0,0.0,0.0,0.0,0.0,0.0,0.0,0.0,0.0,0.0,0.0,0.0,0.0,0.0,0.0,0.0,0.0,0.0,0.0,0.0,1.4081,1.4044,1.358,1.3349,1.3346,0.0,0.0,0.0,0.0,0.0,0.0,0.0,0.0,0.0,0.0,0.0,0.0,0.0,0.0,0.0,0.0,0.0,0.0,0.0,0.0,0.0,0.0,0.0,0.0,0.0,0.0,0.0,0.0,0.0,0.0,0.0,0.0,0.0,0.0,0.0,0.0,0.0,0.0,0.0,0.0,0.0,0.0,0.0,0.0,0.0,0.0,0.0,0.0,0.0,0.0,0.0,0.0,0.0,0.0,0.0,0.0,0.0,0.0,0.0,0.0,0.0,0.0,0.0,0.0,0.0,0.0,0.0,0.0,0.0,0.0,0.0,0.0,0.0,0.0,0.0,0.0,0.0,0.0,0.0,0.0,0.0,0.0,0.0,0.0,0.0,0.0,0.0,0.0,0.0,0.0,0.0,0.0,0.0,0.0,0.0,0.0,0.0,0.0,0.0,0.0,0.0,0.0,0.0,0.0,0.0,0.0,0.0,0.0,0.0,0.0,0.0,0.0,1.4845,1.4305,1.3879,0.0,0.0,0.0,0.0,0.0,0.0,0.0,0.0,0.0,0.0,0.0,0.0,0.0,0.0,0.0,0.0,0.0,0.0,0.0,0.0,0.0,0.0,0.0,0.0,0.0,0.0,0.0,0.0,0.0,0.0,0.0,0.0,0.0,0.0,0.0,0.0,0.0,0.0,0.0,0.0,0.0,0.0,0.0,0.0,0.0,0.0,0.0,0.0,0.0,0.0,0.0,0.0,0.0,0.0,0.0,0.0,0.0,0.0,0.0,0.0,0.0,0.0,0.0,0.0,0.0,0.0,0.0,0.0,0.0,0.0,0.0,0.0,0.0,0.0,0.0,0.0,0.0,0.0,0.0,0.0,0.0,0.0,0.0,0.0,0.0,0.0,0.0,0.0,0.0,0.0,0.0,0.0,0.0,0.0,0.0,0.0,0.0,0.0,0.0,0.0,0.0,0.0,0.0,0.0,0.0,0.0,0.0,0.0,0.0,0.0,1.6388,1.6388,1.6274,0.0,1.3996,0.0,0.0,0.0,0.0,0.0,0.0,0.0,0.0,0.0,0.0,0.0,0.0,0.0,0.0,0.0,0.0,0.0,0.0,0.0,0.0,0.0,0.0,0.0,0.0,0.0,0.0,0.0,0.0,0.0,0.0,0.0,0.0,0.0,0.0,0.0,0.0,0.0,0.0,0.0,0.0,0.0,0.0,0.0,0.0,0.0,0.0,0.0,0.0,0.0,0.0,0.0,0.0,0.0,0.0,0.0,0.0,0.0,0.0,0.0,0.0,0.0,0.0,0.0,0.0,0.0,0.0,0.0,0.0,0.0,0.0,0.0,0.0,0.0,0.0,0.0,0.0,0.0,0.0,0.0,0.0,0.0,0.0,0.0,0.0,0.0,0.0,0.0,0.0,0.0,0.0,0.0,0.0,0.0,0.0,0.0,0.0,0.0,0.0,0.0,0.0,0.0,0.0,0.0,0.0,0.0,0.0,0.0,0.0,0.0,0.0,1.6736,1.7201,1.6736,1.6159,0.0,0.0,0.0,0.0,0.0,0.0,0.0,0.0,0.0,0.0,0.0,0.0,0.0,0.0,0.0,0.0,0.0,0.0,0.0,0.0,0.0,0.0,0.0,0.0,0.0,0.0,0.0,0.0,0.0,0.0,0.0,0.0,0.0,0.0,0.0,0.0,0.0,0.0,0.0,0.0,0.0,0.0,0.0,0.0,0.0,0.0,0.0,0.0,0.0,0.0,0.0,0.0,0.0,0.0,0.0,0.0,0.0,0.0,0.0,0.0,0.0,0.0,0.0,0.0,0.0,0.0,0.0,0.0,0.0,0.0,0.0,0.0,0.0,0.0,0.0,0.0,0.0,0.0,0.0,0.0,0.0,0.0,0.0,0.0,0.0,0.0,0.0,0.0,0.0,0.0,0.0,0.0,0.0,0.0,0.0,0.0,0.0,0.0,0.0,0.0,0.0,0.0,0.0,0.0,0.0,0.0,0.0,0.0,0.0,0.0,1.693,1.7468,1.797,1.7239,1.6737,1.6505,0.0,0.0,0.0,0.0,0.0,0.0,0.0,0.0,0.0,0.0,0.0,0.0,0.0,0.0,0.0,0.0,0.0,0.0,0.0,0.0,0.0,0.0,0.0,0.0,0.0,0.0,0.0,0.0,0.0,0.0,0.0,0.0,0.0,0.0,0.0,0.0,0.0,0.0,0.0,0.0,0.0,0.0,0.0,0.0,0.0,0.0,0.0,0.0,0.0,0.0,0.0,0.0,0.0,0.0,0.0,0.0,0.0,0.0,0.0,0.0,0.0,0.0,0.0,0.0,0.0,0.0,0.0,0.0,0.0,0.0,0.0,0.0,0.0,0.0,0.0,0.0,0.0,0.0,0.0,0.0,0.0,0.0,0.0,0.0,0.0,0.0,0.0,0.0,0.0,0.0,0.0,0.0,0.0,0.0,0.0,0.0,0.0,0.0,0.0,0.0,0.0,0.0,0.0,0.0,0.0,0.0,0.0,0.0,1.6542,1.8049,1.8897,1.8934,1.8087,1.7313,0.0,0.0,0.0,0.0,0.0,0.0,0.0,0.0,0.0,0.0,0.0,0.0,0.0,0.0,0.0,0.0,0.0,0.0,0.0,0.0,0.0,0.0,0.0,0.0,0.0,0.0,0.0,0.0,0.0,0.0,0.0,0.0,0.0,0.0,0.0,0.0,0.0,0.0,0.0,0.0,0.0,0.0,0.0,0.0,0.0,0.0,0.0,0.0,0.0,0.0,0.0,0.0,0.0,0.0,0.0,0.0,0.0,0.0,0.0,0.0,0.0,0.0,0.0,0.0,0.0,0.0,0.0,0.0,0.0,0.0,0.0,0.0,0.0,0.0,0.0,0.0,0.0,0.0,0.0,0.0,0.0,0.0,0.0,0.0,0.0,0.0,0.0,0.0,0.0,0.0,0.0,0.0,0.0,0.0,0.0,0.0,0.0,0.0,0.0,0.0,0.0,0.0,0.0,0.0,0.0,0.0,0.0,0.0,0.0,1.7313,1.8929,1.985,1.9812,1.843,1.7584,0.0,0.0,0.0,0.0,0.0,0.0,0.0,0.0,0.0,0.0,0.0,0.0,0.0,0.0,0.0,0.0,0.0,0.0,0.0,0.0,0.0,0.0,0.0,0.0,0.0,0.0,0.0,0.0,0.0,0.0,0.0,0.0,0.0,0.0,0.0,0.0,0.0,0.0,0.0,0.0,0.0,0.0,0.0,0.0,0.0,0.0,0.0,0.0,0.0,0.0,0.0,0.0,0.0,0.0,0.0,0.0,0.0,0.0,0.0,0.0,0.0,0.0,0.0,0.0,0.0,0.0,0.0,0.0,0.0,0.0,0.0,0.0,0.0,0.0,0.0,0.0,0.0,0.0,0.0,0.0,0.0,0.0,0.0,0.0,0.0,0.0,0.0,0.0,0.0,0.0,0.0,0.0,0.0,0.0,0.0,0.0,0.0,0.0,0.0,0.0,0.0,0.0,0.0,0.0,0.0,0.0,0.0,0.0,0.0,1.8505,0.0,2.0308,2.0267,1.889,1.797,0.0,0.0,0.0,0.0,0.0,0.0,0.0,0.0,0.0,0.0,0.0,0.0,0.0,0.0,0.0,0.0,0.0,0.0,0.0,0.0,0.0,0.0,0.0,0.0,0.0,0.0,0.0,0.0,0.0,0.0,0.0,0.0,0.0,0.0,0.0,0.0,0.0,0.0,0.0,0.0,0.0,0.0,0.0,0.0,0.0,0.0,0.0,0.0,0.0,0.0,0.0,0.0,0.0,0.0,0.0,0.0,0.0,0.0,0.0,0.0,0.0,0.0,0.0,0.0,0.0,0.0,0.0,0.0,0.0,0.0,0.0,0.0,0.0,0.0,0.0,0.0,0.0,0.0,0.0,0.0,0.0,0.0,0.0,0.0,0.0,0.0,0.0,0.0,0.0,0.0,0.0,0.0,0.0,0.0,0.0,0.0,0.0,0.0,0.0,0.0,0.0,0.0,0.0,0.0,0.0,0.0,0.0,0.0,1.8546,2.0192,2.031,2.0346,2.0308,1.9467,1.8588,0.0,0.0,0.0,0.0,0.0,0.0,0.0,0.0,0.0,0.0,0.0,0.0,0.0,0.0,0.0,0.0,0.0,0.0,0.0,0.0,0.0,0.0,0.0,0.0,0.0,0.0,0.0,0.0,0.0,0.0,0.0,0.0,0.0,0.0,0.0,0.0,0.0,0.0,0.0,0.0,0.0,0.0,0.0,0.0,0.0,0.0,0.0,0.0,0.0,0.0,0.0,0.0,0.0,0.0,0.0,0.0,0.0,0.0,0.0,0.0,0.0,0.0,0.0,0.0,0.0,0.0,0.0,0.0,0.0,0.0,0.0,0.0,0.0,0.0,0.0,0.0,0.0,0.0,0.0,0.0,0.0,0.0,0.0,0.0,0.0,0.0,0.0,0.0,0.0,0.0,0.0,0.0,0.0,0.0,0.0,0.0,0.0,0.0,0.0,0.0,0.0,0.0,0.0,0.0,0.0,0.0,0.0,0.0,0.0,2.1079,2.1154,2.1156,2.1117,2.0312,1.92,0.0,0.0,0.0,0.0,0.0,0.0,0.0,0.0,0.0,0.0,0.0,0.0,0.0,0.0,0.0,0.0,0.0,0.0,0.0,0.0,0.0,0.0,0.0,0.0,0.0,0.0,0.0,0.0,0.0,0.0,0.0,0.0,0.0,0.0,0.0,0.0,0.0,0.0,0.0,0.0,0.0,0.0,0.0,0.0,0.0,0.0,0.0,0.0,0.0,0.0,0.0,0.0,0.0,0.0,0.0,0.0,0.0,0.0,0.0,0.0,0.0,0.0,0.0,0.0,0.0,0.0,0.0,0.0,0.0,0.0,0.0,0.0,0.0,0.0,0.0,0.0,0.0,0.0,0.0,0.0,0.0,0.0,0.0,0.0,0.0,0.0,0.0,0.0,0.0,0.0,0.0,0.0,0.0,0.0,0.0,0.0,0.0,0.0,0.0,0.0,0.0,0.0,0.0,0.0,0.0,0.0,0.0,0.0,0.0,2.2808,2.231,2.2004,2.1966,2.1156,2.0077,1.8696,0.0,0.0,0.0,0.0,0.0,0.0,0.0,0.0,0.0,0.0,0.0,0.0,0.0,0.0,0.0,0.0,0.0,0.0,0.0,0.0,0.0,0.0,0.0,0.0,0.0,0.0,0.0,0.0,0.0,0.0,0.0,0.0,0.0,0.0,0.0,0.0,0.0,0.0,0.0,0.0,0.0,0.0,0.0,0.0,0.0,0.0,0.0,0.0,0.0,0.0,0.0,0.0,0.0,0.0,0.0,0.0,0.0,0.0,0.0,0.0,0.0,0.0,0.0,0.0,0.0,0.0,0.0,0.0,0.0,0.0,0.0,0.0,0.0,0.0,0.0,0.0,0.0,0.0,0.0,0.0,0.0,0.0,0.0,0.0,0.0,0.0,0.0,0.0,0.0,0.0,0.0,0.0,0.0,0.0,0.0,0.0,0.0,0.0,0.0,0.0,0.0,0.0,0.0,0.0,0.0,0.0,0.0,0.0,2.5269,2.3812,2.3007,2.2932,2.2158,2.1271,0.0,0.0,0.0,0.0,0.0,0.0,0.0,0.0,0.0,0.0,0.0,0.0,0.0,0.0,0.0,0.0,0.0,0.0,0.0,0.0,0.0,0.0,0.0,0.0,0.0,0.0,0.0,0.0,0.0,0.0,0.0,0.0,0.0,0.0,0.0,0.0,0.0,0.0,0.0,0.0,0.0,0.0,0.0,0.0,0.0,0.0,0.0,0.0,0.0,0.0,0.0,0.0,0.0,0.0,0.0,0.0,0.0,0.0,0.0,0.0,0.0,0.0,0.0,0.0,0.0,0.0,0.0,0.0,0.0,0.0,0.0,0.0,0.0,0.0,0.0,0.0,0.0,0.0,0.0,0.0,0.0,0.0,0.0,0.0,0.0,0.0,0.0,0.0,0.0,0.0,0.0,0.0,0.0,0.0,0.0,0.0,0.0,0.0,0.0,0.0,0.0,0.0,0.0,0.0,0.0,0.0,0.0,0.0,0.0,2.5192,2.5502,2.5274,2.4656,2.4423,2.3041,0.0,0.0,0.0,0.0,0.0,0.0,0.0,0.0,0.0,0.0,0.0,0.0,0.0,0.0,0.0,0.0,0.0,0.0,0.0,0.0,0.0,0.0,0.0,0.0,0.0,0.0,0.0,0.0,0.0,0.0,0.0,0.0,0.0,0.0,0.0,0.0,0.0,0.0,0.0,0.0,0.0,0.0,0.0,0.0,0.0,0.0,0.0,0.0,0.0,0.0,0.0,0.0,0.0,0.0,0.0,0.0,0.0,0.0,0.0,0.0,0.0,0.0,0.0,0.0,0.0,0.0,0.0,0.0,0.0,0.0,0.0,0.0,0.0,0.0,0.0,0.0,0.0,0.0,0.0,0.0,0.0,0.0,0.0,0.0,0.0,0.0,0.0,0.0,0.0,0.0,0.0,0.0,0.0,0.0,0.0,0.0,0.0,0.0,0.0,0.0,0.0,0.0,0.0,0.0,0.0,0.0,0.0,0.0,2.4695,2.639,2.7236,2.739,2.689,2.5846,2.4231,0.0,0.0,0.0,0.0,0.0,0.0,0.0,0.0,0.0,0.0,0.0,0.0,0.0,0.0,0.0,0.0,0.0,0.0,0.0,0.0,0.0,0.0,0.0,0.0,0.0,0.0,0.0,0.0,0.0,0.0,0.0,0.0,0.0,0.0,0.0,0.0,0.0,0.0,0.0,0.0,0.0,0.0,0.0,0.0,0.0,0.0,0.0,0.0,0.0,0.0,0.0,0.0,0.0,0.0,0.0,0.0,0.0,0.0,0.0,0.0,0.0,0.0,0.0,0.0,0.0,0.0,0.0,0.0,0.0,0.0,0.0,0.0,0.0,0.0,0.0,0.0,0.0,0.0,0.0,0.0,0.0,0.0,0.0,0.0,0.0,0.0,0.0,0.0,0.0,0.0,0.0,0.0,0.0,0.0,0.0,0.0,0.0,0.0,0.0,0.0,0.0,0.0,0.0,0.0,0.0,0.0,0.0,0.0,2.6154,2.7854,2.8701,2.9124,2.9162,2.6849,2.5079,0.0,0.0,0.0,0.0,0.0,0.0,0.0,0.0,0.0,0.0,0.0,0.0,0.0,0.0,0.0,0.0,0.0,0.0,0.0,0.0,0.0,0.0,0.0,0.0,0.0,0.0,0.0,0.0,0.0,0.0,0.0,0.0,0.0,0.0,0.0,0.0,0.0,0.0,0.0,0.0,0.0,0.0,0.0,0.0,0.0,0.0,0.0,0.0,0.0,0.0,0.0,0.0,0.0,0.0,0.0,0.0,0.0,0.0,0.0,0.0,0.0,0.0,0.0,0.0,0.0,0.0,0.0,0.0,0.0,0.0,0.0,0.0,0.0,0.0,0.0,0.0,0.0,0.0,0.0,0.0,0.0,0.0,0.0,0.0,0.0,0.0,0.0,0.0,0.0,0.0,0.0,0.0,0.0,0.0,0.0,0.0,0.0,0.0,0.0,0.0,0.0,0.0,0.0,0.0,0.0,0.0,0.0,0.0,2.6156,2.7854,2.8665,2.9429,3.008,2.831,2.6308,0.0,0.0,0.0,0.0,0.0,0.0,0.0,0.0,0.0,0.0,0.0,0.0,0.0,0.0,0.0,0.0,0.0,0.0,0.0,0.0,0.0,0.0,0.0,0.0,0.0,0.0,0.0,0.0,0.0,0.0,0.0,0.0,0.0,0.0,0.0,0.0,0.0,0.0,0.0,0.0,0.0,0.0,0.0,0.0,0.0,0.0,0.0,0.0,2.1776,0.0,0.0,0.0,0.0,0.0,0.0,0.0,0.0,0.0,0.0,0.0,0.0,0.0,0.0,0.0,0.0,0.0,0.0,0.0,0.0,0.0,0.0,0.0,0.0,0.0,0.0,0.0,0.0,0.0,0.0,0.0,0.0,0.0,0.0,0.0,0.0,0.0,0.0,0.0,0.0,0.0,0.0,0.0,0.0,0.0,0.0,0.0,0.0,0.0,0.0,0.0,0.0,0.0,0.0,0.0,0.0,0.0,0.0,0.0,2.7159,2.8431,2.9278,2.9926,3.0346,2.8764,2.6836,0.0,0.0,0.0,0.0,0.0,0.0,0.0,0.0,0.0,0.0,0.0,0.0,0.0,0.0,0.0,0.0,0.0,0.0,0.0,0.0,0.0,0.0,0.0,0.0,0.0,0.0,0.0,0.0,0.0,0.0,0.0,0.0,0.0,0.0,0.0,0.0,0.0,0.0,0.0,0.0,0.0,0.0,0.0,0.0,0.0,0.0,0.0,0.0,0.0,0.0,0.0,0.0,0.0,0.0,0.0,0.0,0.0,0.0,0.0,0.0,0.0,0.0,0.0,0.0,0.0,0.0,0.0,0.0,0.0,0.0,0.0,0.0,0.0,0.0,0.0,0.0,0.0,0.0,0.0,0.0,0.0,0.0,0.0,0.0,0.0,0.0,0.0,0.0,0.0,0.0,0.0,0.0,0.0,0.0,0.0,0.0,0.0,0.0,0.0,0.0,0.0,0.0,0.0,0.0,0.0,0.0,0.0,2.6626,2.828,2.9088,2.9926,3.0382,3.0337,2.8708,2.7006,2.5314,0.0,0.0,0.0,0.0,0.0,0.0,0.0,0.0,0.0,0.0,0.0,0.0,0.0,0.0,0.0,0.0,0.0,0.0,0.0,0.0,0.0,0.0,0.0,0.0,0.0,0.0,0.0,0.0,0.0,0.0,0.0,0.0,0.0,0.0,0.0,0.0,0.0,0.0,2.0841,2.2419,0.0,0.0,0.0,0.0,0.0,0.0,0.0,0.0,2.4557,0.0,0.0,0.0,0.0,0.0,0.0,0.0,0.0,0.0,0.0,0.0,0.0,0.0,0.0,0.0,0.0,0.0,0.0,0.0,0.0,0.0,0.0,0.0,0.0,0.0,0.0,0.0,0.0,0.0,0.0,0.0,0.0,0.0,0.0,0.0,0.0,0.0,0.0,0.0,0.0,0.0,0.0,0.0,0.0,0.0,0.0,0.0,0.0,0.0,0.0,0.0,0.0,0.0,0.0,0.0,0.0,2.4088,2.659,2.8277,2.9088,2.9964,3.0373,3.0275,2.8664,2.6987,2.5253,0.0,0.0,0.0,0.0,0.0,0.0,0.0,0.0,0.0,0.0,0.0,0.0,0.0,0.0,0.0,0.0,0.0,0.0,0.0,0.0,0.0,0.0,0.0,0.0,0.0,0.0,0.0,0.0,0.0,0.0,0.0,0.0,0.0,0.0,0.0,0.0,0.0,0.0,0.0,2.4415,2.5333,0.0,0.0,0.0,0.0,0.0,0.0,0.0,0.0,2.5883,0.0,0.0,0.0,0.0,0.0,0.0,0.0,0.0,0.0,0.0,0.0,0.0,0.0,0.0,0.0,0.0,0.0,0.0,0.0,0.0,0.0,0.0,0.0,0.0,0.0,0.0,0.0,0.0,0.0,0.0,0.0,0.0,0.0,0.0,0.0,0.0,0.0,0.0,0.0,0.0,0.0,0.0,0.0,0.0,0.0,0.0,0.0,0.0,0.0,0.0,0.0,0.0,0.0,0.0,0.0,2.4697,2.6815,2.8508,2.9737,3.0195,3.0379,3.0328,2.8688,2.7201,0.0,0.0,0.0,0.0,0.0,0.0,0.0,0.0,0.0,0.0,0.0,0.0,0.0,0.0,0.0,0.0,0.0,0.0,0.0,0.0,0.0,0.0,0.0,0.0,0.0,0.0,0.0,0.0,0.0,0.0,0.0,0.0,0.0,0.0,0.0,0.0,0.0,0.0,0.0,0.0,2.5254,2.6465,2.7666,0.0,0.0,0.0,0.0,0.0,0.0,2.7236,2.6948,0.0,0.0,0.0,0.0,0.0,0.0,0.0,0.0,0.0,0.0,0.0,0.0,0.0,0.0,0.0,0.0,0.0,0.0,0.0,0.0,0.0,0.0,0.0,0.0,0.0,0.0,0.0,0.0,0.0,0.0,0.0,0.0,0.0,0.0,0.0,0.0,0.0,0.0,0.0,0.0,0.0,0.0,0.0,0.0,0.0,0.0,0.0,0.0,0.0,0.0,0.0,0.0,0.0,0.0,0.0,2.5267,2.7005,2.8816,3.0577,3.05,3.0497,3.0606,2.8789,2.7378,0.0,0.0,0.0,0.0,0.0,0.0,0.0,0.0,0.0,0.0,0.0,0.0,0.0,0.0,0.0,0.0,0.0,0.0,0.0,0.0,0.0,0.0,0.0,0.0,0.0,0.0,0.0,0.0,0.0,0.0,0.0,0.0,0.0,0.0,0.0,0.0,0.0,0.0,0.0,0.0,0.0,2.7635,2.9018,2.9396,0.0,0.0,0.0,0.0,2.871,2.8527,0.0,0.0,0.0,0.0,0.0,0.0,0.0,0.0,0.0,0.0,0.0,0.0,0.0,0.0,0.0,0.0,0.0,0.0,0.0,0.0,0.0,0.0,0.0,0.0,0.0,0.0,0.0,0.0,0.0,0.0,0.0,0.0,0.0,0.0,0.0,0.0,0.0,0.0,0.0,0.0,0.0,0.0,0.0,0.0,0.0,0.0,0.0,0.0,0.0,0.0,0.0,0.0,0.0,0.0,0.0,0.0,2.5269,2.7008,2.9083,3.1352,3.0808,3.0719,3.1392,2.9087,2.7402,0.0,0.0,0.0,0.0,0.0,0.0,0.0,0.0,0.0,0.0,0.0,0.0,0.0,0.0,0.0,0.0,0.0,0.0,0.0,0.0,0.0,0.0,0.0,0.0,0.0,0.0,0.0,0.0,0.0,0.0,0.0,0.0,0.0,0.0,0.0,0.0,0.0,0.0,0.0,0.0,0.0,2.906,2.9947,3.0656,3.117,0.0,0.0,3.1207,3.0987,3.0993,0.0,0.0,0.0,0.0,0.0,0.0,0.0,0.0,0.0,0.0,0.0,0.0,0.0,0.0,0.0,0.0,0.0,0.0,0.0,0.0,0.0,0.0,0.0,0.0,0.0,0.0,0.0,0.0,0.0,0.0,0.0,0.0,0.0,0.0,0.0,0.0,0.0,0.0,0.0,0.0,0.0,0.0,0.0,0.0,0.0,0.0,0.0,0.0,0.0,0.0,0.0,0.0,0.0,0.0,0.0,2.3505,2.5962,2.77,2.9585,3.1618,3.1772,3.1769,3.1642,2.9648,2.7891,0.0,0.0,0.0,0.0,0.0,0.0,0.0,0.0,0.0,0.0,0.0,0.0,0.0,0.0,0.0,0.0,0.0,0.0,0.0,0.0,0.0,0.0,0.0,0.0,0.0,0.0,0.0,0.0,0.0,0.0,0.0,0.0,0.0,0.0,0.0,0.0,0.0,0.0,0.0,0.0,0.0,0.0,3.2008,3.2565,0.0,0.0,0.0,3.4034,3.3513,0.0,0.0,0.0,0.0,0.0,0.0,0.0,0.0,0.0,0.0,0.0,0.0,0.0,0.0,0.0,0.0,0.0,0.0,0.0,0.0,0.0,0.0,0.0,0.0,0.0,0.0,0.0,0.0,0.0,0.0,0.0,0.0,0.0,0.0,0.0,0.0,0.0,0.0,0.0,0.0,0.0,0.0,0.0,0.0,0.0,0.0,0.0,0.0,0.0,0.0,0.0,0.0,0.0,0.0,0.0,0.0,0.0,2.6579,2.847,3.0275,3.1965,3.258,3.2622,3.2003,3.0319,0.0,0.0,0.0,0.0,0.0,0.0,0.0,0.0,0.0,0.0,0.0,0.0,0.0,0.0,0.0,0.0,0.0,0.0,0.0,0.0,0.0,0.0,0.0,0.0,0.0,0.0,0.0,1.6213,0.0,0.0,0.0,0.0,0.0,0.0,0.0,0.0,0.0,0.0,0.0,0.0,0.0,0.0,3.1825,3.3837,3.4431,3.5165,0.0,0.0,3.6376,3.5745,3.4938,3.4137,0.0,0.0,0.0,0.0,0.0,0.0,0.0,0.0,0.0,0.0,0.0,0.0,0.0,0.0,0.0,0.0,0.0,0.0,0.0,0.0,0.0,0.0,0.0,0.0,0.0,0.0,0.0,0.0,0.0,0.0,0.0,0.0,0.0,0.0,0.0,0.0,0.0,0.0,0.0,0.0,0.0,0.0,0.0,0.0,0.0,0.0,0.0,0.0,0.0,0.0,0.0,0.0,0.0,0.0,2.4894,2.6618,2.9038,3.1118,3.2737,3.2852,3.2852,3.2814,3.1212,2.9504,0.0,0.0,0.0,0.0,0.0,0.0,0.0,0.0,0.0,0.0,0.0,0.0,0.0,0.0,0.0,0.0,0.0,0.0,0.0,0.0,0.0,0.0,0.0,0.0,0.0,0.0,0.0,0.0,0.0,0.0,0.0,0.0,0.0,0.0,0.0,0.0,0.0,0.0,0.0,0.0,0.0,3.391,3.4784,3.6266,3.7309,0.0,3.7419,3.7382,3.7345,3.6677,3.5826,3.5004,0.0,0.0,0.0,0.0,0.0,0.0,0.0,0.0,0.0,0.0,0.0,0.0,0.0,0.0,0.0,0.0,0.0,0.0,0.0,0.0,0.0,0.0,0.0,0.0,0.0,0.0,0.0,0.0,0.0,0.0,0.0,0.0,0.0,0.0,0.0,0.0,0.0,0.0,0.0,0.0,0.0,0.0,0.0,0.0,0.0,0.0,0.0,0.0,0.0,0.0,0.0,0.0,0.0,2.5928,2.8124,3.016,3.2003,3.3625,3.4234,3.4273,3.3702,3.2074,3.0636,0.0,0.0,0.0,0.0,0.0,0.0,0.0,0.0,0.0,0.0,0.0,0.0,0.0,0.0,0.0,0.0,0.0,0.0,0.0,0.0,0.0,0.0,0.0,0.0,0.0,0.0,0.0,0.0,2.1947,2.3016,2.3985,0.0,0.0,0.0,0.0,0.0,0.0,0.0,0.0,0.0,0.0,3.5789,3.7103,3.8248,0.0,0.0,3.9717,3.9717,3.9717,3.9064,3.8395,3.8065,3.7375,0.0,0.0,0.0,0.0,0.0,0.0,0.0,0.0,0.0,0.0,0.0,0.0,0.0,0.0,0.0,0.0,0.0,0.0,0.0,0.0,0.0,0.0,0.0,0.0,0.0,0.0,0.0,0.0,0.0,0.0,0.0,0.0,0.0,0.0,0.0,0.0,0.0,0.0,0.0,0.0,0.0,0.0,0.0,0.0,0.0,0.0,0.0,0.0,0.0,0.0,0.0,0.0,2.7195,2.9467,3.1429,3.3122,3.4545,3.5196,3.5196,3.4584,3.3202,3.1805,0.0,0.0,0.0,0.0,0.0,0.0,0.0,0.0,0.0,0.0,0.0,0.0,0.0,0.0,0.0,0.0,0.0,0.0,0.0,0.0,0.0,0.0,0.0,0.0,0.0,0.0,0.0,0.0,2.3612,2.4667,2.5815,0.0,0.0,0.0,0.0,0.0,0.0,0.0,0.0,0.0,0.0,3.7772,3.9574,4.0575,4.1348,4.2149,4.2259,4.2259,4.2259,4.1605,4.1053,4.1061,0.0,0.0,0.0,0.0,0.0,0.0,0.0,0.0,0.0,0.0,0.0,0.0,0.0,0.0,0.0,0.0,0.0,0.0,0.0,0.0,0.0,0.0,0.0,0.0,0.0,0.0,0.0,2.0017,0.0,0.0,2.0014,0.0,0.0,0.0,0.0,0.0,0.0,0.0,0.0,0.0,0.0,0.0,0.0,0.0,0.0,0.0,0.0,0.0,0.0,0.0,0.0,0.0,0.0,2.8698,3.0385,3.2856,3.4584,3.5462,3.55,3.5538,3.5462,3.4622,3.2968,3.0494,0.0,0.0,0.0,0.0,0.0,0.0,0.0,0.0,0.0,0.0,0.0,0.0,0.0,0.0,0.0,0.0,0.0,0.0,0.0,0.0,0.0,0.0,0.0,0.0,0.0,0.0,2.4379,2.5829,2.6823,0.0,0.0,0.0,0.0,0.0,0.0,0.0,0.0,0.0,3.7332,3.8345,3.9741,4.2158,4.32,4.3968,4.4744,4.49,4.49,4.49,4.4272,4.371,0.0,0.0,0.0,0.0,0.0,0.0,0.0,0.0,0.0,0.0,0.0,0.0,0.0,0.0,0.0,0.0,0.0,0.0,0.0,0.0,0.0,0.0,0.0,0.0,0.0,0.0,0.0,2.4836,2.4298,0.0,0.0,0.0,0.0,0.0,0.0,0.0,0.0,0.0,0.0,0.0,3.0714,3.0947,0.0,0.0,0.0,0.0,0.0,0.0,0.0,0.0,0.0,0.0,0.0,0.0,3.0388,3.208,3.4042,3.5738,3.7119,3.7161,3.7161,3.7157,3.5773,3.3609,3.0518,0.0,0.0,0.0,0.0,0.0,0.0,0.0,0.0,0.0,0.0,0.0,0.0,0.0,0.0,0.0,0.0,0.0,0.0,0.0,0.0,0.0,0.0,0.0,0.0,0.0,2.5837,0.0,0.0,0.0,0.0,0.0,0.0,0.0,0.0,0.0,0.0,0.0,3.763,4.0053,4.1482,4.2781,4.4199,4.509,4.5683,0.0,0.0,0.0,0.0,0.0,0.0,0.0,0.0,0.0,0.0,0.0,0.0,0.0,0.0,4.3833,4.0385,3.9534,3.9342,3.9342,0.0,0.0,0.0,0.0,0.0,0.0,0.0,0.0,0.0,0.0,0.0,0.0,0.0,0.0,2.9112,2.858,2.8275,0.0,0.0,0.0,0.0,0.0,0.0,0.0,0.0,3.2502,3.3594,3.4162,3.4435,3.4449,3.4201,3.3631,3.1789,0.0,0.0,0.0,0.0,0.0,0.0,0.0,0.0,3.2426,3.3811,3.55,3.7042,3.8354,3.8161,3.8123,3.8396,3.6538,3.4455,3.2247,3.079,2.909,0.0,0.0,0.0,0.0,0.0,0.0,0.0,0.0,0.0,0.0,0.0,0.0,0.0,0.0,0.0,0.0,0.0,0.0,0.0,0.0,0.0,0.0,0.0,2.8168,0.0,0.0,0.0,0.0,0.0,0.0,0.0,0.0,0.0,3.7596,3.8621,4.0353,4.2822,4.4236,4.5469,4.6581,0.0,0.0,0.0,0.0,0.0,0.0,0.0,4.9947,4.9849,4.9858,4.9961,5.0189,5.0359,5.0511,5.0773,0.0,0.0,4.4931,4.3889,4.3703,4.3703,4.3519,4.3416,4.3766,4.4251,4.4774,0.0,0.0,0.0,0.0,3.2886,0.0,0.0,0.0,3.2967,3.2967,0.0,3.2053,0.0,0.0,0.0,0.0,3.1677,3.2555,0.0,0.0,3.599,3.678,3.6929,3.769,3.7624,3.6885,3.6846,3.6385,3.5385,3.2269,0.0,0.0,0.0,0.0,0.0,0.0,3.4699,3.5615,3.7196,3.8469,3.9281,3.8546,3.8469,3.9204,3.693,3.5615,3.5423,3.3119,3.1417,3.0467,2.8044,0.0,0.0,0.0,0.0,0.0,0.0,0.0,0.0,0.0,0.0,0.0,0.0,0.0,0.0,0.0,0.0,0.0,0.0,0.0,0.0,3.0076,0.0,0.0,0.0,0.0,0.0,0.0,0.0,0.0,0.0,4.2188,4.1262,4.1782,4.3167,4.5597,0.0,0.0,0.0,0.0,5.1039,5.1783,5.1971,5.2,5.2038,5.2002,5.1982,5.2003,0.0,0.0,5.2893,5.3043,5.3276,5.4043,5.4136,5.3183,5.0015,4.8691,4.813,4.8093,4.7457,4.7249,4.7892,4.7975,4.8274,4.0315,0.0,0.0,0.0,0.0,3.7856,3.8124,3.8124,3.8124,3.7784,3.7135,3.6332,0.0,0.0,0.0,0.0,0.0,0.0,3.6919,3.7832,3.9441,4.0264,4.0377,4.1223,4.115,4.035,4.0346,3.9619,3.8203,3.7242,3.551,3.316,0.0,0.0,0.0,0.0,3.643,3.7315,3.8354,3.9319,4.0169,3.9896,3.9627,3.9323,3.8588,3.7623,3.6385,3.5119,3.3728,3.2225,3.0361,0.0,0.0,0.0,0.0,0.0,0.0,0.0,0.0,0.0,0.0,0.0,0.0,0.0,0.0,0.0,0.0,0.0,0.0,0.0,3.1967,3.2627,3.3748,0.0,0.0,0.0,0.0,0.0,0.0,0.0,0.0,0.0,4.666,4.6227,4.6587,0.0,0.0,5.0357,5.1402,5.1743,5.2196,5.3043,5.3679,0.0,5.4766,5.5338,5.5667,5.5534,5.5477,5.5492,5.5708,5.5807,5.5888,5.6142,5.6223,5.5889,5.4978,5.2982,5.1619,5.1503,5.0921,5.0475,5.0767,5.0836,5.0964,4.4781,4.2483,4.2374,4.1987,4.1533,4.2068,4.2259,4.2259,4.191,4.15,4.0955,3.9839,3.9023,3.8512,3.7747,0.0,0.0,0.0,3.9914,4.0788,4.1779,4.2291,4.235,4.285,4.2812,4.2312,4.2312,4.1777,4.0781,4.0819,3.9588,3.7276,0.0,3.6234,3.5741,3.7357,3.8469,3.9008,4.02,4.105,4.1516,4.1512,4.1127,4.0319,3.9973,3.9127,3.7777,3.658,3.5346,3.3965,3.2298,3.0408,0.0,0.0,0.0,0.0,0.0,0.0,0.0,0.0,0.0,0.0,0.0,2.4528,2.5394,0.0,0.0,0.0,3.1675,3.3608,3.511,3.5851,0.0,0.0,0.0,0.0,0.0,0.0,0.0,4.4839,4.7519,4.9696,5.0533,5.0647,5.0723,5.1027,5.2028,5.2959,5.3439,0.0,5.4651,5.5159,5.5683,5.6117,5.6558,5.7058,5.7337,5.7162,5.71,5.72,5.7493,5.7548,5.767,5.7933,5.8106,5.8119,5.8119,5.6476,5.5003,5.4685,5.4226,5.3958,5.4019,5.3997,5.4051,4.8214,4.8061,4.6544,4.5741,4.5512,4.5512,4.5512,4.5441,4.4671,4.4353,4.4293,4.2737,4.1965,4.1826,4.1131,0.0,4.1839,4.1949,4.2389,4.3201,4.3278,4.3278,4.3316,4.3316,4.3278,4.3316,4.3316,4.3239,4.3162,4.3162,4.2739,4.185,3.9585,3.8392,3.8392,3.9896,4.0708,4.0708,4.2277,4.3085,4.3085,4.3085,4.2696,4.1808,4.1008,4.0246,3.9396,3.7815,3.6542,3.5696,3.4042,3.2349,3.0654,0.0,0.0,0.0,0.0,0.0,0.0,0.0,0.0,0.0,0.0,0.0,0.0,0.0,0.0,3.2962,3.5976,0.0,3.799,3.9447,0.0,0.0,0.0,4.3685,4.4614,4.6844,4.8345,4.8388,0.0,0.0,5.3218,5.4703,5.5078,5.3445,5.4505,5.5446,5.5452,5.665,5.7661,5.7637,5.7699,5.7775,5.7882,5.79,5.7818,5.7772,5.7558,5.7881,5.847,5.8602,5.8845,5.9412,5.969,5.9702,5.9694,5.9003,5.8421,5.7464,5.7129,5.7054,5.6919,5.6889,5.686,5.162,5.1588,5.1162,4.9557,4.7221,4.7221,4.7253,4.7263,4.7066,4.7021,4.7001,4.6,4.4856,4.3675,4.3492,4.3188,4.2799,4.3427,4.3816,4.4047,4.4705,4.5017,4.5013,4.5017,4.5013,4.5013,4.5013,4.4667,4.4051,4.4013,4.3585,4.2777,4.22,4.1546,4.0966,4.197,4.247,4.2474,4.2893,4.3085,4.3085,4.3085,4.2696,4.185,4.1581,4.1085,4.0246,3.9242,3.8277,3.743,3.5811,3.408,3.2391,3.1346,0.0,0.0,0.0,0.0,0.0,0.0,0.0,0.0,0.0,3.0727,3.1533,0.0,3.4852,0.0,3.8538,4.0248,4.1512,4.2024,0.0,0.0,4.6666,4.7381,4.8927,5.0195,5.1203,5.1898,5.3595,5.5094,5.5945,5.6972,5.7461,5.7048,5.7222,5.7391,5.7462,5.7723,5.8202,5.8764,5.891,5.9095,5.9602,5.9643,5.9496,5.9482,5.9422,5.9482,5.9672,5.9733,5.9793,5.9937,5.9991,6.0007,5.9999,5.9832,5.968,5.9337,5.8349,5.7415,5.7461,5.7506,5.7468,5.2895,5.2895,5.2895,5.1817,5.0095,4.9723,4.9598,4.9581,4.882,4.8534,4.8542,4.7713,4.6866,4.6009,4.597,4.574,4.5355,4.5778,4.6009,4.6009,4.6471,4.6706,4.6706,4.6355,4.6201,4.6167,4.5782,4.5359,4.4898,4.4855,4.4667,4.4205,4.4205,4.397,4.3508,4.3585,4.3624,4.3624,4.4013,4.4201,4.4205,4.4201,4.3782,4.2931,4.2581,4.197,4.1085,3.9935,3.9088,3.8584,3.7311,3.6003,3.4657,3.416,3.3542,0.0,0.0,0.0,0.0,0.0,0.0,0.0,0.0,0.0,0.0,0.0,3.8339,3.9968,4.1996,4.3727,4.5069,4.551,4.6829,4.944,4.9729,5.0407,5.2167,5.3084,5.3902,5.478,5.6049,5.717,5.8017,5.8511,5.8973,5.9358,5.9344,5.9143,5.8799,5.8967,5.9364,5.9786,5.9894,6.0003,6.0488,6.0453,6.0346,6.0349,6.0285,6.0241,6.0241,6.0144,6.0099,6.0099,6.0159,6.0182,6.0189,6.0256,6.0368,6.0635,6.0079,5.9266,5.8819,5.8728,5.869,5.3338,5.3338,5.3299,5.3305,5.3266,5.2416,5.2044,5.1826,5.0214,4.9511,4.9436,4.8755,4.8394,4.8274,4.8274,4.8197,4.8082,4.8082,4.8082,4.8082,4.8082,4.8082,4.8043,4.7389,4.7043,4.7005,4.6278,4.5941,4.5898,4.5898,4.5859,4.5782,4.5744,4.5706,4.5552,4.4859,4.4474,4.4474,4.5205,4.5594,4.5594,4.5594,4.5167,4.4321,4.3628,4.2816,4.1812,4.0392,3.9511,3.9281,3.8584,3.7777,3.6923,3.685,3.6542,0.0,3.5923,0.0,0.0,0.0,0.0,0.0,0.0,0.0,0.0,4.028,4.1938,4.3438,4.5697,4.7429,4.8432,4.9196,5.033,5.2021,5.2326,5.3044,5.4631,5.5549,5.6362,5.7214,5.7973,5.8742,5.9511,5.9665,5.9973,6.0556,6.066,6.0373,5.9826,6.0117,6.0546,6.061,6.061,6.0546,6.0597,6.0591,6.0661,6.0719,6.0709,6.0641,6.0832,6.0688,6.0547,6.0555,6.0728,6.0764,6.0681,6.0794,6.1106,6.1802,6.1788,6.1451,6.0713,6.0456,6.0472,5.5025,5.5025,5.5025,5.5054,5.5022,5.4243,5.3481,5.2801,5.1764,5.0988,5.0423,5.0279,4.9822,4.9168,4.9163,4.8779,4.812,4.8082,4.8082,4.8082,4.8082,4.8082,4.8082,4.7966,4.7851,4.7855,4.7697,4.762,4.7625,4.762,4.7312,4.6663,4.6658,4.6317,4.5633,0.0,0.0,0.0,4.5513,4.5594,4.5594,4.5594,4.5167,4.4355,4.4162,0.0,4.1889,4.1504,4.07,3.94,3.9127,0.0,0.0,0.0,0.0,0.0,0.0,0.0,0.0,0.0,0.0,0.0,4.2431,4.2508,4.2239,4.4303,4.6063,4.702,4.8212,4.9524,5.1019,5.1293,5.2105,5.3764,5.4582,5.5395,5.6401,5.728,5.8127,5.8934,5.9165,5.9588,6.0364,6.0556,6.0589,6.0748,6.0781,6.0742,6.0533,6.0636,6.0746,6.0784,6.0772,6.0766,6.0679,6.0711,6.1,6.1448,6.1652,6.1855,6.2354,6.2487,6.2504,6.2459,6.2556,6.2525,6.2518,6.259,6.2572,6.284,6.2834,6.2762,6.2512,6.2395,6.2382,5.5615,5.5615,5.5615,5.5632,0.0,5.5237,5.4814,5.4281,5.3046,5.2292,5.1895,5.1471,5.1048,5.062,5.0202,4.9817,4.9394,4.9399,4.9394,4.9394,4.936,4.9394,4.9356,4.8933,4.874,4.874,4.8312,4.8082,4.8082,4.8082,4.7889,4.7505,4.7505,4.7274,4.6855,4.6817,4.6436,4.5594,4.5594,4.5594,4.5594,4.5594,4.5398,4.4936,4.4513,0.0,0.0,0.0,0.0,0.0,0.0,0.0,0.0,4.0508,0.0,4.0546,4.0931,4.1358,4.1743,4.2166,4.3128,4.485,4.6509,4.7129,4.6278,4.7778,4.9125,4.9889,5.0774,5.1818,5.3049,5.3544,5.428,5.5593,5.6478,5.7319,5.8132,5.8627,5.9242,5.9973,6.0127,6.0319,6.0742,6.0781,6.0781,6.0781,6.0781,6.0781,6.0781,6.0781,6.0781,6.0781,6.0781,6.0929,6.1328,6.1399,6.165,6.2381,6.2542,6.2714,6.306,6.311,6.3129,6.3129,6.3129,6.3129,6.3129,6.311,6.3252,6.3674,6.3789,6.3968,6.4189,6.3639,6.2949,5.6164,5.6164,5.6197,5.6081,5.5971,5.5971,5.5845,5.5604,5.4087,0.0,0.0,5.2462,5.2115,5.2082,5.1433,5.113,5.113,5.0976,5.0899,5.0899,5.0784,5.0707,5.0668,4.9976,4.963,4.9586,4.8894,4.8548,4.8548,4.8543,4.8466,4.8351,4.8312,4.824,4.812,4.8082,4.7432,4.609,4.5898,4.5821,4.5821,4.5667,4.5594,4.5594,4.4898,4.447,4.4316,4.3666,4.3239,4.3124,4.3085,4.3085,4.3085,4.3239,4.3316,4.3316,4.3624,4.4047,4.4701,4.4898,4.574,4.7466,4.9625,5.0548,4.9707,5.0553,5.1471,5.2313,5.3005,5.3818,5.4824,5.5511,5.6285,5.7132,5.8011,5.8775,5.9396,5.9665,6.0012,6.0666,6.0742,6.0781,6.0781,6.0781,6.0781,6.0781,6.0781,6.0781,6.0781,6.0781,6.0781,6.0781,6.0973,6.1325,6.1903,6.2243,6.2633,6.3385,6.3463,6.3514,6.3617,6.3623,6.359,6.3751,6.3629,6.3667,6.3635,6.3751,6.3931,6.459,6.4776,6.4962,6.5493,6.46,6.3622,5.8011,5.8011,5.8011,5.7626,5.6975,5.6975,5.6521,5.5699,5.4767,5.3895,5.3197,5.3082,5.3005,5.3005,5.289,5.2856,5.2813,5.2082,5.1731,5.1697,5.1015,5.0707,5.0707,5.0592,5.0515,5.0515,5.0361,5.0322,5.0322,5.0322,4.9976,4.9279,4.9202,4.8856,4.8159,4.8082,4.7971,4.7735,4.7086,4.6735,4.6697,4.5975,4.5594,4.5594,4.5518,4.5051,4.4316,4.4201,4.3816,4.3124,4.3085,4.3085,4.3124,4.3816,4.4124,4.4201,4.5547,4.6428,4.6543,4.7158,4.8317,5.0014,5.1164,5.1395,5.0668,5.1933,5.3203,5.401,5.428,5.4977,5.6401,5.6747,5.7209,5.8011,5.8819,5.9396,5.955,6.0165,6.0627,6.0781,6.0781,6.0781,6.0781,6.0781,6.0781,6.0781,6.0781,6.0781,6.0781,6.0781,6.0781,6.0896,6.1441,6.1903,6.221,6.2743,6.3435,6.4275,6.4423,6.4609,6.5186,6.525,6.5282,6.5449,6.5282,6.5327,6.5366,6.5494,6.5455,6.5571,6.5609,6.5686,6.5878,6.5461,6.5252,5.8422,5.8422,5.8422,5.8191,5.7844,5.7844,5.7366,5.6526,5.609,5.5394,5.4549,5.4126,5.3895,5.3857,5.339,5.3197,5.3159,5.2774,5.262,5.2544,5.1736,5.1356,5.1318,5.0899,5.0707,5.0707,5.0707,5.0707,5.0707,5.0707,5.0515,5.013,5.0091,4.9899,4.9548,4.951,4.951,4.9471,4.8197,4.7543,4.7548,4.7163,4.6932,4.6971,4.6552,4.6355,4.6355,4.5932,4.5735,4.5812,4.5812,4.5817,4.5817,4.6163,4.6355,4.6394,4.7081,4.7774,4.824,4.9466,5.0697,5.1972,5.2856,5.3164,5.2818,5.3433,5.428,5.5049,5.5555,5.617,5.6945,5.7824,5.8511,5.8896,5.9704,6.0204,6.0242,6.0512,6.0781,6.0781,6.0781,6.0781,6.0781,6.0781,6.0781,6.0781,6.0781,6.0781,6.0781,6.0781,6.0781,6.0858,6.1518,6.2249,6.2666,6.3474,6.432,6.5166,6.5282,6.5474,6.5865,6.5904,6.5904,6.5904,6.5904,6.5904,6.5904,6.5904,6.5904,6.5904,6.5904,6.5904,6.5891,6.5813,6.566,5.9075,5.9032,5.907,5.895,5.8699,5.8524,5.8051,5.7506,5.7418,5.6986,5.6246,5.5219,5.478,5.4703,5.4049,5.378,5.3741,5.3549,5.3467,5.339,5.2582,5.2197,5.2115,5.1548,5.1169,5.0976,5.0976,5.0899,5.0707,5.0707,5.0707,5.0707,5.0707,5.0707,5.0707,5.0707,5.0707,5.063,4.936,4.8586,4.8389,4.8197,4.8082,4.8043,4.7505,4.7466,4.8043,4.7505,4.7466,4.8043,4.8082,4.8082,4.812,4.8279,4.8394,4.8428,4.8735,4.9356,5.024,5.1428,5.2582,5.3428,5.4087,5.4587,5.478,5.4972,5.5324,5.5939,5.6555,5.7099,5.7671,5.8665,5.9588,5.9781,6.0396,6.0742,6.0781,6.0781,6.0781,6.0781,6.0781,6.0781,6.0781,6.0781,6.0781,6.0781,6.0781,6.0781,6.0781,6.0781,6.0781,6.1012,6.1672,6.2551,6.3275,6.4243,6.5051,6.5827,6.5865,6.5865,6.5904,6.5904,6.5904,6.5904,6.5904,6.5904,6.5904,6.5904,6.5904,6.5904,6.5904,6.5904,6.5897,6.5748,6.5594,6.1005,6.1044,6.0962,6.0554,5.9688,5.8876,5.8491,5.837,5.8322,5.8258,5.7891,5.6372,5.5593,5.5588,5.5478,5.5357,5.5324,5.4703,5.4357,5.428,5.3505,5.3087,5.3082,5.2972,5.2544,5.189,5.1813,5.1467,5.0861,5.0784,5.0707,5.0707,5.0707,5.0707,5.0707,5.0707,5.0707,5.0707,5.0553,5.0091,4.9279,4.8509,4.8082,4.8082,4.8043,4.8009,4.8202,4.8043,4.8043,4.8082,4.8159,4.812,4.8235,4.8856,4.9283,4.9394,5.0697,5.1928,5.2741,5.3005,5.3472,5.428,5.4472,5.4857,5.5555,5.6285,5.6753,5.6945,5.6983,5.7709,5.905,5.9435,5.9858,6.0473,6.0704,6.0781,6.0781,6.0781,6.0781,6.0781,6.0781,6.0781,6.0781,6.0781,6.0781,6.0781,6.0781,6.0781,6.0781,6.0781,6.0781,6.105,6.2089,6.3006,6.3429,6.4743,6.559,6.5865,6.5904,6.5904,6.5904,6.5904,6.5904,6.5904,6.5904,6.5904,6.5904,6.5904,6.5904,6.5904,6.5904,6.5904,6.5885,6.5818,6.5723,6.1301,6.1301,6.1301,6.1095,6.0683,6.0274,5.9816,5.9348,5.9273,5.893,5.8418,5.7616,5.7025,5.6487,5.5955,5.5708,5.567,5.5357,5.5203,5.5126,5.4357,5.3972,5.3933,5.3433,5.3005,5.2697,5.2659,5.2505,5.2241,5.2164,5.1933,5.1467,5.139,5.1169,5.0745,5.0707,5.0707,5.0707,5.0707,5.0515,5.0207,4.9822,4.9625,4.9591,4.9125,4.913,4.951,4.9163,4.9125,4.9586,4.9625,4.9856,5.0313,5.0697,5.112,5.1625,5.2274,5.3044,5.3895,5.3972,5.4318,5.517,5.5208,5.5555,5.6362,5.6786,5.7363,5.8319,5.8478,5.8819,5.9435,5.9979,6.0435,6.0742,6.0781,6.0781,6.0781,6.0781,6.0781,6.0781,6.0781,6.0781,6.0781,6.0781,6.0781,6.0781,6.0781,6.0781,6.0781,6.0781,6.0781,6.0935,6.182,6.2704,6.3314,6.4782,6.5667,6.5904,6.5904,6.5904,6.5904,6.5904,6.5904,6.5904,6.5904,6.5904,6.5904,6.5904,6.5904,6.5904,6.5904,6.5904,6.5904,6.6171,6.6312,6.1368,6.1364,6.1345,6.1334,6.133,6.1272,6.0859,6.0308,6.0194,5.9809,5.9263,5.8935,5.8461,5.7721,5.6613,5.6071,5.6016,5.5824,5.5708,5.5631,5.5088,5.4824,5.4741,5.4203,5.378,5.3587,5.3549,5.3428,5.3236,5.3197,5.2851,5.2308,5.2274,5.1972,5.1476,5.1399,5.1361,5.1399,5.1399,5.1361,5.1395,5.1361,5.1169,5.0712,5.0091,5.0168,5.0976,5.0433,5.051,5.1323,5.1399,5.1625,5.2197,5.2269,5.2659,5.3428,5.3549,5.3928,5.4741,5.4818,5.5088,5.5631,5.5901,5.6324,5.6907,5.7401,5.8209,5.9242,5.9704,5.9858,5.9935,6.0435,6.0781,6.0781,6.0781,6.0781,6.0781,6.0781,6.0781,6.0781,6.0781,6.0781,6.0781,6.0781,6.0781,6.0781,6.0781,6.0781,6.0781,6.0781,6.0781,6.0819,6.1556,6.2403,6.3237,6.4474,6.5436,6.5865,6.5904,6.5904,6.5904,6.5904,6.5904,6.5904,6.5904,6.5904,6.5904,6.5904,6.5904,6.5904,6.5897,6.6038,6.6282,6.6643,6.6957,6.1475,6.1502,6.144,6.1412,6.1405,6.133,6.1259,6.1142,6.1126,6.1061,6.0816,6.0118,5.9727,5.9519,5.788,5.6999,5.6835,5.6132,5.5785,5.5785,5.5631,5.5631,5.567,5.5593,5.5164,5.4472,5.4434,5.4049,5.3351,5.3274,5.3197,5.3121,5.3121,5.3121,5.2972,5.2928,5.3044,5.289,5.2895,5.301,5.3005,5.3005,5.2241,5.0976,5.0673,5.1048,5.1736,5.1813,5.2159,5.3005,5.2972,5.3082,5.3126,5.3164,5.3587,5.4318,5.4434,5.4785,5.5478,5.5631,5.567,5.5862,5.6516,5.6983,5.7286,5.8401,5.9281,5.9511,6.0242,6.0627,6.0627,6.0704,6.0781,6.0781,6.0781,6.0781,6.0781,6.0781,6.0781,6.0781,6.0781,6.0781,6.0781,6.0781,6.0781,6.0781,6.0781,6.0781,6.0781,6.0781,6.0781,6.0935,6.1518,6.2364,6.3198,6.4205,6.5013,6.559,6.5904,6.5904,6.5904,6.5904,6.5904,6.5904,6.5904,6.5904,6.5904,6.5904,6.5904,6.5936,6.6038,6.6211,6.6588,6.6814,6.7281,6.1481,6.1481,6.1457,6.1483,6.1438,6.137,6.1376,6.1329,6.1301,6.1255,6.1147,6.0802,6.064,6.05,5.9345,5.8474,5.7769,5.6923,5.6516,5.6478,5.5978,5.5708,5.5708,5.5708,5.5593,5.5324,5.5241,5.5126,5.4857,5.4818,5.4511,5.4087,5.4049,5.378,5.3313,5.3197,5.3197,5.3197,5.3197,5.3197,5.3236,5.3197,5.2851,5.2356,5.2279,5.2428,5.2736,5.2736,5.289,5.3197,5.3197,5.3433,5.401,5.4516,5.4934,5.5208,5.5247,5.5395,5.5703,5.6209,5.6555,5.6593,5.7324,5.805,5.855,5.9165,5.9704,6.0242,6.055,6.0781,6.0781,6.0781,6.0781,6.0781,6.0781,6.0781,6.0781,6.0781,6.0781,6.0781,6.0781,6.0781,6.0781,6.0781,6.0781,6.0781,6.0781,6.0781,6.0781,6.0781,6.0781,6.0819,6.1095,6.1749,6.316,6.4006,6.4859,6.5513,6.5904,6.5904,6.5904,6.5904,6.5904,6.5904,6.5904,6.5904,6.5904,6.5904,6.5897,6.6038,6.6141,6.6557,6.6939,6.7532,6.8188,6.1551,6.1512,6.1501,6.1498,6.1492,6.1438,6.1405,6.1391,6.1368,6.1314,6.1229,6.1199,6.115,6.0974,6.0442,5.9852,5.9081,5.7972,5.7434,5.7352,5.6527,5.6132,5.6055,5.5824,5.5708,5.5708,5.5708,5.5708,5.5708,5.5708,5.5401,5.49,5.4895,5.4587,5.4087,5.401,5.401,5.401,5.401,5.401,5.401,5.401,5.4005,5.401,5.401,5.3857,5.3664,5.3621,5.378,5.3972,5.401,5.428,5.4857,5.5401,5.5824,5.6055,5.6132,5.6247,5.6549,5.7093,5.744,5.7478,5.8165,5.8973,5.9473,5.9742,6.0204,6.0666,6.0781,6.0781,6.0781,6.0781,6.0781,6.0781,6.0781,6.0781,6.0781,6.0781,6.0781,6.0781,6.0781,6.0781,6.0781,6.0781,6.0781,6.0781,6.0781,6.0781,6.0781,6.0781,6.0781,6.0781,6.0819,6.1627,6.2814,6.3737,6.4743,6.5436,6.5865,6.5904,6.5904,6.5904,6.5904,6.5904,6.5904,6.5904,6.5904,6.5904,6.6038,6.6211,6.6557,6.6977,6.7676,6.8547,6.9046,6.1685,6.1719,6.1541,6.1609,6.1604,6.1534,6.1463,6.1438,6.1391,6.1348,6.1306,6.1234,6.1191,6.1164,6.0978,6.0896,6.048,5.9125,5.8379,5.8209,5.7434,5.7022,5.694,5.6209,5.5785,5.5708,5.5708,5.5708,5.5708,5.5708,5.5631,5.567,5.5593,5.5516,5.5626,5.5434,5.5549,5.5478,5.5434,5.5516,5.567,5.5516,5.5478,5.5516,5.5511,5.517,5.4549,5.4511,5.4824,5.5439,5.5555,5.567,5.5708,5.5862,5.617,5.6863,5.7022,5.744,5.8083,5.8204,5.8275,5.839,5.905,5.955,5.9742,6.0281,6.0704,6.0742,6.0781,6.0781,6.0781,6.0781,6.0781,6.0781,6.0781,6.0781,6.0781,6.0781,6.0781,6.0781,6.0781,6.0781,6.0781,6.0781,6.0781,6.0781,6.0781,6.0781,6.0781,6.0781,6.0781,6.0902,6.1095,6.182,6.2627,6.3468,6.4474,6.5397,6.5705,6.5904,6.5904,6.5904,6.5904,6.5904,6.5904,6.5904,6.5974,6.6006,6.6384,6.6627,6.7047,6.7568,6.8409,6.9169,6.9572,6.3388,6.3308,6.2698,6.2452,6.2372,6.1801,6.1473,6.1459,6.1405,6.1359,6.1355,6.1303,6.1246,6.1191,6.1155,6.1127,6.1012,6.0369,5.9796,5.9149,5.8313,5.7901,5.7747,5.7016,5.6285,5.5785,5.5708,5.5708,5.5708,5.5708,5.5708,5.5708,5.5708,5.5708,5.5708,5.5708,5.5708,5.5708,5.5708,5.5708,5.5708,5.5708,5.5708,5.5708,5.5708,5.5555,5.5324,5.5318,5.5439,5.5708,5.5708,5.5939,5.6555,5.7165,5.7588,5.7857,5.7896,5.7973,5.828,5.8813,5.9127,5.9281,5.9896,6.0319,6.0396,6.0589,6.0781,6.0781,6.0781,6.0781,6.0781,6.0781,6.0781,6.0781,6.0781,6.0781,6.0781,6.0781,6.0781,6.0781,6.0781,6.0781,6.0781,6.0781,6.0781,6.0781,6.0781,6.0781,6.0781,6.0858,6.1089,6.1518,6.1787,6.221,6.3281,6.4006,6.4666,6.5397,6.575,6.5904,6.5904,6.5904,6.5904,6.5904,6.5904,6.5891,6.5968,6.6243,6.6665,6.7257,6.7777,6.844,6.9138,6.9626,6.9988,6.4191,6.415,6.362,6.3375,6.3334,6.2686,6.2281,6.1996,6.1921,6.1758,6.144,6.1359,6.1306,6.1242,6.1199,6.1173,6.1141,6.1094,6.0702,6.0062,5.9182,5.8798,5.8632,5.7857,5.7242,5.6703,5.6319,5.6209,5.617,5.5862,5.5708,5.5708,5.5708,5.5708,5.5708,5.5708,5.5708,5.5708,5.5708,5.5708,5.5708,5.5708,5.5708,5.5708,5.5708,5.5862,5.6132,5.617,5.617,5.6247,5.6478,5.694,5.7473,5.7973,5.8429,5.8698,5.8775,5.8858,5.9204,5.9742,5.9973,6.0089,6.0517,6.0787,6.0781,6.0781,6.0781,6.0781,6.0781,6.0781,6.0781,6.0781,6.0781,6.0781,6.0781,6.0781,6.0781,6.0781,6.0781,6.0781,6.0781,6.0781,6.0781,6.0781,6.0781,6.0781,6.0781,6.0781,6.0858,6.1095,6.1633,6.2095,6.2364,6.3128,6.4243,6.4705,6.4936,6.5397,6.5865,6.5904,6.5904,6.5904,6.5904,6.5904,6.5904,6.5872,6.5936,6.6512,6.7009,6.7738,6.8463,6.9077,6.9618,6.9928,7.0209,6.437,6.4327,6.4306,6.4257,6.4253,6.4035,6.3507,6.2938,6.2852,6.2393,6.1716,6.1592,6.1437,6.131,6.1238,6.1191,6.1177,6.1132,6.1022,6.0699,6.0057,5.9617,5.9286,5.8627,5.8242,5.7967,5.7401,5.7093,5.7016,5.6439,5.5824,5.5901,5.5901,5.5747,5.5708,5.5708,5.5708,5.5708,5.5708,5.5708,5.5708,5.5708,5.5785,5.5824,5.5901,5.6247,5.694,5.717,5.7176,5.717,5.7819,5.8236,5.8352,5.8396,5.8929,5.955,5.9588,5.9935,6.055,6.0589,6.0666,6.0666,6.0704,6.0781,6.0781,6.0781,6.0781,6.0781,6.0781,6.0781,6.0781,6.0781,6.0781,6.0781,6.0781,6.0781,6.0781,6.0781,6.0781,6.0781,6.0781,6.0781,6.0781,6.0781,6.0858,6.0973,6.1012,6.1089,6.1358,6.1787,6.2133,6.2595,6.3166,6.382,6.4897,6.5128,6.532,6.5513,6.5904,6.5904,6.5904,6.5904,6.5904,6.5904,6.5917,6.5891,6.6159,6.6842,6.7515,6.8195,6.8878,6.9564,6.9949,7.0171,7.0182,6.6104,6.6062,6.542,6.5168,6.5074,6.4482,6.4038,6.3777,6.3759,6.3275,6.2549,6.2381,6.1981,6.1433,6.1318,6.126,6.1182,6.1137,6.1046,6.0982,6.0804,6.0184,5.9606,5.9281,5.8896,5.839,5.8127,5.7934,5.7934,5.7627,5.7242,5.667,5.6632,5.6324,5.5824,5.5785,5.5708,5.5708,5.5747,5.5785,5.5785,5.5785,5.6055,5.6632,5.6632,5.7093,5.7934,5.855,5.855,5.805,5.8742,5.9204,5.9236,5.9704,6.0089,6.0281,6.0396,6.0473,6.0704,6.0781,6.0781,6.0781,6.0781,6.0781,6.0781,6.0781,6.0781,6.0781,6.0781,6.0858,6.0819,6.0858,6.0858,6.0781,6.0935,6.0896,6.0781,6.0781,6.0781,6.0781,6.0819,6.0858,6.0896,6.0973,6.1166,6.1595,6.1787,6.1897,6.2243,6.2666,6.3051,6.3705,6.4282,6.4782,6.5282,6.5474,6.5667,6.5743,6.5904,6.5904,6.5904,6.5904,6.5904,6.5904,6.6038,6.6082,6.6674,6.7348,6.8034,6.8686,6.9365,7.0009,7.0048,7.0191,7.0058,6.6823,6.6744,6.6258,6.6044,6.5985,6.5468,6.5021,6.4686,6.4632,6.4151,6.347,6.331,6.2799,6.1981,6.185,6.1595,6.129,6.1146,6.1075,6.0995,6.0916,6.0575,6.0139,6.0012,5.9781,5.9358,5.8973,5.8813,5.8742,5.8506,5.8006,5.7627,5.7555,5.728,5.6934,5.678,5.678,5.6819,5.678,5.678,5.6819,5.678,5.7011,5.7478,5.7555,5.7934,5.8781,5.9627,5.9665,5.9165,5.955,6.005,6.0089,6.0473,6.0781,6.0781,6.0781,6.0781,6.0781,6.0781,6.0781,6.0781,6.0781,6.0781,6.0781,6.0781,6.0858,6.1325,6.1325,6.1518,6.1781,6.1858,6.1858,6.1935,6.1858,6.155,6.0935,6.0781,6.0781,6.0864,6.1095,6.1325,6.1364,6.1627,6.205,6.2435,6.2589,6.282,6.3121,6.3545,6.3974,6.4474,6.4974,6.5359,6.5513,6.5667,6.5859,6.5974,6.6058,6.6019,6.6115,6.6115,6.6141,6.6205,6.6236,6.6528,6.7302,6.7958,6.8495,6.9174,6.9886,7.0175,7.0164,7.0076,6.9976,6.6796,6.6795,6.682,6.6803,6.6742,6.6722,6.6154,6.5623,6.5538,6.5057,6.4371,6.4223,6.368,6.2828,6.2478,6.2069,6.1444,6.1237,6.106,6.0964,6.0911,6.0727,6.0671,6.0627,6.0589,6.0435,5.9935,5.9704,5.955,5.8973,5.8588,5.8434,5.8429,5.8313,5.8006,5.8121,5.8236,5.8083,5.8006,5.7967,5.7967,5.8006,5.8127,5.8396,5.8665,5.8973,5.9665,6.0281,6.0402,5.9665,6.0396,6.0666,6.0748,6.0781,6.0781,6.0781,6.0781,6.0781,6.0781,6.0781,6.0896,6.0979,6.1018,6.1012,6.1204,6.1358,6.1589,6.2172,6.221,6.2474,6.2891,6.3198,6.3083,6.3006,6.3121,6.2506,6.1512,6.1056,6.1056,6.1089,6.1826,6.2133,6.2403,6.2781,6.3275,6.3358,6.3512,6.3743,6.4051,6.4512,6.4705,6.4859,6.532,6.5782,6.5865,6.5865,6.6013,6.6167,6.6288,6.6359,6.6596,6.6621,6.6602,6.6652,6.6821,6.7288,6.802,6.864,6.9059,6.9437,6.9993,7.0071,7.0039,6.9938,6.9853,6.6796,6.6796,6.6794,6.6814,6.6785,6.6777,6.6635,6.6398,6.6398,6.5876,6.5264,6.5076,6.4539,6.3683,6.2991,6.2379,6.2138,6.1542,6.106,6.0997,6.0927,6.0866,6.0793,6.0781,6.0781,6.0748,6.0627,6.0512,6.0396,6.0165,5.9896,5.9319,5.9198,5.8929,5.8467,5.8506,5.8313,5.8313,5.8352,5.8429,5.8467,5.8467,5.8742,5.9204,5.9819,6.0242,6.0473,6.0704,6.0704,6.0627,6.0666,6.0781,6.0781,6.0781,6.0781,6.0781,6.0781,6.0781,6.0819,6.0902,6.1127,6.1749,6.1826,6.2089,6.2698,6.266,6.2775,6.3045,6.3045,6.316,6.3468,6.3352,6.3468,6.3545,6.3468,6.3314,6.2852,6.2737,6.2621,6.2698,6.2858,6.3045,6.3051,6.3243,6.3698,6.4122,6.4429,6.4628,6.4974,6.532,6.5359,6.532,6.5513,6.5904,6.5942,6.609,6.6474,6.6692,6.6846,6.6872,6.7114,6.7291,6.7334,6.7369,6.7434,6.805,6.8824,6.8967,6.9306,6.968,6.9974,6.9972,6.992,6.9853,6.9888,6.6796,6.6796,6.6796,6.6817,6.6787,6.682,6.6757,6.6717,6.6709,6.646,6.6082,6.5935,6.5434,6.4613,6.3996,6.3585,6.293,6.208,6.1363,6.1097,6.0916,6.0854,6.0793,6.0781,6.0781,6.0781,6.0781,6.0781,6.0781,6.0781,6.0512,6.0165,6.0089,5.9973,5.955,5.9435,5.955,5.955,5.9473,5.9473,5.9473,5.9473,5.9588,6.005,6.0556,6.0781,6.0781,6.0781,6.0781,6.0781,6.0781,6.0781,6.0781,6.0781,6.0781,6.0781,6.0781,6.105,6.1248,6.1479,6.1781,6.2589,6.2672,6.2897,6.3198,6.3314,6.3545,6.3775,6.3929,6.4006,6.4436,6.4551,6.4512,6.4512,6.4506,6.4512,6.4391,6.3852,6.3314,6.3391,6.3622,6.3814,6.3929,6.4089,6.4474,6.5089,6.5128,6.532,6.5359,6.5667,6.5705,6.5743,6.5788,6.5904,6.6019,6.6359,6.7013,6.734,6.7659,6.7716,6.7843,6.8004,6.817,6.8202,6.8288,6.8855,6.9502,6.9526,6.954,6.9787,6.9954,6.992,6.9948,7.0037,7.0153,6.6796,6.6796,6.6794,6.6816,6.6787,6.6779,6.6755,6.6714,6.6704,6.6647,6.6663,6.663,6.6079,6.5521,6.5113,6.455,6.3665,6.266,6.1774,6.1307,6.0954,6.0831,6.0781,6.0781,6.0781,6.0781,6.0781,6.0781,6.0781,6.0781,6.0742,6.0748,6.0742,6.0589,6.071,6.0781,6.0589,6.0512,6.0512,6.055,6.0589,6.0589,6.0633,6.0666,6.0742,6.0781,6.0781,6.0781,6.0781,6.0781,6.0781,6.0781,6.0781,6.0781,6.0896,6.0973,6.1089,6.1518,6.2133,6.2326,6.2627,6.3391,6.3506,6.3622,6.3737,6.3968,6.4243,6.4551,6.4859,6.5051,6.5782,6.5667,6.5705,6.5743,6.582,6.5904,6.5628,6.4551,6.4006,6.3974,6.4436,6.4782,6.4974,6.5128,6.5551,6.5904,6.5904,6.5904,6.5904,6.5904,6.5942,6.6096,6.6173,6.6705,6.6898,6.7013,6.7622,6.8121,6.8516,6.8622,6.8709,6.9021,6.9214,6.9107,6.9283,6.9731,6.9908,6.99,6.9948,7.0012,6.9939,6.99,7.0027,7.029,7.046,6.6796,6.6795,6.6822,6.6805,6.6822,6.6765,6.6778,6.6709,6.6727,6.666,6.663,6.6591,6.6461,6.6081,6.5398,6.4569,6.3734,6.2897,6.2249,6.1814,6.1355,6.1018,6.0941,6.0979,6.0858,6.0781,6.0781,6.0781,6.0781,6.0781,6.0781,6.0781,6.0781,6.0781,6.0781,6.0781,6.0781,6.0781,6.0781,6.0781,6.0781,6.0781,6.0781,6.0781,6.0781,6.0781,6.0781,6.0781,6.0781,6.0781,6.0781,6.0819,6.0896,6.0896,6.121,6.1633,6.1864,6.2249,6.2974,6.3121,6.3545,6.4166,6.4397,6.4782,6.5166,6.5359,6.5282,6.5436,6.559,6.5705,6.5865,6.5904,6.5904,6.5904,6.5904,6.5904,6.5827,6.5519,6.5166,6.5128,6.5442,6.5596,6.559,6.5628,6.5788,6.5904,6.5904,6.5904,6.5904,6.5981,6.6058,6.6288,6.6558,6.7282,6.7968,6.8084,6.8416,6.9016,6.9351,6.9594,6.978,7.0134,7.0263,6.9833,6.9769,7.0022,7.0158,7.0176,7.0211,7.0176,7.0032,6.9962,7.0424,7.089,7.1072,6.7727,6.8149,6.814,6.8119,6.8015,6.7573,6.735,6.7236,6.6911,6.6645,6.6598,6.6556,6.6505,6.6281,6.598,6.5185,6.4302,6.3847,6.3246,6.276,6.2311,6.182,6.1518,6.1479,6.1133,6.0935,6.0781,6.0819,6.0781,6.0781,6.0781,6.0781,6.0781,6.0781,6.0781,6.0781,6.0781,6.0781,6.0781,6.0781,6.0781,6.0781,6.0781,6.0781,6.0781,6.0781,6.0781,6.0781,6.0781,6.0781,6.0781,6.1056,6.1325,6.1518,6.1672,6.2095,6.2512,6.3089,6.382,6.4006,6.4391,6.5128,6.5243,6.5436,6.575,6.5827,6.5904,6.5904,6.5904,6.5904,6.5904,6.5904,6.5904,6.5904,6.5904,6.5904,6.5904,6.5904,6.5904,6.5942,6.5865,6.5827,6.5827,6.5827,6.5865,6.5904,6.5942,6.6013,6.609,6.6282,6.6558,6.6936,6.7359,6.809,6.8814,6.9032,6.9159,6.968,6.9992,7.0194,7.0333,7.053,7.0397,7.0042,7.015,7.0513,7.0313,7.0336,7.0337,7.0447,7.0705,7.0958,7.1229,7.1485,7.17,6.8772,6.9384,6.9377,6.9354,6.9204,6.8566,6.8229,6.7999,6.7277,6.6928,6.6829,6.659,6.6427,6.6364,6.6201,6.5788,6.5114,6.4905,6.4226,6.37,6.3261,6.2858,6.2518,6.2287,6.2056,6.1666,6.1204,6.0979,6.0819,6.0781,6.0781,6.0781,6.0781,6.0781,6.0781,6.0781,6.0781,6.0781,6.0781,6.0781,6.0781,6.0781,6.0781,6.0781,6.0781,6.0781,6.0781,6.0781,6.0781,6.0781,6.0858,6.1172,6.1947,6.2249,6.2441,6.2672,6.3205,6.3974,6.4628,6.4859,6.5128,6.5705,6.582,6.5904,6.5904,6.5904,6.5904,6.5904,6.5904,6.5904,6.5904,6.5904,6.5904,6.5904,6.5904,6.5904,6.5904,6.5942,6.609,6.609,6.609,6.6058,6.6058,6.6327,6.6404,6.6635,6.6712,6.6974,6.7051,6.7205,6.7475,6.7859,6.8321,6.9007,6.9538,6.9864,7.0015,7.0251,7.0363,7.0432,7.0522,7.0607,7.0519,7.0565,7.0888,7.1122,7.0792,7.0657,7.0927,7.1268,7.1621,7.1841,7.1967,7.2139,7.2372,6.9307,6.9421,6.9346,6.9323,6.9351,6.9153,6.905,6.8915,6.8047,6.7687,6.7487,6.6815,6.6441,6.6278,6.618,6.6014,6.5671,6.5163,6.4752,6.4389,6.3858,6.3468,6.316,6.316,6.3006,6.2627,6.2166,6.1518,6.1127,6.0973,6.0781,6.0781,6.0781,6.0781,6.0781,6.0781,6.0781,6.0781,6.0781,6.0781,6.0781,6.0781,6.0781,6.0781,6.0781,6.0781,6.0781,6.0781,6.0781,6.0819,6.0819,6.1248,6.2018,6.282,6.3551,6.4051,6.4474,6.482,6.5513,6.559,6.5628,6.5859,6.5936,6.5904,6.6167,6.6205,6.6167,6.5904,6.5974,6.6128,6.6205,6.6058,6.5942,6.6096,6.6282,6.6205,6.6128,6.659,6.6705,6.6821,6.6974,6.6551,6.6327,6.6673,6.7019,6.725,6.7513,6.7782,6.7968,6.809,6.8552,6.8975,6.9167,6.9783,7.0032,7.0396,7.0486,7.0714,7.0823,7.0761,7.0869,7.1027,7.1257,7.1367,7.1684,7.1759,7.1509,7.1501,7.1755,7.1987,7.2217,7.2395,7.2557,7.2775,7.2991,7.0805,7.0832,7.0773,7.0746,7.0634,7.0179,6.9915,6.9678,6.8889,6.8183,6.7747,6.7329,6.6777,6.6296,6.6112,6.6052,6.5934,6.559,6.5388,6.5294,6.4859,6.4474,6.4128,6.3974,6.3891,6.3391,6.2974,6.2698,6.2044,6.1281,6.0781,6.0858,6.0819,6.0781,6.0858,6.0819,6.0781,6.0781,6.0781,6.0781,6.0781,6.0781,6.0781,6.0781,6.0781,6.0781,6.0781,6.0781,6.0781,6.0896,6.1172,6.1941,6.2743,6.3583,6.4436,6.5205,6.532,6.5513,6.582,6.5865,6.5904,6.6058,6.632,6.6821,6.7128,6.7244,6.7244,6.7321,6.7321,6.7282,6.7244,6.7321,6.7314,6.7282,6.7051,6.7128,6.7128,6.7321,6.759,6.7705,6.7821,6.7552,6.7359,6.7667,6.7975,6.7975,6.8167,6.8314,6.8584,6.8814,6.9436,7.0167,7.0321,7.0475,7.0563,7.0735,7.0657,7.0883,7.1375,7.1341,7.1375,7.1521,7.1852,7.2177,7.2447,7.2412,7.2216,7.2348,7.2568,7.2695,7.2782,7.2967,7.3137,7.3167,7.3342,7.1911,7.1887,7.1887,7.1858,7.1767,7.1057,7.0742,7.0596,6.9733,6.8946,6.8299,6.7784,6.6987,6.6262,6.6069,6.604,6.6008,6.599,6.5954,6.5916,6.5827,6.5474,6.5089,6.4859,6.4589,6.3935,6.3775,6.3583,6.316,6.2358,6.1589,6.1396,6.1358,6.1204,6.1095,6.0935,6.0781,6.0781,6.0781,6.0781,6.0781,6.0781,6.0781,6.0781,6.0781,6.0781,6.0819,6.1089,6.1166,6.1325,6.1973,6.2743,6.3583,6.416,6.4897,6.5551,6.575,6.5788,6.5859,6.5904,6.5974,6.6359,6.6898,6.7667,6.809,6.8391,6.8353,6.8199,6.8199,6.8237,6.8391,6.8314,6.816,6.8122,6.816,6.8314,6.8391,6.8282,6.8398,6.8629,6.8783,6.8975,6.8898,6.8968,6.9007,6.8814,6.8853,6.893,6.9199,6.9545,6.9975,7.0706,7.0706,7.0769,7.0843,7.0885,7.0889,7.1191,7.1673,7.1934,7.2002,7.2289,7.2709,7.2987,7.3181,7.3312,7.3296,7.33,7.3349,7.3371,7.3417,7.3634,7.3764,7.3703,7.3651,7.1845,7.1822,7.1822,7.18,7.1761,7.1657,7.1559,7.1369,7.0546,7.0044,6.9483,6.822,6.6968,6.6301,6.6073,6.6026,6.5996,6.5935,6.5916,6.5904,6.5865,6.5788,6.5628,6.5596,6.5634,6.5397,6.4859,6.4551,6.4352,6.3698,6.3198,6.3045,6.2358,6.2095,6.1864,6.1518,6.1243,6.1166,6.1095,6.0973,6.0902,6.0864,6.0819,6.0902,6.0864,6.0819,6.0864,6.1595,6.2018,6.2056,6.2781,6.3468,6.4199,6.4628,6.5243,6.5705,6.5904,6.5942,6.6051,6.6134,6.6397,6.7013,6.7744,6.843,6.8814,6.8584,6.8468,6.8699,6.8891,6.8737,6.8622,6.843,6.8814,6.8898,6.9052,6.9045,6.9007,6.8853,6.9013,6.943,6.9699,6.9821,6.9937,6.993,6.9814,6.9661,6.9814,6.993,7.0129,7.0398,7.0514,7.086,7.086,7.0909,7.0954,7.1089,7.1451,7.1918,7.2426,7.2596,7.2675,7.308,7.357,7.3577,7.3749,7.4055,7.4207,7.3891,7.3761,7.3893,7.3935,7.3901,7.3927,7.3875,7.3835,7.1869,7.1827,7.1827,7.1767,7.1735,7.1697,7.1676,7.1556,7.1192,7.0593,6.9877,6.8204,6.7178,6.6723,6.6148,6.5978,6.5947,6.5916,6.5904,6.5904,6.5904,6.5904,6.5904,6.5904,6.5865,6.5827,6.5513,6.5397,6.532,6.4859,6.4936,6.4551,6.3512,6.3012,6.2666,6.2435,6.2281,6.2127,6.1864,6.1595,6.1479,6.1056,6.1056,6.1556,6.1595,6.1897,6.232,6.2627,6.282,6.3051,6.3698,6.4243,6.4705,6.5089,6.5474,6.5859,6.5897,6.6173,6.6558,6.6712,6.725,6.8475,6.9052,6.9353,6.9706,6.9853,6.993,6.9968,6.986,6.9706,6.9898,6.9937,7.0052,6.9975,6.986,6.9776,6.9699,6.959,6.9667,7.009,7.036,7.0514,7.0667,7.0783,7.0629,7.0514,7.0744,7.0898,7.0898,7.0937,7.0975,7.1091,7.1129,7.1427,7.1547,7.1819,7.2126,7.2611,7.3136,7.3301,7.3497,7.4,7.4409,7.4336,7.4163,7.4267,7.4266,7.4162,7.4106,7.4147,7.4038,7.3914,7.3936,7.4131,7.429,7.1856,7.1806,7.1797,7.1735,7.1697,7.1661,7.1632,7.1584,7.1494,7.0886,6.9805,6.8629,6.7716,6.7209,6.6665,6.6108,6.5993,6.5904,6.5904,6.5904,6.5904,6.5904,6.5904,6.5904,6.5904,6.5904,6.5904,6.5865,6.5827,6.5865,6.575,6.5359,6.4782,6.4166,6.3622,6.3391,6.3314,6.3121,6.2858,6.248,6.2326,6.1973,6.1781,6.2403,6.2441,6.2627,6.3121,6.3429,6.3666,6.3968,6.4429,6.4897,6.5205,6.548,6.5827,6.5974,6.6167,6.6558,6.6981,6.7789,6.8359,6.9321,6.9898,7.0321,7.0706,7.0898,7.0667,7.0744,7.0783,7.0898,7.0898,7.0706,7.0629,7.0475,7.0514,7.0437,7.0475,7.0437,7.0552,7.0744,7.086,7.0821,7.0821,7.0898,7.086,7.0744,7.0783,7.0898,7.0898,7.0975,7.1129,7.1283,7.1475,7.1874,7.2262,7.2771,7.3214,7.3361,7.3803,7.4133,7.441,7.4783,7.476,7.4444,7.4327,7.4391,7.45,7.4557,7.4472,7.4348,7.4387,7.4556,7.4741,7.4996,7.5145,7.1797,7.1803,7.1728,7.1694,7.1692,7.1618,7.1547,7.1494,7.143,7.0877,7.0064,6.9669,6.8799,6.764,6.7167,6.6609,6.6134,6.5942,6.5904,6.5904,6.5904,6.5904,6.5904,6.5904,6.5904,6.5904,6.5904,6.5904,6.5904,6.5904,6.5904,6.5904,6.5513,6.5166,6.4551,6.3737,6.3352,6.3352,6.3391,6.3314,6.3237,6.3045,6.3006,6.3237,6.332,6.3429,6.3858,6.4314,6.4551,6.4705,6.5243,6.559,6.5705,6.575,6.5942,6.6058,6.6635,6.7019,6.725,6.8744,6.9552,6.986,7.036,7.0744,7.086,7.0898,7.0898,7.0898,7.0898,7.0898,7.0898,7.0898,7.0898,7.0898,7.0898,7.0898,7.0898,7.0898,7.0898,7.0898,7.0898,7.0898,7.0898,7.0898,7.0975,7.0937,7.0898,7.0937,7.1052,7.1245,7.1475,7.1885,7.2154,7.2575,7.3116,7.3829,7.4254,7.4311,7.4408,7.4638,7.4644,7.4678,7.4611,7.4425,7.4553,7.465,7.4894,7.5097,7.5222,7.5395,7.539,7.553,7.5689,7.5875,7.6024,7.1764,7.1728,7.1668,7.1614,7.165,7.1594,7.1536,7.144,7.1308,7.1025,7.0628,7.0143,6.9618,6.8706,6.7654,6.7026,6.6718,6.5981,6.5904,6.5942,6.5987,6.5904,6.5904,6.5987,6.5942,6.5904,6.5904,6.5942,6.5904,6.5904,6.5904,6.5904,6.5865,6.575,6.5474,6.5089,6.5051,6.4936,6.4551,6.416,6.4083,6.3698,6.3622,6.4122,6.416,6.4397,6.4782,6.5205,6.532,6.532,6.582,6.5859,6.5904,6.5904,6.6167,6.6519,6.7135,6.7705,6.859,6.986,7.0437,7.0591,7.0667,7.0898,7.0898,7.0898,7.0898,7.0898,7.0898,7.0898,7.0898,7.0898,7.0898,7.0898,7.0898,7.0898,7.0898,7.0898,7.0898,7.0898,7.0898,7.0898,7.0898,7.1168,7.1283,7.1398,7.1437,7.1629,7.1745,7.1898,7.2129,7.2678,7.3073,7.3422,7.3921,7.4442,7.4779,7.4792,7.4828,7.4904,7.4897,7.4638,7.4611,7.4542,7.4746,7.4944,7.5384,7.5856,7.6312,7.6516,7.6398,7.6432,7.6581,7.6767,7.699,7.1741,7.1694,7.163,7.1564,7.158,7.1523,7.1465,7.134,7.1247,7.1166,7.0945,7.0478,7.0003,6.9457,6.8655,6.7788,6.7634,6.7134,6.6864,6.6781,6.6473,6.6466,6.6416,6.6352,6.6461,6.6333,6.6327,6.6327,6.6365,6.6058,6.5904,6.5904,6.5904,6.5865,6.5782,6.5782,6.5743,6.559,6.5243,6.5051,6.4897,6.4705,6.4551,6.4897,6.5089,6.5282,6.5711,6.5904,6.5904,6.5904,6.5904,6.5904,6.5942,6.625,6.6513,6.6981,6.7898,6.8667,6.9898,7.0398,7.0783,7.0821,7.0898,7.0898,7.0898,7.0898,7.0898,7.0898,7.0898,7.0898,7.0898,7.0898,7.0898,7.0898,7.0898,7.0898,7.0898,7.0898,7.0898,7.0898,7.0898,7.0898,7.1014,7.136,7.1629,7.1822,7.2014,7.2283,7.2552,7.2668,7.2937,7.3524,7.3904,7.4213,7.452,7.4861,7.5132,7.5225,7.5171,7.5094,7.4816,7.4563,7.4593,7.4722,7.495,7.537,7.6081,7.6612,7.7138,7.7318,7.724,7.7324,7.7473,7.7584,7.7658,7.1771,7.1696,7.1614,7.1538,7.1489,7.144,7.1345,7.1286,7.1236,7.1172,7.11,7.1055,7.0632,6.999,6.9808,6.9325,6.8625,6.8476,6.8316,6.8162,6.7571,6.7393,6.7247,6.7255,6.723,6.7199,6.7135,6.7128,6.7051,6.6744,6.6359,6.6205,6.6436,6.632,6.625,6.6134,6.6058,6.5904,6.575,6.5634,6.5513,6.5628,6.5513,6.5634,6.5711,6.5711,6.5904,6.5904,6.5904,6.5904,6.5904,6.5942,6.6173,6.6667,6.6981,6.7667,6.8898,6.9898,7.0552,7.086,7.086,7.0898,7.0898,7.0898,7.0898,7.0898,7.0898,7.0898,7.0898,7.0898,7.0898,7.0898,7.0898,7.0898,7.0898,7.0898,7.0898,7.0898,7.0898,7.0898,7.0898,7.0975,7.1283,7.1591,7.2213,7.2822,7.3129,7.3514,7.3668,7.3514,7.3853,7.4454,7.4787,7.4973,7.5194,7.528,7.5224,7.5246,7.5161,7.5025,7.4733,7.4622,7.4877,7.5067,7.5266,7.5832,7.6812,7.7486,7.7973,7.803,7.777,7.7844,7.7919,7.7993,7.8104,7.169,7.1614,7.1572,7.1499,7.1435,7.1384,7.1286,7.123,7.1213,7.1166,7.11,7.11,7.09,7.0695,7.0174,6.9767,6.9381,6.8957,6.8642,6.8455,6.8434,6.8251,6.8182,6.8152,6.8115,6.8084,6.8052,6.802,6.7968,6.7622,6.7583,6.7705,6.7436,6.7205,6.6936,6.6744,6.6436,6.6134,6.6019,6.5904,6.5904,6.5904,6.5904,6.5904,6.5904,6.5904,6.5904,6.5942,6.5974,6.5936,6.5942,6.6096,6.6789,6.7058,6.7398,6.8936,6.9937,7.0667,7.086,7.0898,7.0898,7.0898,7.0937,7.0898,7.0898,7.0975,7.1014,7.1052,7.1091,7.1129,7.1052,7.1014,7.0937,7.0898,7.0898,7.0898,7.0898,7.0898,7.0898,7.0937,7.0937,7.1321,7.1591,7.2129,7.2783,7.363,7.4245,7.4591,7.47,7.4507,7.457,7.517,7.5334,7.5357,7.5359,7.5404,7.5297,7.5199,7.5113,7.4983,7.4773,7.4793,7.5159,7.5624,7.6131,7.6864,7.7768,7.8243,7.829,7.829,7.8141,7.8216,7.829,7.829,7.829,7.1844,7.2034,7.1988,7.1915,7.1804,7.1441,7.1241,7.1213,7.1207,7.1178,7.1148,7.1142,7.1142,7.1032,7.0676,7.0461,7.0423,7.0081,6.9849,6.9772,6.9291,6.9164,6.9141,6.9061,6.9019,6.9014,6.8963,6.8963,6.8866,6.8507,6.8353,6.8276,6.8391,6.8122,6.7737,6.759,6.7398,6.6859,6.6397,6.6019,6.5942,6.5981,6.5904,6.5974,6.5974,6.5974,6.6013,6.6128,6.6365,6.6474,6.6558,6.709,6.7744,6.7975,6.8629,6.9975,7.0475,7.0821,7.0898,7.0898,7.0898,7.1014,7.1206,7.1437,7.1437,7.1514,7.1514,7.1559,7.1482,7.1444,7.1283,7.1129,7.1014,7.0898,7.0898,7.0898,7.0898,7.0898,7.0937,7.0975,7.1245,7.1668,7.2129,7.2713,7.336,7.4168,7.4861,7.5322,7.5438,7.5361,7.5324,7.5595,7.5626,7.5608,7.5578,7.5459,7.5329,7.52,7.5045,7.4891,7.4762,7.5103,7.5643,7.6417,7.7153,7.779,7.822,7.8281,7.829,7.829,7.829,7.829,7.829,7.829,7.829,7.2189,7.2758,7.2778,7.277,7.2562,7.1777,7.1367,7.1284,7.1246,7.1207,7.1207,7.1207,7.1213,7.118,7.1059,7.1115,7.107,7.0877,7.08,7.1214,7.0419,7.0093,7.0065,7.0037,6.996,6.9925,6.9875,6.9836,6.9597,6.9314,6.9007,6.8584,6.8776,6.8737,6.859,6.8513,6.8282,6.7814,6.7051,6.6513,6.6397,6.6205,6.6096,6.6244,6.6282,6.6282,6.6397,6.6744,6.7212,6.7475,6.7782,6.8237,6.8706,6.9244,7.009,7.0475,7.0821,7.086,7.0898,7.0898,7.1052,7.1283,7.1706,7.2052,7.2168,7.2283,7.2283,7.2283,7.2283,7.2283,7.2206,7.1706,7.1398,7.1206,7.1091,7.1014,7.0898,7.0975,7.1091,7.1206,7.1629,7.2129,7.3014,7.363,7.413,7.4861,7.5322,7.5822,7.5892,7.5853,7.5848,7.5872,7.5794,7.566,7.5583,7.5462,7.5301,7.5171,7.5023,7.5077,7.5043,7.557,7.6237,7.7067,7.7898,7.8062,7.8345,7.8355,7.829,7.829,7.829,7.829,7.829,7.829,7.829,7.2643,7.2778,7.3346,7.3568,7.3394,7.2565,7.2167,7.2123,7.1433,7.1207,7.1219,7.1253,7.1269,7.1269,7.128,7.1291,7.1291,7.1291,7.1291,7.1253,7.0943,7.0783,7.0921,7.0766,7.0774,7.0779,7.0722,7.058,7.0412,7.0244,7.0244,7.0244,7.0129,6.986,6.9398,6.9398,6.9129,6.8699,6.8237,6.7776,6.7776,6.7821,6.7821,6.7744,6.7705,6.759,6.7705,6.7891,6.809,6.8205,6.8276,6.8744,6.936,7.0167,7.0629,7.086,7.0898,7.0898,7.0937,7.1014,7.1283,7.1706,7.2206,7.2629,7.2899,7.3091,7.3206,7.3206,7.3168,7.3206,7.3014,7.2399,7.179,7.1552,7.1321,7.1129,7.0937,7.1091,7.1245,7.1629,7.2021,7.286,7.3783,7.4437,7.5014,7.5399,7.5668,7.5969,7.5947,7.5932,7.5848,7.5872,7.5779,7.5682,7.5557,7.5409,7.5237,7.5122,7.4998,7.5134,7.5425,7.6181,7.6967,7.779,7.8491,7.8441,7.8369,7.8341,7.829,7.829,7.829,7.829,7.829,7.829,7.829,7.3214,7.3809,7.4243,7.4367,7.4099,7.2987,7.2446,7.231,7.1588,7.1224,7.1247,7.128,7.1291,7.1291,7.1291,7.1291,7.1291,7.1291,7.1291,7.1291,7.1291,7.1253,7.1275,7.1258,7.1136,7.1148,7.1043,7.0934,7.0905,7.086,7.0821,7.0898,7.086,7.0667,7.0206,7.0167,6.9975,6.9584,6.943,6.9391,6.9237,6.893,6.8468,6.8391,6.843,6.843,6.8584,6.866,6.8968,6.9167,6.936,6.9706,7.0206,7.0629,7.0821,7.0898,7.0898,7.0898,7.0975,7.1283,7.1629,7.2129,7.3129,7.3745,7.4014,7.4161,7.4322,7.4322,7.4046,7.4007,7.3815,7.3276,7.2514,7.2052,7.1783,7.1552,7.1398,7.1398,7.1636,7.1944,7.2629,7.3745,7.4553,7.5053,7.5515,7.5668,7.5976,7.6007,7.5985,7.5925,7.5879,7.5817,7.5707,7.5561,7.5445,7.5301,7.519,7.5071,7.5019,7.5824,7.6424,7.7053,7.7764,7.8271,7.8512,7.84,7.8355,7.8327,7.829,7.829,7.829,7.829,7.829,7.829,7.829,7.4014,7.5255,7.519,7.5168,7.4918,7.3446,7.2751,7.253,7.1742,7.1357,7.1286,7.1291,7.1291,7.1291,7.1291,7.1291,7.1291,7.1291,7.1291,7.1291,7.1291,7.1291,7.1291,7.1286,7.1236,7.116,7.1056,7.0972,7.0898,7.0898,7.0898,7.0898,7.0898,7.086,7.0898,7.086,7.0667,7.0552,7.0552,7.0706,7.0244,6.959,6.9122,6.8814,6.8699,6.8737,6.9007,6.9314,6.9821,7.0014,7.0283,7.0514,7.0667,7.0821,7.086,7.0898,7.0898,7.0898,7.1052,7.1629,7.2052,7.2706,7.4014,7.4738,7.493,7.5123,7.5245,7.5168,7.493,7.4738,7.4546,7.4123,7.3322,7.2745,7.2437,7.2129,7.2014,7.1937,7.2213,7.2482,7.3437,7.4584,7.513,7.5668,7.5822,7.5938,7.5976,7.6007,7.5978,7.5856,7.5786,7.569,7.5599,7.5433,7.5309,7.5227,7.5133,7.5173,7.5307,7.644,7.7388,7.7754,7.8099,7.8368,7.8509,7.8359,7.8341,7.829,7.829,7.829,7.829,7.829,7.829,7.829,7.829,7.5332,7.6067,7.6043,7.5974,7.5689,7.4797,7.4051,7.3407,7.2613,7.1898,7.1441,7.1291,7.1291,7.1291,7.1291,7.1291,7.1291,7.1291,7.1291,7.1291,7.1291,7.1291,7.1291,7.1291,7.1224,7.1142,7.105,7.0972,7.0905,7.0898,7.0898,7.0898,7.0898,7.0898,7.0898,7.0898,7.0898,7.0898,7.0898,7.0898,7.0898,7.0514,7.0552,7.0437,7.0398,7.0437,7.0514,7.0591,7.0629,7.0706,7.0744,7.086,7.0898,7.0898,7.0898,7.0898,7.0898,7.1014,7.1283,7.1937,7.2476,7.3322,7.4392,7.5123,7.5361,7.5668,7.5745,7.5745,7.5592,7.5592,7.5361,7.4853,7.4207,7.386,7.3546,7.3199,7.293,7.3129,7.336,7.3745,7.4322,7.5091,7.563,7.5899,7.5899,7.5976,7.5976,7.6,7.5933,7.5818,7.5731,7.5578,7.5468,7.5371,7.5281,7.519,7.5122,7.517,7.5583,7.6662,7.7565,7.8215,7.8508,7.8552,7.8468,7.8318,7.829,7.829,7.829,7.829,7.829,7.829,7.829,7.829,7.829]}]]